<?xml version="1.0" encoding="UTF-8" standalone="no" ?>
<gpx xmlns="http://www.topografix.com/GPX/1/1" xmlns:xsi="http://www.w3.org/2001/XMLSchema-instance" xsi:schemaLocation="http://www.topografix.com/GPX/1/1 http://www.topografix.com/GPX/1/1/gpx.xsd" version="1.1" creator="VisuGPX - https://www.visugpx.com">
  <metadata>
    <name>lembras</name>
    <desc><![CDATA[temps soleil]]></desc>
  </metadata>
  <wpt lat="44.85829" lon="0.50388">
    <ele>30.89</ele>
    <name><![CDATA[MAISON]]></name>
  </wpt>
  <trk>
    <name><![CDATA[ACTIVE LOG: 12 JAN 2014 13:50]]></name>
    <trkseg>
      <trkpt lat="44.89431" lon="0.52713">
        <ele>92.42</ele>
        <time>2014-01-12T12:50:41Z</time>
      </trkpt>
      <trkpt lat="44.89427" lon="0.52712">
        <ele>97.23</ele>
        <time>2014-01-12T12:50:44Z</time>
      </trkpt>
      <trkpt lat="44.89421" lon="0.52711">
        <ele>92.9</ele>
        <time>2014-01-12T12:50:49Z</time>
      </trkpt>
      <trkpt lat="44.8942" lon="0.52711">
        <ele>95.79</ele>
        <time>2014-01-12T12:50:50Z</time>
      </trkpt>
      <trkpt lat="44.89403" lon="0.52703">
        <ele>94.35</ele>
        <time>2014-01-12T12:51:04Z</time>
      </trkpt>
      <trkpt lat="44.89396" lon="0.52699">
        <ele>94.35</ele>
        <time>2014-01-12T12:51:09Z</time>
      </trkpt>
      <trkpt lat="44.8938" lon="0.52694">
        <ele>93.39</ele>
        <time>2014-01-12T12:51:21Z</time>
      </trkpt>
      <trkpt lat="44.89378" lon="0.52694">
        <ele>92.9</ele>
        <time>2014-01-12T12:51:22Z</time>
      </trkpt>
      <trkpt lat="44.89371" lon="0.52688">
        <ele>90.02</ele>
        <time>2014-01-12T12:51:28Z</time>
      </trkpt>
      <trkpt lat="44.89354" lon="0.52682">
        <ele>90.5</ele>
        <time>2014-01-12T12:51:43Z</time>
      </trkpt>
      <trkpt lat="44.89341" lon="0.5268">
        <ele>87.14</ele>
        <time>2014-01-12T12:51:52Z</time>
      </trkpt>
      <trkpt lat="44.89334" lon="0.5268">
        <ele>86.66</ele>
        <time>2014-01-12T12:51:56Z</time>
      </trkpt>
      <trkpt lat="44.89311" lon="0.52666">
        <ele>84.73</ele>
        <time>2014-01-12T12:52:10Z</time>
      </trkpt>
      <trkpt lat="44.89299" lon="0.52659">
        <ele>82.81</ele>
        <time>2014-01-12T12:52:22Z</time>
      </trkpt>
      <trkpt lat="44.8928" lon="0.52646">
        <ele>80.41</ele>
        <time>2014-01-12T12:52:36Z</time>
      </trkpt>
      <trkpt lat="44.89257" lon="0.52644">
        <ele>77.52</ele>
        <time>2014-01-12T12:52:52Z</time>
      </trkpt>
      <trkpt lat="44.89239" lon="0.52644">
        <ele>76.08</ele>
        <time>2014-01-12T12:53:05Z</time>
      </trkpt>
      <trkpt lat="44.89225" lon="0.52644">
        <ele>73.2</ele>
        <time>2014-01-12T12:53:16Z</time>
      </trkpt>
      <trkpt lat="44.89203" lon="0.52643">
        <ele>71.27</ele>
        <time>2014-01-12T12:53:34Z</time>
      </trkpt>
      <trkpt lat="44.89186" lon="0.52641">
        <ele>69.83</ele>
        <time>2014-01-12T12:53:48Z</time>
      </trkpt>
      <trkpt lat="44.89171" lon="0.52637">
        <ele>67.91</ele>
        <time>2014-01-12T12:54:03Z</time>
      </trkpt>
      <trkpt lat="44.89157" lon="0.52634">
        <ele>65.51</ele>
        <time>2014-01-12T12:54:14Z</time>
      </trkpt>
      <trkpt lat="44.89137" lon="0.52628">
        <ele>64.07</ele>
        <time>2014-01-12T12:54:28Z</time>
      </trkpt>
      <trkpt lat="44.89121" lon="0.52626">
        <ele>62.62</ele>
        <time>2014-01-12T12:54:40Z</time>
      </trkpt>
      <trkpt lat="44.89109" lon="0.52625">
        <ele>59.74</ele>
        <time>2014-01-12T12:54:51Z</time>
      </trkpt>
      <trkpt lat="44.89102" lon="0.52625">
        <ele>59.26</ele>
        <time>2014-01-12T12:54:56Z</time>
      </trkpt>
      <trkpt lat="44.89088" lon="0.52625">
        <ele>58.78</ele>
        <time>2014-01-12T12:55:07Z</time>
      </trkpt>
      <trkpt lat="44.89071" lon="0.52627">
        <ele>55.41</ele>
        <time>2014-01-12T12:55:24Z</time>
      </trkpt>
      <trkpt lat="44.89061" lon="0.52626">
        <ele>54.93</ele>
        <time>2014-01-12T12:55:32Z</time>
      </trkpt>
      <trkpt lat="44.89057" lon="0.52623">
        <ele>53.49</ele>
        <time>2014-01-12T12:55:36Z</time>
      </trkpt>
      <trkpt lat="44.89053" lon="0.52624">
        <ele>53.97</ele>
        <time>2014-01-12T12:55:44Z</time>
      </trkpt>
      <trkpt lat="44.89052" lon="0.52628">
        <ele>53.49</ele>
        <time>2014-01-12T12:55:48Z</time>
      </trkpt>
      <trkpt lat="44.89048" lon="0.52635">
        <ele>51.57</ele>
        <time>2014-01-12T12:55:54Z</time>
      </trkpt>
      <trkpt lat="44.8904" lon="0.52645">
        <ele>51.09</ele>
        <time>2014-01-12T12:56:04Z</time>
      </trkpt>
      <trkpt lat="44.89028" lon="0.52671">
        <ele>48.2</ele>
        <time>2014-01-12T12:56:22Z</time>
      </trkpt>
      <trkpt lat="44.89018" lon="0.52693">
        <ele>47.72</ele>
        <time>2014-01-12T12:56:36Z</time>
      </trkpt>
      <trkpt lat="44.89011" lon="0.52707">
        <ele>47.24</ele>
        <time>2014-01-12T12:56:45Z</time>
      </trkpt>
      <trkpt lat="44.89001" lon="0.52729">
        <ele>46.76</ele>
        <time>2014-01-12T12:57:00Z</time>
      </trkpt>
      <trkpt lat="44.88987" lon="0.52748">
        <ele>46.28</ele>
        <time>2014-01-12T12:57:14Z</time>
      </trkpt>
      <trkpt lat="44.88982" lon="0.52758">
        <ele>47.24</ele>
        <time>2014-01-12T12:57:22Z</time>
      </trkpt>
      <trkpt lat="44.88967" lon="0.52779">
        <ele>49.16</ele>
        <time>2014-01-12T12:57:39Z</time>
      </trkpt>
      <trkpt lat="44.88964" lon="0.52783">
        <ele>47.72</ele>
        <time>2014-01-12T12:57:45Z</time>
      </trkpt>
      <trkpt lat="44.8896" lon="0.52783">
        <ele>48.68</ele>
        <time>2014-01-12T12:57:49Z</time>
      </trkpt>
      <trkpt lat="44.88944" lon="0.52776">
        <ele>48.2</ele>
        <time>2014-01-12T12:58:01Z</time>
      </trkpt>
      <trkpt lat="44.88939" lon="0.52776">
        <ele>47.24</ele>
        <time>2014-01-12T12:58:05Z</time>
      </trkpt>
      <trkpt lat="44.88927" lon="0.52768">
        <ele>46.76</ele>
        <time>2014-01-12T12:58:17Z</time>
      </trkpt>
      <trkpt lat="44.8891" lon="0.52764">
        <ele>47.24</ele>
        <time>2014-01-12T12:58:28Z</time>
      </trkpt>
      <trkpt lat="44.88908" lon="0.52764">
        <ele>47.24</ele>
        <time>2014-01-12T12:58:30Z</time>
      </trkpt>
      <trkpt lat="44.88891" lon="0.52758">
        <ele>46.28</ele>
        <time>2014-01-12T12:58:45Z</time>
      </trkpt>
      <trkpt lat="44.88856" lon="0.52759">
        <ele>46.28</ele>
        <time>2014-01-12T12:59:12Z</time>
      </trkpt>
      <trkpt lat="44.88826" lon="0.52758">
        <ele>45.8</ele>
        <time>2014-01-12T12:59:34Z</time>
      </trkpt>
      <trkpt lat="44.88808" lon="0.52754">
        <ele>44.36</ele>
        <time>2014-01-12T12:59:50Z</time>
      </trkpt>
      <trkpt lat="44.88803" lon="0.52754">
        <ele>44.84</ele>
        <time>2014-01-12T12:59:54Z</time>
      </trkpt>
      <trkpt lat="44.88799" lon="0.52754">
        <ele>45.32</ele>
        <time>2014-01-12T12:59:58Z</time>
      </trkpt>
      <trkpt lat="44.88773" lon="0.5275">
        <ele>44.84</ele>
        <time>2014-01-12T13:00:17Z</time>
      </trkpt>
      <trkpt lat="44.88743" lon="0.52746">
        <ele>43.88</ele>
        <time>2014-01-12T13:00:37Z</time>
      </trkpt>
      <trkpt lat="44.88722" lon="0.52737">
        <ele>43.88</ele>
        <time>2014-01-12T13:00:54Z</time>
      </trkpt>
      <trkpt lat="44.88699" lon="0.52728">
        <ele>43.4</ele>
        <time>2014-01-12T13:01:11Z</time>
      </trkpt>
      <trkpt lat="44.88686" lon="0.52717">
        <ele>43.88</ele>
        <time>2014-01-12T13:01:24Z</time>
      </trkpt>
      <trkpt lat="44.88668" lon="0.52704">
        <ele>43.88</ele>
        <time>2014-01-12T13:01:39Z</time>
      </trkpt>
      <trkpt lat="44.88659" lon="0.52695">
        <ele>42.92</ele>
        <time>2014-01-12T13:01:47Z</time>
      </trkpt>
      <trkpt lat="44.88649" lon="0.52692">
        <ele>42.92</ele>
        <time>2014-01-12T13:01:59Z</time>
      </trkpt>
      <trkpt lat="44.88645" lon="0.52689">
        <ele>42.92</ele>
        <time>2014-01-12T13:02:21Z</time>
      </trkpt>
      <trkpt lat="44.8865" lon="0.52691">
        <ele>43.88</ele>
        <time>2014-01-12T13:03:52Z</time>
      </trkpt>
      <trkpt lat="44.88641" lon="0.52685">
        <ele>43.4</ele>
        <time>2014-01-12T13:04:25Z</time>
      </trkpt>
      <trkpt lat="44.88623" lon="0.52664">
        <ele>43.4</ele>
        <time>2014-01-12T13:04:38Z</time>
      </trkpt>
      <trkpt lat="44.88607" lon="0.5265">
        <ele>42.92</ele>
        <time>2014-01-12T13:04:55Z</time>
      </trkpt>
      <trkpt lat="44.88594" lon="0.52638">
        <ele>41.95</ele>
        <time>2014-01-12T13:05:08Z</time>
      </trkpt>
      <trkpt lat="44.88579" lon="0.52629">
        <ele>41.95</ele>
        <time>2014-01-12T13:05:21Z</time>
      </trkpt>
      <trkpt lat="44.88578" lon="0.52629">
        <ele>41.95</ele>
        <time>2014-01-12T13:05:22Z</time>
      </trkpt>
      <trkpt lat="44.8856" lon="0.52619">
        <ele>41.47</ele>
        <time>2014-01-12T13:05:37Z</time>
      </trkpt>
      <trkpt lat="44.88558" lon="0.52618">
        <ele>40.51</ele>
        <time>2014-01-12T13:05:39Z</time>
      </trkpt>
      <trkpt lat="44.88544" lon="0.52597">
        <ele>40.51</ele>
        <time>2014-01-12T13:05:57Z</time>
      </trkpt>
      <trkpt lat="44.88542" lon="0.52595">
        <ele>40.03</ele>
        <time>2014-01-12T13:06:01Z</time>
      </trkpt>
      <trkpt lat="44.88524" lon="0.52576">
        <ele>39.55</ele>
        <time>2014-01-12T13:06:18Z</time>
      </trkpt>
      <trkpt lat="44.88507" lon="0.52564">
        <ele>40.03</ele>
        <time>2014-01-12T13:06:34Z</time>
      </trkpt>
      <trkpt lat="44.88491" lon="0.52555">
        <ele>40.03</ele>
        <time>2014-01-12T13:06:47Z</time>
      </trkpt>
      <trkpt lat="44.88476" lon="0.52533">
        <ele>39.55</ele>
        <time>2014-01-12T13:07:03Z</time>
      </trkpt>
      <trkpt lat="44.88458" lon="0.52521">
        <ele>39.55</ele>
        <time>2014-01-12T13:07:18Z</time>
      </trkpt>
      <trkpt lat="44.88454" lon="0.52514">
        <ele>39.55</ele>
        <time>2014-01-12T13:07:34Z</time>
      </trkpt>
      <trkpt lat="44.88461" lon="0.52512">
        <ele>39.55</ele>
        <time>2014-01-12T13:07:50Z</time>
      </trkpt>
      <trkpt lat="44.8846" lon="0.52511">
        <ele>39.07</ele>
        <time>2014-01-12T13:07:56Z</time>
      </trkpt>
      <trkpt lat="44.88433" lon="0.52501">
        <ele>39.55</ele>
        <time>2014-01-12T13:08:14Z</time>
      </trkpt>
      <trkpt lat="44.88421" lon="0.52496">
        <ele>39.07</ele>
        <time>2014-01-12T13:08:26Z</time>
      </trkpt>
      <trkpt lat="44.88399" lon="0.52503">
        <ele>39.55</ele>
        <time>2014-01-12T13:08:43Z</time>
      </trkpt>
      <trkpt lat="44.88393" lon="0.52502">
        <ele>39.55</ele>
        <time>2014-01-12T13:08:49Z</time>
      </trkpt>
      <trkpt lat="44.88377" lon="0.52523">
        <ele>38.59</ele>
        <time>2014-01-12T13:09:08Z</time>
      </trkpt>
      <trkpt lat="44.88363" lon="0.52522">
        <ele>37.63</ele>
        <time>2014-01-12T13:09:20Z</time>
      </trkpt>
      <trkpt lat="44.88361" lon="0.52521">
        <ele>37.15</ele>
        <time>2014-01-12T13:09:24Z</time>
      </trkpt>
      <trkpt lat="44.88341" lon="0.52523">
        <ele>37.15</ele>
        <time>2014-01-12T13:09:41Z</time>
      </trkpt>
      <trkpt lat="44.88328" lon="0.52546">
        <ele>37.15</ele>
        <time>2014-01-12T13:09:58Z</time>
      </trkpt>
      <trkpt lat="44.88322" lon="0.52564">
        <ele>37.15</ele>
        <time>2014-01-12T13:10:10Z</time>
      </trkpt>
      <trkpt lat="44.88322" lon="0.52567">
        <ele>37.15</ele>
        <time>2014-01-12T13:10:12Z</time>
      </trkpt>
      <trkpt lat="44.8832" lon="0.52575">
        <ele>37.15</ele>
        <time>2014-01-12T13:10:18Z</time>
      </trkpt>
      <trkpt lat="44.88317" lon="0.52594">
        <ele>38.11</ele>
        <time>2014-01-12T13:10:31Z</time>
      </trkpt>
      <trkpt lat="44.88315" lon="0.52596">
        <ele>38.11</ele>
        <time>2014-01-12T13:10:34Z</time>
      </trkpt>
      <trkpt lat="44.88314" lon="0.52612">
        <ele>37.15</ele>
        <time>2014-01-12T13:10:44Z</time>
      </trkpt>
      <trkpt lat="44.88312" lon="0.52619">
        <ele>38.11</ele>
        <time>2014-01-12T13:10:49Z</time>
      </trkpt>
      <trkpt lat="44.88305" lon="0.52622">
        <ele>37.15</ele>
        <time>2014-01-12T13:10:59Z</time>
      </trkpt>
      <trkpt lat="44.88297" lon="0.52621">
        <ele>38.11</ele>
        <time>2014-01-12T13:11:06Z</time>
      </trkpt>
      <trkpt lat="44.88288" lon="0.52641">
        <ele>37.63</ele>
        <time>2014-01-12T13:11:20Z</time>
      </trkpt>
      <trkpt lat="44.88271" lon="0.5266">
        <ele>37.63</ele>
        <time>2014-01-12T13:11:37Z</time>
      </trkpt>
      <trkpt lat="44.88272" lon="0.52663">
        <ele>37.63</ele>
        <time>2014-01-12T13:11:47Z</time>
      </trkpt>
      <trkpt lat="44.88261" lon="0.5268">
        <ele>39.07</ele>
        <time>2014-01-12T13:12:27Z</time>
      </trkpt>
      <trkpt lat="44.88246" lon="0.52708">
        <ele>39.07</ele>
        <time>2014-01-12T13:12:46Z</time>
      </trkpt>
      <trkpt lat="44.8823" lon="0.52733">
        <ele>40.51</ele>
        <time>2014-01-12T13:13:05Z</time>
      </trkpt>
      <trkpt lat="44.88225" lon="0.5275">
        <ele>40.03</ele>
        <time>2014-01-12T13:13:16Z</time>
      </trkpt>
      <trkpt lat="44.88223" lon="0.52755">
        <ele>40.51</ele>
        <time>2014-01-12T13:13:19Z</time>
      </trkpt>
      <trkpt lat="44.88213" lon="0.52785">
        <ele>39.07</ele>
        <time>2014-01-12T13:13:37Z</time>
      </trkpt>
      <trkpt lat="44.88206" lon="0.52801">
        <ele>40.51</ele>
        <time>2014-01-12T13:13:49Z</time>
      </trkpt>
      <trkpt lat="44.88205" lon="0.52804">
        <ele>40.03</ele>
        <time>2014-01-12T13:13:51Z</time>
      </trkpt>
      <trkpt lat="44.88198" lon="0.52817">
        <ele>41.47</ele>
        <time>2014-01-12T13:14:00Z</time>
      </trkpt>
      <trkpt lat="44.88191" lon="0.52831">
        <ele>39.07</ele>
        <time>2014-01-12T13:14:11Z</time>
      </trkpt>
      <trkpt lat="44.88191" lon="0.52832">
        <ele>40.99</ele>
        <time>2014-01-12T13:14:13Z</time>
      </trkpt>
      <trkpt lat="44.88188" lon="0.52835">
        <ele>40.51</ele>
        <time>2014-01-12T13:14:25Z</time>
      </trkpt>
      <trkpt lat="44.88181" lon="0.52847">
        <ele>40.51</ele>
        <time>2014-01-12T13:14:37Z</time>
      </trkpt>
      <trkpt lat="44.88168" lon="0.52859">
        <ele>39.55</ele>
        <time>2014-01-12T13:14:49Z</time>
      </trkpt>
      <trkpt lat="44.88163" lon="0.52863">
        <ele>40.03</ele>
        <time>2014-01-12T13:14:54Z</time>
      </trkpt>
      <trkpt lat="44.88148" lon="0.52876">
        <ele>40.03</ele>
        <time>2014-01-12T13:15:09Z</time>
      </trkpt>
      <trkpt lat="44.88141" lon="0.52887">
        <ele>40.03</ele>
        <time>2014-01-12T13:15:22Z</time>
      </trkpt>
      <trkpt lat="44.88133" lon="0.52899">
        <ele>39.55</ele>
        <time>2014-01-12T13:15:35Z</time>
      </trkpt>
      <trkpt lat="44.88126" lon="0.52902">
        <ele>39.55</ele>
        <time>2014-01-12T13:15:47Z</time>
      </trkpt>
      <trkpt lat="44.88127" lon="0.529">
        <ele>40.03</ele>
        <time>2014-01-12T13:16:09Z</time>
      </trkpt>
      <trkpt lat="44.88127" lon="0.52899">
        <ele>39.07</ele>
        <time>2014-01-12T13:16:13Z</time>
      </trkpt>
      <trkpt lat="44.88118" lon="0.5289">
        <ele>38.11</ele>
        <time>2014-01-12T13:16:22Z</time>
      </trkpt>
      <trkpt lat="44.88114" lon="0.52883">
        <ele>39.07</ele>
        <time>2014-01-12T13:16:29Z</time>
      </trkpt>
      <trkpt lat="44.88108" lon="0.52878">
        <ele>38.11</ele>
        <time>2014-01-12T13:16:36Z</time>
      </trkpt>
      <trkpt lat="44.88089" lon="0.52872">
        <ele>38.11</ele>
        <time>2014-01-12T13:16:53Z</time>
      </trkpt>
      <trkpt lat="44.88073" lon="0.52866">
        <ele>37.63</ele>
        <time>2014-01-12T13:17:09Z</time>
      </trkpt>
      <trkpt lat="44.8806" lon="0.52858">
        <ele>37.15</ele>
        <time>2014-01-12T13:17:22Z</time>
      </trkpt>
      <trkpt lat="44.8805" lon="0.52869">
        <ele>37.63</ele>
        <time>2014-01-12T13:17:36Z</time>
      </trkpt>
      <trkpt lat="44.88044" lon="0.52873">
        <ele>37.15</ele>
        <time>2014-01-12T13:17:42Z</time>
      </trkpt>
      <trkpt lat="44.88035" lon="0.52872">
        <ele>36.67</ele>
        <time>2014-01-12T13:17:50Z</time>
      </trkpt>
      <trkpt lat="44.88024" lon="0.52867">
        <ele>37.15</ele>
        <time>2014-01-12T13:18:05Z</time>
      </trkpt>
      <trkpt lat="44.88012" lon="0.52863">
        <ele>37.15</ele>
        <time>2014-01-12T13:18:19Z</time>
      </trkpt>
      <trkpt lat="44.88" lon="0.52856">
        <ele>36.19</ele>
        <time>2014-01-12T13:18:35Z</time>
      </trkpt>
      <trkpt lat="44.87996" lon="0.52852">
        <ele>37.63</ele>
        <time>2014-01-12T13:19:09Z</time>
      </trkpt>
      <trkpt lat="44.87988" lon="0.52849">
        <ele>37.15</ele>
        <time>2014-01-12T13:19:15Z</time>
      </trkpt>
      <trkpt lat="44.87979" lon="0.52848">
        <ele>38.11</ele>
        <time>2014-01-12T13:19:22Z</time>
      </trkpt>
      <trkpt lat="44.87962" lon="0.52842">
        <ele>37.15</ele>
        <time>2014-01-12T13:19:36Z</time>
      </trkpt>
      <trkpt lat="44.87952" lon="0.52841">
        <ele>37.63</ele>
        <time>2014-01-12T13:19:48Z</time>
      </trkpt>
      <trkpt lat="44.87951" lon="0.52841">
        <ele>37.63</ele>
        <time>2014-01-12T13:19:49Z</time>
      </trkpt>
      <trkpt lat="44.87947" lon="0.52842">
        <ele>38.11</ele>
        <time>2014-01-12T13:19:53Z</time>
      </trkpt>
      <trkpt lat="44.87939" lon="0.52843">
        <ele>37.63</ele>
        <time>2014-01-12T13:20:02Z</time>
      </trkpt>
      <trkpt lat="44.87931" lon="0.5285">
        <ele>38.59</ele>
        <time>2014-01-12T13:20:14Z</time>
      </trkpt>
      <trkpt lat="44.87935" lon="0.52853">
        <ele>38.11</ele>
        <time>2014-01-12T13:20:40Z</time>
      </trkpt>
      <trkpt lat="44.87935" lon="0.52854">
        <ele>37.63</ele>
        <time>2014-01-12T13:20:55Z</time>
      </trkpt>
      <trkpt lat="44.87938" lon="0.52862">
        <ele>37.15</ele>
        <time>2014-01-12T13:21:10Z</time>
      </trkpt>
      <trkpt lat="44.87932" lon="0.52892">
        <ele>37.63</ele>
        <time>2014-01-12T13:21:25Z</time>
      </trkpt>
      <trkpt lat="44.87919" lon="0.52905">
        <ele>38.59</ele>
        <time>2014-01-12T13:21:41Z</time>
      </trkpt>
      <trkpt lat="44.87918" lon="0.52912">
        <ele>38.59</ele>
        <time>2014-01-12T13:21:45Z</time>
      </trkpt>
      <trkpt lat="44.87919" lon="0.52935">
        <ele>38.11</ele>
        <time>2014-01-12T13:22:02Z</time>
      </trkpt>
      <trkpt lat="44.8792" lon="0.52954">
        <ele>38.11</ele>
        <time>2014-01-12T13:22:11Z</time>
      </trkpt>
      <trkpt lat="44.8792" lon="0.5296">
        <ele>38.59</ele>
        <time>2014-01-12T13:22:16Z</time>
      </trkpt>
      <trkpt lat="44.87919" lon="0.52971">
        <ele>38.11</ele>
        <time>2014-01-12T13:22:29Z</time>
      </trkpt>
      <trkpt lat="44.8792" lon="0.52971">
        <ele>38.59</ele>
        <time>2014-01-12T13:22:56Z</time>
      </trkpt>
      <trkpt lat="44.87932" lon="0.52998">
        <ele>37.63</ele>
        <time>2014-01-12T13:23:10Z</time>
      </trkpt>
      <trkpt lat="44.87935" lon="0.53006">
        <ele>39.07</ele>
        <time>2014-01-12T13:23:22Z</time>
      </trkpt>
      <trkpt lat="44.87937" lon="0.53013">
        <ele>39.07</ele>
        <time>2014-01-12T13:23:37Z</time>
      </trkpt>
      <trkpt lat="44.87938" lon="0.53017">
        <ele>38.59</ele>
        <time>2014-01-12T13:23:40Z</time>
      </trkpt>
      <trkpt lat="44.87941" lon="0.53037">
        <ele>38.59</ele>
        <time>2014-01-12T13:23:54Z</time>
      </trkpt>
      <trkpt lat="44.87941" lon="0.53038">
        <ele>39.07</ele>
        <time>2014-01-12T13:23:55Z</time>
      </trkpt>
      <trkpt lat="44.8794" lon="0.53045">
        <ele>38.59</ele>
        <time>2014-01-12T13:24:00Z</time>
      </trkpt>
      <trkpt lat="44.87943" lon="0.53064">
        <ele>37.63</ele>
        <time>2014-01-12T13:24:13Z</time>
      </trkpt>
      <trkpt lat="44.87949" lon="0.53082">
        <ele>38.11</ele>
        <time>2014-01-12T13:24:26Z</time>
      </trkpt>
      <trkpt lat="44.8796" lon="0.53093">
        <ele>38.11</ele>
        <time>2014-01-12T13:24:37Z</time>
      </trkpt>
      <trkpt lat="44.87968" lon="0.53108">
        <ele>39.07</ele>
        <time>2014-01-12T13:24:50Z</time>
      </trkpt>
      <trkpt lat="44.87975" lon="0.53129">
        <ele>38.11</ele>
        <time>2014-01-12T13:25:04Z</time>
      </trkpt>
      <trkpt lat="44.87977" lon="0.53136">
        <ele>38.11</ele>
        <time>2014-01-12T13:25:10Z</time>
      </trkpt>
      <trkpt lat="44.87989" lon="0.53132">
        <ele>38.11</ele>
        <time>2014-01-12T13:25:22Z</time>
      </trkpt>
      <trkpt lat="44.87998" lon="0.53133">
        <ele>38.11</ele>
        <time>2014-01-12T13:25:31Z</time>
      </trkpt>
      <trkpt lat="44.88009" lon="0.5315">
        <ele>37.63</ele>
        <time>2014-01-12T13:25:45Z</time>
      </trkpt>
      <trkpt lat="44.88015" lon="0.53154">
        <ele>38.59</ele>
        <time>2014-01-12T13:25:59Z</time>
      </trkpt>
      <trkpt lat="44.88014" lon="0.53155">
        <ele>38.11</ele>
        <time>2014-01-12T13:26:18Z</time>
      </trkpt>
      <trkpt lat="44.88016" lon="0.53175">
        <ele>38.59</ele>
        <time>2014-01-12T13:26:33Z</time>
      </trkpt>
      <trkpt lat="44.88015" lon="0.53182">
        <ele>37.63</ele>
        <time>2014-01-12T13:26:38Z</time>
      </trkpt>
      <trkpt lat="44.88017" lon="0.53202">
        <ele>39.07</ele>
        <time>2014-01-12T13:26:52Z</time>
      </trkpt>
      <trkpt lat="44.8802" lon="0.53214">
        <ele>38.59</ele>
        <time>2014-01-12T13:27:02Z</time>
      </trkpt>
      <trkpt lat="44.88025" lon="0.53223">
        <ele>38.11</ele>
        <time>2014-01-12T13:27:08Z</time>
      </trkpt>
      <trkpt lat="44.88035" lon="0.53231">
        <ele>38.59</ele>
        <time>2014-01-12T13:27:17Z</time>
      </trkpt>
      <trkpt lat="44.88043" lon="0.53247">
        <ele>38.11</ele>
        <time>2014-01-12T13:27:31Z</time>
      </trkpt>
      <trkpt lat="44.88042" lon="0.53258">
        <ele>38.11</ele>
        <time>2014-01-12T13:27:40Z</time>
      </trkpt>
      <trkpt lat="44.8804" lon="0.5326">
        <ele>40.51</ele>
        <time>2014-01-12T13:27:42Z</time>
      </trkpt>
      <trkpt lat="44.88037" lon="0.5327">
        <ele>38.59</ele>
        <time>2014-01-12T13:27:50Z</time>
      </trkpt>
      <trkpt lat="44.8804" lon="0.53283">
        <ele>38.59</ele>
        <time>2014-01-12T13:28:05Z</time>
      </trkpt>
      <trkpt lat="44.88038" lon="0.53296">
        <ele>39.55</ele>
        <time>2014-01-12T13:28:24Z</time>
      </trkpt>
      <trkpt lat="44.88035" lon="0.53298">
        <ele>38.59</ele>
        <time>2014-01-12T13:29:11Z</time>
      </trkpt>
      <trkpt lat="44.88036" lon="0.53308">
        <ele>39.55</ele>
        <time>2014-01-12T13:29:17Z</time>
      </trkpt>
      <trkpt lat="44.88039" lon="0.5332">
        <ele>39.07</ele>
        <time>2014-01-12T13:29:25Z</time>
      </trkpt>
      <trkpt lat="44.88043" lon="0.53342">
        <ele>39.07</ele>
        <time>2014-01-12T13:29:40Z</time>
      </trkpt>
      <trkpt lat="44.88047" lon="0.5336">
        <ele>39.55</ele>
        <time>2014-01-12T13:29:54Z</time>
      </trkpt>
      <trkpt lat="44.88049" lon="0.53381">
        <ele>40.03</ele>
        <time>2014-01-12T13:30:09Z</time>
      </trkpt>
      <trkpt lat="44.8805" lon="0.534">
        <ele>39.55</ele>
        <time>2014-01-12T13:30:22Z</time>
      </trkpt>
      <trkpt lat="44.8805" lon="0.53408">
        <ele>40.03</ele>
        <time>2014-01-12T13:30:37Z</time>
      </trkpt>
      <trkpt lat="44.8805" lon="0.53418">
        <ele>39.55</ele>
        <time>2014-01-12T13:30:50Z</time>
      </trkpt>
      <trkpt lat="44.88049" lon="0.5344">
        <ele>39.55</ele>
        <time>2014-01-12T13:31:06Z</time>
      </trkpt>
      <trkpt lat="44.8805" lon="0.53444">
        <ele>40.03</ele>
        <time>2014-01-12T13:31:08Z</time>
      </trkpt>
      <trkpt lat="44.88052" lon="0.53451">
        <ele>40.03</ele>
        <time>2014-01-12T13:31:11Z</time>
      </trkpt>
      <trkpt lat="44.88051" lon="0.53474">
        <ele>39.55</ele>
        <time>2014-01-12T13:31:24Z</time>
      </trkpt>
      <trkpt lat="44.88049" lon="0.53491">
        <ele>39.55</ele>
        <time>2014-01-12T13:31:35Z</time>
      </trkpt>
      <trkpt lat="44.88056" lon="0.5352">
        <ele>40.03</ele>
        <time>2014-01-12T13:31:50Z</time>
      </trkpt>
      <trkpt lat="44.88058" lon="0.53522">
        <ele>40.51</ele>
        <time>2014-01-12T13:31:52Z</time>
      </trkpt>
      <trkpt lat="44.88063" lon="0.53539">
        <ele>40.99</ele>
        <time>2014-01-12T13:32:05Z</time>
      </trkpt>
      <trkpt lat="44.88061" lon="0.5356">
        <ele>40.51</ele>
        <time>2014-01-12T13:32:19Z</time>
      </trkpt>
      <trkpt lat="44.88061" lon="0.53562">
        <ele>40.51</ele>
        <time>2014-01-12T13:32:20Z</time>
      </trkpt>
      <trkpt lat="44.88069" lon="0.53588">
        <ele>40.51</ele>
        <time>2014-01-12T13:32:34Z</time>
      </trkpt>
      <trkpt lat="44.88071" lon="0.53612">
        <ele>40.99</ele>
        <time>2014-01-12T13:32:49Z</time>
      </trkpt>
      <trkpt lat="44.88073" lon="0.53629">
        <ele>40.03</ele>
        <time>2014-01-12T13:33:00Z</time>
      </trkpt>
      <trkpt lat="44.88077" lon="0.53642">
        <ele>40.51</ele>
        <time>2014-01-12T13:33:08Z</time>
      </trkpt>
      <trkpt lat="44.8808" lon="0.53658">
        <ele>40.51</ele>
        <time>2014-01-12T13:33:20Z</time>
      </trkpt>
      <trkpt lat="44.88082" lon="0.53676">
        <ele>40.03</ele>
        <time>2014-01-12T13:33:32Z</time>
      </trkpt>
      <trkpt lat="44.88094" lon="0.53689">
        <ele>40.51</ele>
        <time>2014-01-12T13:33:43Z</time>
      </trkpt>
      <trkpt lat="44.88095" lon="0.53702">
        <ele>40.99</ele>
        <time>2014-01-12T13:33:53Z</time>
      </trkpt>
      <trkpt lat="44.88092" lon="0.53717">
        <ele>40.03</ele>
        <time>2014-01-12T13:34:03Z</time>
      </trkpt>
      <trkpt lat="44.88092" lon="0.53721">
        <ele>40.99</ele>
        <time>2014-01-12T13:34:06Z</time>
      </trkpt>
      <trkpt lat="44.88096" lon="0.53739">
        <ele>40.99</ele>
        <time>2014-01-12T13:34:20Z</time>
      </trkpt>
      <trkpt lat="44.88098" lon="0.53743">
        <ele>40.51</ele>
        <time>2014-01-12T13:34:24Z</time>
      </trkpt>
      <trkpt lat="44.88106" lon="0.53761">
        <ele>41.47</ele>
        <time>2014-01-12T13:34:37Z</time>
      </trkpt>
      <trkpt lat="44.88113" lon="0.53775">
        <ele>40.51</ele>
        <time>2014-01-12T13:34:47Z</time>
      </trkpt>
      <trkpt lat="44.88117" lon="0.53784">
        <ele>40.99</ele>
        <time>2014-01-12T13:34:52Z</time>
      </trkpt>
      <trkpt lat="44.88127" lon="0.53797">
        <ele>40.51</ele>
        <time>2014-01-12T13:35:04Z</time>
      </trkpt>
      <trkpt lat="44.88128" lon="0.53799">
        <ele>41.47</ele>
        <time>2014-01-12T13:35:05Z</time>
      </trkpt>
      <trkpt lat="44.88133" lon="0.53818">
        <ele>40.51</ele>
        <time>2014-01-12T13:35:21Z</time>
      </trkpt>
      <trkpt lat="44.88134" lon="0.53825">
        <ele>41.47</ele>
        <time>2014-01-12T13:35:25Z</time>
      </trkpt>
      <trkpt lat="44.8814" lon="0.53833">
        <ele>40.03</ele>
        <time>2014-01-12T13:35:31Z</time>
      </trkpt>
      <trkpt lat="44.88142" lon="0.53836">
        <ele>40.99</ele>
        <time>2014-01-12T13:35:38Z</time>
      </trkpt>
      <trkpt lat="44.88158" lon="0.53828">
        <ele>41.95</ele>
        <time>2014-01-12T13:35:59Z</time>
      </trkpt>
      <trkpt lat="44.88164" lon="0.53842">
        <ele>41.95</ele>
        <time>2014-01-12T13:36:12Z</time>
      </trkpt>
      <trkpt lat="44.88172" lon="0.53855">
        <ele>40.99</ele>
        <time>2014-01-12T13:36:24Z</time>
      </trkpt>
      <trkpt lat="44.88176" lon="0.53862">
        <ele>40.99</ele>
        <time>2014-01-12T13:36:30Z</time>
      </trkpt>
      <trkpt lat="44.88176" lon="0.53882">
        <ele>41.47</ele>
        <time>2014-01-12T13:36:46Z</time>
      </trkpt>
      <trkpt lat="44.88176" lon="0.53891">
        <ele>41.47</ele>
        <time>2014-01-12T13:36:56Z</time>
      </trkpt>
      <trkpt lat="44.88174" lon="0.53896">
        <ele>41.95</ele>
        <time>2014-01-12T13:37:00Z</time>
      </trkpt>
      <trkpt lat="44.88172" lon="0.53905">
        <ele>40.99</ele>
        <time>2014-01-12T13:37:07Z</time>
      </trkpt>
      <trkpt lat="44.8817" lon="0.5392">
        <ele>40.99</ele>
        <time>2014-01-12T13:37:18Z</time>
      </trkpt>
      <trkpt lat="44.88167" lon="0.5393">
        <ele>41.47</ele>
        <time>2014-01-12T13:37:25Z</time>
      </trkpt>
      <trkpt lat="44.88163" lon="0.53953">
        <ele>40.99</ele>
        <time>2014-01-12T13:37:39Z</time>
      </trkpt>
      <trkpt lat="44.88164" lon="0.53956">
        <ele>41.47</ele>
        <time>2014-01-12T13:37:42Z</time>
      </trkpt>
      <trkpt lat="44.88166" lon="0.53966">
        <ele>41.47</ele>
        <time>2014-01-12T13:37:50Z</time>
      </trkpt>
      <trkpt lat="44.8817" lon="0.53986">
        <ele>41.95</ele>
        <time>2014-01-12T13:38:03Z</time>
      </trkpt>
      <trkpt lat="44.88168" lon="0.53993">
        <ele>41.95</ele>
        <time>2014-01-12T13:38:09Z</time>
      </trkpt>
      <trkpt lat="44.88158" lon="0.54011">
        <ele>42.44</ele>
        <time>2014-01-12T13:38:24Z</time>
      </trkpt>
      <trkpt lat="44.88158" lon="0.54013">
        <ele>41.47</ele>
        <time>2014-01-12T13:38:25Z</time>
      </trkpt>
      <trkpt lat="44.88162" lon="0.54037">
        <ele>41.95</ele>
        <time>2014-01-12T13:38:42Z</time>
      </trkpt>
      <trkpt lat="44.88167" lon="0.54049">
        <ele>42.44</ele>
        <time>2014-01-12T13:38:50Z</time>
      </trkpt>
      <trkpt lat="44.88177" lon="0.54068">
        <ele>41.95</ele>
        <time>2014-01-12T13:39:06Z</time>
      </trkpt>
      <trkpt lat="44.88178" lon="0.5407">
        <ele>41.95</ele>
        <time>2014-01-12T13:39:07Z</time>
      </trkpt>
      <trkpt lat="44.88181" lon="0.54093">
        <ele>41.95</ele>
        <time>2014-01-12T13:39:23Z</time>
      </trkpt>
      <trkpt lat="44.88182" lon="0.54098">
        <ele>41.95</ele>
        <time>2014-01-12T13:39:26Z</time>
      </trkpt>
      <trkpt lat="44.88192" lon="0.54109">
        <ele>42.44</ele>
        <time>2014-01-12T13:39:40Z</time>
      </trkpt>
      <trkpt lat="44.88205" lon="0.54116">
        <ele>42.92</ele>
        <time>2014-01-12T13:39:55Z</time>
      </trkpt>
      <trkpt lat="44.88216" lon="0.54131">
        <ele>41.95</ele>
        <time>2014-01-12T13:40:10Z</time>
      </trkpt>
      <trkpt lat="44.88231" lon="0.54145">
        <ele>41.95</ele>
        <time>2014-01-12T13:40:26Z</time>
      </trkpt>
      <trkpt lat="44.8823" lon="0.54147">
        <ele>41.95</ele>
        <time>2014-01-12T13:40:29Z</time>
      </trkpt>
      <trkpt lat="44.88241" lon="0.5413">
        <ele>42.44</ele>
        <time>2014-01-12T13:40:41Z</time>
      </trkpt>
      <trkpt lat="44.8825" lon="0.54116">
        <ele>42.44</ele>
        <time>2014-01-12T13:40:52Z</time>
      </trkpt>
      <trkpt lat="44.88255" lon="0.54114">
        <ele>41.95</ele>
        <time>2014-01-12T13:41:13Z</time>
      </trkpt>
      <trkpt lat="44.88249" lon="0.54101">
        <ele>41.95</ele>
        <time>2014-01-12T13:41:40Z</time>
      </trkpt>
      <trkpt lat="44.88244" lon="0.54104">
        <ele>43.88</ele>
        <time>2014-01-12T13:42:02Z</time>
      </trkpt>
      <trkpt lat="44.88256" lon="0.54113">
        <ele>43.88</ele>
        <time>2014-01-12T13:42:22Z</time>
      </trkpt>
      <trkpt lat="44.88256" lon="0.54114">
        <ele>43.88</ele>
        <time>2014-01-12T13:42:55Z</time>
      </trkpt>
      <trkpt lat="44.88262" lon="0.54104">
        <ele>42.92</ele>
        <time>2014-01-12T13:43:39Z</time>
      </trkpt>
      <trkpt lat="44.88263" lon="0.54084">
        <ele>43.88</ele>
        <time>2014-01-12T13:43:53Z</time>
      </trkpt>
      <trkpt lat="44.88266" lon="0.54072">
        <ele>44.36</ele>
        <time>2014-01-12T13:44:02Z</time>
      </trkpt>
      <trkpt lat="44.88282" lon="0.54064">
        <ele>45.32</ele>
        <time>2014-01-12T13:44:17Z</time>
      </trkpt>
      <trkpt lat="44.88285" lon="0.54063">
        <ele>45.8</ele>
        <time>2014-01-12T13:44:20Z</time>
      </trkpt>
      <trkpt lat="44.88288" lon="0.5406">
        <ele>44.84</ele>
        <time>2014-01-12T13:44:24Z</time>
      </trkpt>
      <trkpt lat="44.88293" lon="0.54057">
        <ele>46.28</ele>
        <time>2014-01-12T13:44:29Z</time>
      </trkpt>
      <trkpt lat="44.88299" lon="0.54051">
        <ele>46.28</ele>
        <time>2014-01-12T13:44:35Z</time>
      </trkpt>
      <trkpt lat="44.88307" lon="0.54047">
        <ele>45.8</ele>
        <time>2014-01-12T13:44:42Z</time>
      </trkpt>
      <trkpt lat="44.88322" lon="0.54039">
        <ele>46.76</ele>
        <time>2014-01-12T13:44:57Z</time>
      </trkpt>
      <trkpt lat="44.88323" lon="0.54039">
        <ele>47.72</ele>
        <time>2014-01-12T13:44:58Z</time>
      </trkpt>
      <trkpt lat="44.88339" lon="0.54029">
        <ele>46.76</ele>
        <time>2014-01-12T13:45:14Z</time>
      </trkpt>
      <trkpt lat="44.88344" lon="0.54026">
        <ele>47.72</ele>
        <time>2014-01-12T13:45:20Z</time>
      </trkpt>
      <trkpt lat="44.88351" lon="0.5402">
        <ele>47.72</ele>
        <time>2014-01-12T13:45:36Z</time>
      </trkpt>
      <trkpt lat="44.88357" lon="0.54015">
        <ele>47.72</ele>
        <time>2014-01-12T13:45:48Z</time>
      </trkpt>
      <trkpt lat="44.8837" lon="0.54008">
        <ele>49.16</ele>
        <time>2014-01-12T13:46:02Z</time>
      </trkpt>
      <trkpt lat="44.88377" lon="0.54006">
        <ele>50.13</ele>
        <time>2014-01-12T13:46:11Z</time>
      </trkpt>
      <trkpt lat="44.88387" lon="0.53998">
        <ele>51.09</ele>
        <time>2014-01-12T13:46:23Z</time>
      </trkpt>
      <trkpt lat="44.88393" lon="0.53993">
        <ele>50.61</ele>
        <time>2014-01-12T13:46:29Z</time>
      </trkpt>
      <trkpt lat="44.88397" lon="0.53993">
        <ele>51.57</ele>
        <time>2014-01-12T13:46:33Z</time>
      </trkpt>
      <trkpt lat="44.88402" lon="0.53998">
        <ele>51.57</ele>
        <time>2014-01-12T13:46:49Z</time>
      </trkpt>
      <trkpt lat="44.88415" lon="0.54009">
        <ele>54.93</ele>
        <time>2014-01-12T13:47:03Z</time>
      </trkpt>
      <trkpt lat="44.88428" lon="0.54011">
        <ele>56.86</ele>
        <time>2014-01-12T13:47:18Z</time>
      </trkpt>
      <trkpt lat="44.88434" lon="0.5401">
        <ele>57.34</ele>
        <time>2014-01-12T13:47:26Z</time>
      </trkpt>
      <trkpt lat="44.8845" lon="0.54007">
        <ele>60.22</ele>
        <time>2014-01-12T13:47:42Z</time>
      </trkpt>
      <trkpt lat="44.88468" lon="0.54008">
        <ele>61.66</ele>
        <time>2014-01-12T13:47:58Z</time>
      </trkpt>
      <trkpt lat="44.88486" lon="0.54007">
        <ele>63.1</ele>
        <time>2014-01-12T13:48:12Z</time>
      </trkpt>
      <trkpt lat="44.88499" lon="0.54004">
        <ele>64.55</ele>
        <time>2014-01-12T13:48:26Z</time>
      </trkpt>
      <trkpt lat="44.88509" lon="0.53999">
        <ele>65.99</ele>
        <time>2014-01-12T13:48:37Z</time>
      </trkpt>
      <trkpt lat="44.88522" lon="0.54002">
        <ele>69.35</ele>
        <time>2014-01-12T13:48:50Z</time>
      </trkpt>
      <trkpt lat="44.88534" lon="0.54001">
        <ele>69.83</ele>
        <time>2014-01-12T13:49:00Z</time>
      </trkpt>
      <trkpt lat="44.88539" lon="0.53999">
        <ele>69.83</ele>
        <time>2014-01-12T13:49:04Z</time>
      </trkpt>
      <trkpt lat="44.8855" lon="0.53987">
        <ele>71.76</ele>
        <time>2014-01-12T13:49:15Z</time>
      </trkpt>
      <trkpt lat="44.88553" lon="0.53981">
        <ele>71.27</ele>
        <time>2014-01-12T13:49:20Z</time>
      </trkpt>
      <trkpt lat="44.88558" lon="0.53968">
        <ele>72.72</ele>
        <time>2014-01-12T13:49:31Z</time>
      </trkpt>
      <trkpt lat="44.88565" lon="0.53958">
        <ele>73.2</ele>
        <time>2014-01-12T13:49:39Z</time>
      </trkpt>
      <trkpt lat="44.88569" lon="0.53952">
        <ele>74.16</ele>
        <time>2014-01-12T13:49:44Z</time>
      </trkpt>
      <trkpt lat="44.88579" lon="0.53938">
        <ele>76.08</ele>
        <time>2014-01-12T13:49:57Z</time>
      </trkpt>
      <trkpt lat="44.88592" lon="0.53932">
        <ele>77.52</ele>
        <time>2014-01-12T13:50:10Z</time>
      </trkpt>
      <trkpt lat="44.88608" lon="0.53926">
        <ele>79.45</ele>
        <time>2014-01-12T13:50:24Z</time>
      </trkpt>
      <trkpt lat="44.88619" lon="0.53918">
        <ele>80.89</ele>
        <time>2014-01-12T13:50:34Z</time>
      </trkpt>
      <trkpt lat="44.88636" lon="0.53906">
        <ele>82.81</ele>
        <time>2014-01-12T13:50:51Z</time>
      </trkpt>
      <trkpt lat="44.88651" lon="0.539">
        <ele>86.18</ele>
        <time>2014-01-12T13:51:06Z</time>
      </trkpt>
      <trkpt lat="44.88663" lon="0.53899">
        <ele>86.66</ele>
        <time>2014-01-12T13:51:17Z</time>
      </trkpt>
      <trkpt lat="44.88667" lon="0.53899">
        <ele>87.14</ele>
        <time>2014-01-12T13:51:21Z</time>
      </trkpt>
      <trkpt lat="44.88681" lon="0.53886">
        <ele>88.1</ele>
        <time>2014-01-12T13:51:36Z</time>
      </trkpt>
      <trkpt lat="44.88693" lon="0.53872">
        <ele>90.02</ele>
        <time>2014-01-12T13:51:50Z</time>
      </trkpt>
      <trkpt lat="44.88705" lon="0.53865">
        <ele>89.06</ele>
        <time>2014-01-12T13:52:02Z</time>
      </trkpt>
      <trkpt lat="44.88718" lon="0.53855">
        <ele>90.98</ele>
        <time>2014-01-12T13:52:17Z</time>
      </trkpt>
      <trkpt lat="44.88726" lon="0.53847">
        <ele>91.94</ele>
        <time>2014-01-12T13:52:30Z</time>
      </trkpt>
      <trkpt lat="44.88732" lon="0.53845">
        <ele>91.46</ele>
        <time>2014-01-12T13:52:38Z</time>
      </trkpt>
      <trkpt lat="44.88746" lon="0.53834">
        <ele>91.94</ele>
        <time>2014-01-12T13:52:52Z</time>
      </trkpt>
      <trkpt lat="44.88751" lon="0.53833">
        <ele>93.39</ele>
        <time>2014-01-12T13:52:58Z</time>
      </trkpt>
      <trkpt lat="44.88766" lon="0.53824">
        <ele>94.83</ele>
        <time>2014-01-12T13:53:13Z</time>
      </trkpt>
      <trkpt lat="44.8878" lon="0.53815">
        <ele>96.75</ele>
        <time>2014-01-12T13:53:27Z</time>
      </trkpt>
      <trkpt lat="44.88799" lon="0.53807">
        <ele>97.71</ele>
        <time>2014-01-12T13:53:42Z</time>
      </trkpt>
      <trkpt lat="44.88816" lon="0.53799">
        <ele>99.15</ele>
        <time>2014-01-12T13:53:58Z</time>
      </trkpt>
      <trkpt lat="44.88826" lon="0.53797">
        <ele>101.08</ele>
        <time>2014-01-12T13:54:09Z</time>
      </trkpt>
      <trkpt lat="44.88837" lon="0.53795">
        <ele>102.52</ele>
        <time>2014-01-12T13:54:19Z</time>
      </trkpt>
      <trkpt lat="44.88851" lon="0.538">
        <ele>105.88</ele>
        <time>2014-01-12T13:54:35Z</time>
      </trkpt>
      <trkpt lat="44.88866" lon="0.53806">
        <ele>106.36</ele>
        <time>2014-01-12T13:54:56Z</time>
      </trkpt>
      <trkpt lat="44.88866" lon="0.53805">
        <ele>105.4</ele>
        <time>2014-01-12T13:55:08Z</time>
      </trkpt>
      <trkpt lat="44.88867" lon="0.5381">
        <ele>105.88</ele>
        <time>2014-01-12T13:55:19Z</time>
      </trkpt>
      <trkpt lat="44.88868" lon="0.53811">
        <ele>105.88</ele>
        <time>2014-01-12T13:55:35Z</time>
      </trkpt>
      <trkpt lat="44.88869" lon="0.53816">
        <ele>106.36</ele>
        <time>2014-01-12T13:55:41Z</time>
      </trkpt>
      <trkpt lat="44.88875" lon="0.53831">
        <ele>107.32</ele>
        <time>2014-01-12T13:55:54Z</time>
      </trkpt>
      <trkpt lat="44.88877" lon="0.53835">
        <ele>107.81</ele>
        <time>2014-01-12T13:55:59Z</time>
      </trkpt>
      <trkpt lat="44.88879" lon="0.53853">
        <ele>108.29</ele>
        <time>2014-01-12T13:56:12Z</time>
      </trkpt>
      <trkpt lat="44.88883" lon="0.53868">
        <ele>108.77</ele>
        <time>2014-01-12T13:56:25Z</time>
      </trkpt>
      <trkpt lat="44.88882" lon="0.53867">
        <ele>108.77</ele>
        <time>2014-01-12T13:56:48Z</time>
      </trkpt>
      <trkpt lat="44.88887" lon="0.53876">
        <ele>108.77</ele>
        <time>2014-01-12T13:56:56Z</time>
      </trkpt>
      <trkpt lat="44.88895" lon="0.53894">
        <ele>108.29</ele>
        <time>2014-01-12T13:57:10Z</time>
      </trkpt>
      <trkpt lat="44.88904" lon="0.5391">
        <ele>107.32</ele>
        <time>2014-01-12T13:57:23Z</time>
      </trkpt>
      <trkpt lat="44.88912" lon="0.53917">
        <ele>107.81</ele>
        <time>2014-01-12T13:57:37Z</time>
      </trkpt>
      <trkpt lat="44.88913" lon="0.53918">
        <ele>108.77</ele>
        <time>2014-01-12T13:58:03Z</time>
      </trkpt>
      <trkpt lat="44.88914" lon="0.53922">
        <ele>109.25</ele>
        <time>2014-01-12T13:58:10Z</time>
      </trkpt>
      <trkpt lat="44.88915" lon="0.5393">
        <ele>107.81</ele>
        <time>2014-01-12T13:58:28Z</time>
      </trkpt>
      <trkpt lat="44.88928" lon="0.53949">
        <ele>107.81</ele>
        <time>2014-01-12T13:58:40Z</time>
      </trkpt>
      <trkpt lat="44.88931" lon="0.53953">
        <ele>107.81</ele>
        <time>2014-01-12T13:58:45Z</time>
      </trkpt>
      <trkpt lat="44.88941" lon="0.53973">
        <ele>109.25</ele>
        <time>2014-01-12T13:58:58Z</time>
      </trkpt>
      <trkpt lat="44.88949" lon="0.53987">
        <ele>108.29</ele>
        <time>2014-01-12T13:59:12Z</time>
      </trkpt>
      <trkpt lat="44.88961" lon="0.54001">
        <ele>109.73</ele>
        <time>2014-01-12T13:59:24Z</time>
      </trkpt>
      <trkpt lat="44.88972" lon="0.54011">
        <ele>111.17</ele>
        <time>2014-01-12T13:59:39Z</time>
      </trkpt>
      <trkpt lat="44.88973" lon="0.54012">
        <ele>109.73</ele>
        <time>2014-01-12T13:59:40Z</time>
      </trkpt>
      <trkpt lat="44.88991" lon="0.54022">
        <ele>111.17</ele>
        <time>2014-01-12T13:59:54Z</time>
      </trkpt>
      <trkpt lat="44.89004" lon="0.54025">
        <ele>110.69</ele>
        <time>2014-01-12T14:00:09Z</time>
      </trkpt>
      <trkpt lat="44.89008" lon="0.54026">
        <ele>110.69</ele>
        <time>2014-01-12T14:00:19Z</time>
      </trkpt>
      <trkpt lat="44.89012" lon="0.54031">
        <ele>111.65</ele>
        <time>2014-01-12T14:00:27Z</time>
      </trkpt>
      <trkpt lat="44.89021" lon="0.54048">
        <ele>109.73</ele>
        <time>2014-01-12T14:00:41Z</time>
      </trkpt>
      <trkpt lat="44.89027" lon="0.54061">
        <ele>108.29</ele>
        <time>2014-01-12T14:00:53Z</time>
      </trkpt>
      <trkpt lat="44.8903" lon="0.54063">
        <ele>108.77</ele>
        <time>2014-01-12T14:00:56Z</time>
      </trkpt>
      <trkpt lat="44.89037" lon="0.54067">
        <ele>106.84</ele>
        <time>2014-01-12T14:01:03Z</time>
      </trkpt>
      <trkpt lat="44.89054" lon="0.54086">
        <ele>105.88</ele>
        <time>2014-01-12T14:01:18Z</time>
      </trkpt>
      <trkpt lat="44.89055" lon="0.54087">
        <ele>106.36</ele>
        <time>2014-01-12T14:01:19Z</time>
      </trkpt>
      <trkpt lat="44.89061" lon="0.54093">
        <ele>106.36</ele>
        <time>2014-01-12T14:01:26Z</time>
      </trkpt>
      <trkpt lat="44.8908" lon="0.54101">
        <ele>106.36</ele>
        <time>2014-01-12T14:01:40Z</time>
      </trkpt>
      <trkpt lat="44.89087" lon="0.54108">
        <ele>106.84</ele>
        <time>2014-01-12T14:01:48Z</time>
      </trkpt>
      <trkpt lat="44.89095" lon="0.54126">
        <ele>107.32</ele>
        <time>2014-01-12T14:02:01Z</time>
      </trkpt>
      <trkpt lat="44.89102" lon="0.54145">
        <ele>108.29</ele>
        <time>2014-01-12T14:02:16Z</time>
      </trkpt>
      <trkpt lat="44.89105" lon="0.54154">
        <ele>108.77</ele>
        <time>2014-01-12T14:02:24Z</time>
      </trkpt>
      <trkpt lat="44.891" lon="0.54171">
        <ele>109.73</ele>
        <time>2014-01-12T14:02:36Z</time>
      </trkpt>
      <trkpt lat="44.8909" lon="0.54185">
        <ele>111.17</ele>
        <time>2014-01-12T14:02:50Z</time>
      </trkpt>
      <trkpt lat="44.89092" lon="0.54193">
        <ele>111.17</ele>
        <time>2014-01-12T14:02:57Z</time>
      </trkpt>
      <trkpt lat="44.89107" lon="0.54192">
        <ele>113.09</ele>
        <time>2014-01-12T14:03:10Z</time>
      </trkpt>
      <trkpt lat="44.89123" lon="0.54192">
        <ele>113.57</ele>
        <time>2014-01-12T14:03:23Z</time>
      </trkpt>
      <trkpt lat="44.89126" lon="0.54193">
        <ele>114.05</ele>
        <time>2014-01-12T14:03:25Z</time>
      </trkpt>
      <trkpt lat="44.89132" lon="0.54196">
        <ele>114.05</ele>
        <time>2014-01-12T14:03:30Z</time>
      </trkpt>
      <trkpt lat="44.89144" lon="0.54202">
        <ele>115.01</ele>
        <time>2014-01-12T14:03:43Z</time>
      </trkpt>
      <trkpt lat="44.89156" lon="0.54207">
        <ele>117.42</ele>
        <time>2014-01-12T14:03:58Z</time>
      </trkpt>
      <trkpt lat="44.89162" lon="0.54213">
        <ele>118.86</ele>
        <time>2014-01-12T14:04:05Z</time>
      </trkpt>
      <trkpt lat="44.89179" lon="0.54228">
        <ele>119.34</ele>
        <time>2014-01-12T14:04:22Z</time>
      </trkpt>
      <trkpt lat="44.89181" lon="0.5423">
        <ele>120.3</ele>
        <time>2014-01-12T14:04:24Z</time>
      </trkpt>
      <trkpt lat="44.89193" lon="0.54243">
        <ele>120.78</ele>
        <time>2014-01-12T14:04:43Z</time>
      </trkpt>
      <trkpt lat="44.89197" lon="0.54246">
        <ele>120.3</ele>
        <time>2014-01-12T14:04:48Z</time>
      </trkpt>
      <trkpt lat="44.89204" lon="0.5425">
        <ele>121.26</ele>
        <time>2014-01-12T14:05:16Z</time>
      </trkpt>
      <trkpt lat="44.89214" lon="0.54236">
        <ele>121.26</ele>
        <time>2014-01-12T14:05:29Z</time>
      </trkpt>
      <trkpt lat="44.89232" lon="0.54218">
        <ele>121.26</ele>
        <time>2014-01-12T14:05:44Z</time>
      </trkpt>
      <trkpt lat="44.89243" lon="0.54204">
        <ele>121.74</ele>
        <time>2014-01-12T14:05:58Z</time>
      </trkpt>
      <trkpt lat="44.89244" lon="0.54202">
        <ele>122.22</ele>
        <time>2014-01-12T14:05:59Z</time>
      </trkpt>
      <trkpt lat="44.89258" lon="0.5418">
        <ele>122.22</ele>
        <time>2014-01-12T14:06:17Z</time>
      </trkpt>
      <trkpt lat="44.89268" lon="0.54165">
        <ele>122.22</ele>
        <time>2014-01-12T14:06:29Z</time>
      </trkpt>
      <trkpt lat="44.89275" lon="0.54155">
        <ele>123.19</ele>
        <time>2014-01-12T14:06:41Z</time>
      </trkpt>
      <trkpt lat="44.89285" lon="0.54146">
        <ele>123.67</ele>
        <time>2014-01-12T14:06:52Z</time>
      </trkpt>
      <trkpt lat="44.89302" lon="0.54134">
        <ele>125.11</ele>
        <time>2014-01-12T14:07:06Z</time>
      </trkpt>
      <trkpt lat="44.89315" lon="0.54129">
        <ele>126.07</ele>
        <time>2014-01-12T14:07:19Z</time>
      </trkpt>
      <trkpt lat="44.89322" lon="0.5412">
        <ele>126.07</ele>
        <time>2014-01-12T14:07:26Z</time>
      </trkpt>
      <trkpt lat="44.89326" lon="0.54114">
        <ele>126.55</ele>
        <time>2014-01-12T14:07:31Z</time>
      </trkpt>
      <trkpt lat="44.89328" lon="0.54107">
        <ele>125.59</ele>
        <time>2014-01-12T14:07:37Z</time>
      </trkpt>
      <trkpt lat="44.89344" lon="0.54097">
        <ele>126.55</ele>
        <time>2014-01-12T14:07:52Z</time>
      </trkpt>
      <trkpt lat="44.89361" lon="0.54083">
        <ele>126.07</ele>
        <time>2014-01-12T14:08:07Z</time>
      </trkpt>
      <trkpt lat="44.89375" lon="0.54074">
        <ele>125.11</ele>
        <time>2014-01-12T14:08:20Z</time>
      </trkpt>
      <trkpt lat="44.89389" lon="0.54064">
        <ele>124.15</ele>
        <time>2014-01-12T14:08:34Z</time>
      </trkpt>
      <trkpt lat="44.89406" lon="0.54073">
        <ele>123.19</ele>
        <time>2014-01-12T14:08:50Z</time>
      </trkpt>
      <trkpt lat="44.89412" lon="0.5408">
        <ele>122.71</ele>
        <time>2014-01-12T14:08:56Z</time>
      </trkpt>
      <trkpt lat="44.89427" lon="0.54099">
        <ele>121.74</ele>
        <time>2014-01-12T14:09:13Z</time>
      </trkpt>
      <trkpt lat="44.89438" lon="0.54113">
        <ele>121.26</ele>
        <time>2014-01-12T14:09:25Z</time>
      </trkpt>
      <trkpt lat="44.89453" lon="0.54131">
        <ele>120.78</ele>
        <time>2014-01-12T14:09:42Z</time>
      </trkpt>
      <trkpt lat="44.89467" lon="0.54148">
        <ele>120.3</ele>
        <time>2014-01-12T14:09:57Z</time>
      </trkpt>
      <trkpt lat="44.89473" lon="0.54165">
        <ele>120.3</ele>
        <time>2014-01-12T14:10:10Z</time>
      </trkpt>
      <trkpt lat="44.8948" lon="0.54181">
        <ele>118.38</ele>
        <time>2014-01-12T14:10:22Z</time>
      </trkpt>
      <trkpt lat="44.89488" lon="0.54174">
        <ele>118.86</ele>
        <time>2014-01-12T14:10:33Z</time>
      </trkpt>
      <trkpt lat="44.89487" lon="0.54174">
        <ele>118.86</ele>
        <time>2014-01-12T14:11:00Z</time>
      </trkpt>
      <trkpt lat="44.89497" lon="0.54196">
        <ele>118.38</ele>
        <time>2014-01-12T14:11:14Z</time>
      </trkpt>
      <trkpt lat="44.89502" lon="0.54207">
        <ele>118.38</ele>
        <time>2014-01-12T14:11:21Z</time>
      </trkpt>
      <trkpt lat="44.89504" lon="0.54213">
        <ele>117.9</ele>
        <time>2014-01-12T14:11:24Z</time>
      </trkpt>
      <trkpt lat="44.89511" lon="0.54227">
        <ele>118.38</ele>
        <time>2014-01-12T14:11:38Z</time>
      </trkpt>
      <trkpt lat="44.89516" lon="0.54222">
        <ele>118.38</ele>
        <time>2014-01-12T14:11:46Z</time>
      </trkpt>
      <trkpt lat="44.89529" lon="0.54205">
        <ele>119.34</ele>
        <time>2014-01-12T14:11:58Z</time>
      </trkpt>
      <trkpt lat="44.89547" lon="0.5419">
        <ele>119.34</ele>
        <time>2014-01-12T14:12:10Z</time>
      </trkpt>
      <trkpt lat="44.89555" lon="0.54174">
        <ele>119.82</ele>
        <time>2014-01-12T14:12:23Z</time>
      </trkpt>
      <trkpt lat="44.89556" lon="0.5417">
        <ele>120.78</ele>
        <time>2014-01-12T14:12:26Z</time>
      </trkpt>
      <trkpt lat="44.89566" lon="0.54149">
        <ele>121.26</ele>
        <time>2014-01-12T14:12:41Z</time>
      </trkpt>
      <trkpt lat="44.89579" lon="0.54154">
        <ele>120.78</ele>
        <time>2014-01-12T14:12:55Z</time>
      </trkpt>
      <trkpt lat="44.8959" lon="0.54164">
        <ele>120.78</ele>
        <time>2014-01-12T14:13:10Z</time>
      </trkpt>
      <trkpt lat="44.89601" lon="0.5418">
        <ele>120.3</ele>
        <time>2014-01-12T14:13:25Z</time>
      </trkpt>
      <trkpt lat="44.89613" lon="0.542">
        <ele>120.78</ele>
        <time>2014-01-12T14:13:41Z</time>
      </trkpt>
      <trkpt lat="44.8962" lon="0.54209">
        <ele>121.74</ele>
        <time>2014-01-12T14:13:49Z</time>
      </trkpt>
      <trkpt lat="44.89624" lon="0.54214">
        <ele>122.71</ele>
        <time>2014-01-12T14:13:54Z</time>
      </trkpt>
      <trkpt lat="44.8963" lon="0.5421">
        <ele>122.22</ele>
        <time>2014-01-12T14:14:00Z</time>
      </trkpt>
      <trkpt lat="44.89647" lon="0.54198">
        <ele>122.71</ele>
        <time>2014-01-12T14:14:14Z</time>
      </trkpt>
      <trkpt lat="44.8966" lon="0.5419">
        <ele>122.71</ele>
        <time>2014-01-12T14:14:27Z</time>
      </trkpt>
      <trkpt lat="44.89673" lon="0.54183">
        <ele>122.71</ele>
        <time>2014-01-12T14:14:38Z</time>
      </trkpt>
      <trkpt lat="44.8969" lon="0.54178">
        <ele>122.71</ele>
        <time>2014-01-12T14:14:50Z</time>
      </trkpt>
      <trkpt lat="44.89702" lon="0.54175">
        <ele>122.71</ele>
        <time>2014-01-12T14:15:01Z</time>
      </trkpt>
      <trkpt lat="44.89705" lon="0.54175">
        <ele>122.22</ele>
        <time>2014-01-12T14:15:04Z</time>
      </trkpt>
      <trkpt lat="44.89721" lon="0.54178">
        <ele>121.74</ele>
        <time>2014-01-12T14:15:17Z</time>
      </trkpt>
      <trkpt lat="44.89732" lon="0.5418">
        <ele>122.22</ele>
        <time>2014-01-12T14:15:27Z</time>
      </trkpt>
      <trkpt lat="44.89745" lon="0.54187">
        <ele>121.26</ele>
        <time>2014-01-12T14:15:40Z</time>
      </trkpt>
      <trkpt lat="44.89761" lon="0.54186">
        <ele>121.74</ele>
        <time>2014-01-12T14:15:52Z</time>
      </trkpt>
      <trkpt lat="44.89773" lon="0.54188">
        <ele>121.26</ele>
        <time>2014-01-12T14:16:03Z</time>
      </trkpt>
      <trkpt lat="44.89776" lon="0.54189">
        <ele>120.78</ele>
        <time>2014-01-12T14:16:05Z</time>
      </trkpt>
      <trkpt lat="44.89794" lon="0.5419">
        <ele>121.26</ele>
        <time>2014-01-12T14:16:19Z</time>
      </trkpt>
      <trkpt lat="44.89813" lon="0.54188">
        <ele>120.78</ele>
        <time>2014-01-12T14:16:34Z</time>
      </trkpt>
      <trkpt lat="44.89819" lon="0.54187">
        <ele>120.78</ele>
        <time>2014-01-12T14:16:39Z</time>
      </trkpt>
      <trkpt lat="44.89836" lon="0.54177">
        <ele>120.78</ele>
        <time>2014-01-12T14:16:58Z</time>
      </trkpt>
      <trkpt lat="44.89853" lon="0.54177">
        <ele>120.78</ele>
        <time>2014-01-12T14:17:12Z</time>
      </trkpt>
      <trkpt lat="44.89864" lon="0.54175">
        <ele>120.3</ele>
        <time>2014-01-12T14:17:21Z</time>
      </trkpt>
      <trkpt lat="44.89877" lon="0.5417">
        <ele>120.3</ele>
        <time>2014-01-12T14:17:32Z</time>
      </trkpt>
      <trkpt lat="44.89897" lon="0.54174">
        <ele>118.86</ele>
        <time>2014-01-12T14:17:48Z</time>
      </trkpt>
      <trkpt lat="44.89903" lon="0.54176">
        <ele>118.86</ele>
        <time>2014-01-12T14:17:53Z</time>
      </trkpt>
      <trkpt lat="44.89911" lon="0.54175">
        <ele>118.86</ele>
        <time>2014-01-12T14:17:59Z</time>
      </trkpt>
      <trkpt lat="44.8993" lon="0.54162">
        <ele>119.34</ele>
        <time>2014-01-12T14:18:11Z</time>
      </trkpt>
      <trkpt lat="44.89932" lon="0.54161">
        <ele>117.9</ele>
        <time>2014-01-12T14:18:13Z</time>
      </trkpt>
      <trkpt lat="44.89947" lon="0.54152">
        <ele>118.38</ele>
        <time>2014-01-12T14:18:28Z</time>
      </trkpt>
      <trkpt lat="44.89963" lon="0.5414">
        <ele>118.38</ele>
        <time>2014-01-12T14:18:43Z</time>
      </trkpt>
      <trkpt lat="44.89973" lon="0.54132">
        <ele>118.38</ele>
        <time>2014-01-12T14:18:52Z</time>
      </trkpt>
      <trkpt lat="44.89987" lon="0.54121">
        <ele>117.9</ele>
        <time>2014-01-12T14:19:04Z</time>
      </trkpt>
      <trkpt lat="44.9" lon="0.54111">
        <ele>117.9</ele>
        <time>2014-01-12T14:19:19Z</time>
      </trkpt>
      <trkpt lat="44.90015" lon="0.54099">
        <ele>117.9</ele>
        <time>2014-01-12T14:19:34Z</time>
      </trkpt>
      <trkpt lat="44.90028" lon="0.54086">
        <ele>118.38</ele>
        <time>2014-01-12T14:19:47Z</time>
      </trkpt>
      <trkpt lat="44.9004" lon="0.54072">
        <ele>118.38</ele>
        <time>2014-01-12T14:19:59Z</time>
      </trkpt>
      <trkpt lat="44.90049" lon="0.54064">
        <ele>118.86</ele>
        <time>2014-01-12T14:20:08Z</time>
      </trkpt>
      <trkpt lat="44.90053" lon="0.54061">
        <ele>119.82</ele>
        <time>2014-01-12T14:20:13Z</time>
      </trkpt>
      <trkpt lat="44.90064" lon="0.54053">
        <ele>119.82</ele>
        <time>2014-01-12T14:20:25Z</time>
      </trkpt>
      <trkpt lat="44.90071" lon="0.54047">
        <ele>120.3</ele>
        <time>2014-01-12T14:20:41Z</time>
      </trkpt>
      <trkpt lat="44.90088" lon="0.54038">
        <ele>120.78</ele>
        <time>2014-01-12T14:20:58Z</time>
      </trkpt>
      <trkpt lat="44.90102" lon="0.54021">
        <ele>120.78</ele>
        <time>2014-01-12T14:21:13Z</time>
      </trkpt>
      <trkpt lat="44.90103" lon="0.54017">
        <ele>120.3</ele>
        <time>2014-01-12T14:21:15Z</time>
      </trkpt>
      <trkpt lat="44.90106" lon="0.54003">
        <ele>120.78</ele>
        <time>2014-01-12T14:21:23Z</time>
      </trkpt>
      <trkpt lat="44.90117" lon="0.53984">
        <ele>119.34</ele>
        <time>2014-01-12T14:21:34Z</time>
      </trkpt>
      <trkpt lat="44.90124" lon="0.5397">
        <ele>118.38</ele>
        <time>2014-01-12T14:21:46Z</time>
      </trkpt>
      <trkpt lat="44.90134" lon="0.53954">
        <ele>118.38</ele>
        <time>2014-01-12T14:22:01Z</time>
      </trkpt>
      <trkpt lat="44.90136" lon="0.53947">
        <ele>117.42</ele>
        <time>2014-01-12T14:22:06Z</time>
      </trkpt>
      <trkpt lat="44.90145" lon="0.53937">
        <ele>116.94</ele>
        <time>2014-01-12T14:22:16Z</time>
      </trkpt>
      <trkpt lat="44.90161" lon="0.53924">
        <ele>116.46</ele>
        <time>2014-01-12T14:22:30Z</time>
      </trkpt>
      <trkpt lat="44.90163" lon="0.53921">
        <ele>116.46</ele>
        <time>2014-01-12T14:22:32Z</time>
      </trkpt>
      <trkpt lat="44.90165" lon="0.53917">
        <ele>115.98</ele>
        <time>2014-01-12T14:22:34Z</time>
      </trkpt>
      <trkpt lat="44.90177" lon="0.53899">
        <ele>115.98</ele>
        <time>2014-01-12T14:22:49Z</time>
      </trkpt>
      <trkpt lat="44.90188" lon="0.53885">
        <ele>116.46</ele>
        <time>2014-01-12T14:23:01Z</time>
      </trkpt>
      <trkpt lat="44.90194" lon="0.53877">
        <ele>116.94</ele>
        <time>2014-01-12T14:23:08Z</time>
      </trkpt>
      <trkpt lat="44.90206" lon="0.53859">
        <ele>116.94</ele>
        <time>2014-01-12T14:23:22Z</time>
      </trkpt>
      <trkpt lat="44.9022" lon="0.53837">
        <ele>118.38</ele>
        <time>2014-01-12T14:23:38Z</time>
      </trkpt>
      <trkpt lat="44.90229" lon="0.53818">
        <ele>117.9</ele>
        <time>2014-01-12T14:23:52Z</time>
      </trkpt>
      <trkpt lat="44.90234" lon="0.53805">
        <ele>118.86</ele>
        <time>2014-01-12T14:24:00Z</time>
      </trkpt>
      <trkpt lat="44.90237" lon="0.53784">
        <ele>119.34</ele>
        <time>2014-01-12T14:24:12Z</time>
      </trkpt>
      <trkpt lat="44.9024" lon="0.53762">
        <ele>120.3</ele>
        <time>2014-01-12T14:24:25Z</time>
      </trkpt>
      <trkpt lat="44.9024" lon="0.5376">
        <ele>120.78</ele>
        <time>2014-01-12T14:24:27Z</time>
      </trkpt>
      <trkpt lat="44.9024" lon="0.53748">
        <ele>121.26</ele>
        <time>2014-01-12T14:24:36Z</time>
      </trkpt>
      <trkpt lat="44.90239" lon="0.53739">
        <ele>121.74</ele>
        <time>2014-01-12T14:24:41Z</time>
      </trkpt>
      <trkpt lat="44.90241" lon="0.5372">
        <ele>121.74</ele>
        <time>2014-01-12T14:24:53Z</time>
      </trkpt>
      <trkpt lat="44.9024" lon="0.53699">
        <ele>123.19</ele>
        <time>2014-01-12T14:25:05Z</time>
      </trkpt>
      <trkpt lat="44.9024" lon="0.53684">
        <ele>123.67</ele>
        <time>2014-01-12T14:25:12Z</time>
      </trkpt>
      <trkpt lat="44.90244" lon="0.53664">
        <ele>122.71</ele>
        <time>2014-01-12T14:25:26Z</time>
      </trkpt>
      <trkpt lat="44.90243" lon="0.5365">
        <ele>123.19</ele>
        <time>2014-01-12T14:25:34Z</time>
      </trkpt>
      <trkpt lat="44.90246" lon="0.53643">
        <ele>123.19</ele>
        <time>2014-01-12T14:25:51Z</time>
      </trkpt>
      <trkpt lat="44.90249" lon="0.53641">
        <ele>123.19</ele>
        <time>2014-01-12T14:26:13Z</time>
      </trkpt>
      <trkpt lat="44.90249" lon="0.53627">
        <ele>124.15</ele>
        <time>2014-01-12T14:26:26Z</time>
      </trkpt>
      <trkpt lat="44.90251" lon="0.53611">
        <ele>124.15</ele>
        <time>2014-01-12T14:26:37Z</time>
      </trkpt>
      <trkpt lat="44.90257" lon="0.53594">
        <ele>124.15</ele>
        <time>2014-01-12T14:26:49Z</time>
      </trkpt>
      <trkpt lat="44.9026" lon="0.53579">
        <ele>124.15</ele>
        <time>2014-01-12T14:27:04Z</time>
      </trkpt>
      <trkpt lat="44.9026" lon="0.53569">
        <ele>123.19</ele>
        <time>2014-01-12T14:27:19Z</time>
      </trkpt>
      <trkpt lat="44.9026" lon="0.53552">
        <ele>122.71</ele>
        <time>2014-01-12T14:27:35Z</time>
      </trkpt>
      <trkpt lat="44.90265" lon="0.53541">
        <ele>123.19</ele>
        <time>2014-01-12T14:27:50Z</time>
      </trkpt>
      <trkpt lat="44.9027" lon="0.53545">
        <ele>123.67</ele>
        <time>2014-01-12T14:28:03Z</time>
      </trkpt>
      <trkpt lat="44.90269" lon="0.53559">
        <ele>124.15</ele>
        <time>2014-01-12T14:28:11Z</time>
      </trkpt>
      <trkpt lat="44.90269" lon="0.53572">
        <ele>125.11</ele>
        <time>2014-01-12T14:28:20Z</time>
      </trkpt>
      <trkpt lat="44.90272" lon="0.53592">
        <ele>124.63</ele>
        <time>2014-01-12T14:28:32Z</time>
      </trkpt>
      <trkpt lat="44.90275" lon="0.53602">
        <ele>124.63</ele>
        <time>2014-01-12T14:28:38Z</time>
      </trkpt>
      <trkpt lat="44.90274" lon="0.53627">
        <ele>123.67</ele>
        <time>2014-01-12T14:28:52Z</time>
      </trkpt>
      <trkpt lat="44.90275" lon="0.53637">
        <ele>123.67</ele>
        <time>2014-01-12T14:28:58Z</time>
      </trkpt>
      <trkpt lat="44.90277" lon="0.53646">
        <ele>124.63</ele>
        <time>2014-01-12T14:29:07Z</time>
      </trkpt>
      <trkpt lat="44.90278" lon="0.53653">
        <ele>123.67</ele>
        <time>2014-01-12T14:29:12Z</time>
      </trkpt>
      <trkpt lat="44.9028" lon="0.53656">
        <ele>123.19</ele>
        <time>2014-01-12T14:29:15Z</time>
      </trkpt>
      <trkpt lat="44.9029" lon="0.53665">
        <ele>122.22</ele>
        <time>2014-01-12T14:29:28Z</time>
      </trkpt>
      <trkpt lat="44.90296" lon="0.53671">
        <ele>121.26</ele>
        <time>2014-01-12T14:29:56Z</time>
      </trkpt>
      <trkpt lat="44.90299" lon="0.53666">
        <ele>121.74</ele>
        <time>2014-01-12T14:30:20Z</time>
      </trkpt>
      <trkpt lat="44.90295" lon="0.53665">
        <ele>121.26</ele>
        <time>2014-01-12T14:30:31Z</time>
      </trkpt>
      <trkpt lat="44.90294" lon="0.53668">
        <ele>121.74</ele>
        <time>2014-01-12T14:30:47Z</time>
      </trkpt>
      <trkpt lat="44.90296" lon="0.53668">
        <ele>120.3</ele>
        <time>2014-01-12T14:31:07Z</time>
      </trkpt>
      <trkpt lat="44.90307" lon="0.53678">
        <ele>120.3</ele>
        <time>2014-01-12T14:31:23Z</time>
      </trkpt>
      <trkpt lat="44.90321" lon="0.53695">
        <ele>116.94</ele>
        <time>2014-01-12T14:31:39Z</time>
      </trkpt>
      <trkpt lat="44.90325" lon="0.53699">
        <ele>117.9</ele>
        <time>2014-01-12T14:31:44Z</time>
      </trkpt>
      <trkpt lat="44.90335" lon="0.53713">
        <ele>116.94</ele>
        <time>2014-01-12T14:31:58Z</time>
      </trkpt>
      <trkpt lat="44.90337" lon="0.53717">
        <ele>117.42</ele>
        <time>2014-01-12T14:32:02Z</time>
      </trkpt>
      <trkpt lat="44.90346" lon="0.53725">
        <ele>114.53</ele>
        <time>2014-01-12T14:32:11Z</time>
      </trkpt>
      <trkpt lat="44.90356" lon="0.53732">
        <ele>115.5</ele>
        <time>2014-01-12T14:32:20Z</time>
      </trkpt>
      <trkpt lat="44.90369" lon="0.53739">
        <ele>114.53</ele>
        <time>2014-01-12T14:32:34Z</time>
      </trkpt>
      <trkpt lat="44.90374" lon="0.53743">
        <ele>114.53</ele>
        <time>2014-01-12T14:32:40Z</time>
      </trkpt>
      <trkpt lat="44.90378" lon="0.53745">
        <ele>114.53</ele>
        <time>2014-01-12T14:32:44Z</time>
      </trkpt>
      <trkpt lat="44.90387" lon="0.53748">
        <ele>114.05</ele>
        <time>2014-01-12T14:32:51Z</time>
      </trkpt>
      <trkpt lat="44.90395" lon="0.53753">
        <ele>113.57</ele>
        <time>2014-01-12T14:33:00Z</time>
      </trkpt>
      <trkpt lat="44.90408" lon="0.53762">
        <ele>111.17</ele>
        <time>2014-01-12T14:33:13Z</time>
      </trkpt>
      <trkpt lat="44.9042" lon="0.53768">
        <ele>109.73</ele>
        <time>2014-01-12T14:33:28Z</time>
      </trkpt>
      <trkpt lat="44.90432" lon="0.53778">
        <ele>106.84</ele>
        <time>2014-01-12T14:33:44Z</time>
      </trkpt>
      <trkpt lat="44.90444" lon="0.53782">
        <ele>105.4</ele>
        <time>2014-01-12T14:33:58Z</time>
      </trkpt>
      <trkpt lat="44.90458" lon="0.53784">
        <ele>104.44</ele>
        <time>2014-01-12T14:34:14Z</time>
      </trkpt>
      <trkpt lat="44.90468" lon="0.53789">
        <ele>102.04</ele>
        <time>2014-01-12T14:34:28Z</time>
      </trkpt>
      <trkpt lat="44.90478" lon="0.53797">
        <ele>100.6</ele>
        <time>2014-01-12T14:34:41Z</time>
      </trkpt>
      <trkpt lat="44.90489" lon="0.53799">
        <ele>98.67</ele>
        <time>2014-01-12T14:34:55Z</time>
      </trkpt>
      <trkpt lat="44.90501" lon="0.53806">
        <ele>97.23</ele>
        <time>2014-01-12T14:35:12Z</time>
      </trkpt>
      <trkpt lat="44.90517" lon="0.53814">
        <ele>94.35</ele>
        <time>2014-01-12T14:35:31Z</time>
      </trkpt>
      <trkpt lat="44.90529" lon="0.53819">
        <ele>92.9</ele>
        <time>2014-01-12T14:35:45Z</time>
      </trkpt>
      <trkpt lat="44.90536" lon="0.53819">
        <ele>91.46</ele>
        <time>2014-01-12T14:35:54Z</time>
      </trkpt>
      <trkpt lat="44.90551" lon="0.53823">
        <ele>90.98</ele>
        <time>2014-01-12T14:36:09Z</time>
      </trkpt>
      <trkpt lat="44.90559" lon="0.53825">
        <ele>89.54</ele>
        <time>2014-01-12T14:36:15Z</time>
      </trkpt>
      <trkpt lat="44.9057" lon="0.53832">
        <ele>89.06</ele>
        <time>2014-01-12T14:36:31Z</time>
      </trkpt>
      <trkpt lat="44.90583" lon="0.53839">
        <ele>87.14</ele>
        <time>2014-01-12T14:36:44Z</time>
      </trkpt>
      <trkpt lat="44.90595" lon="0.53844">
        <ele>86.66</ele>
        <time>2014-01-12T14:36:57Z</time>
      </trkpt>
      <trkpt lat="44.90605" lon="0.53846">
        <ele>85.21</ele>
        <time>2014-01-12T14:37:06Z</time>
      </trkpt>
      <trkpt lat="44.90622" lon="0.53848">
        <ele>83.77</ele>
        <time>2014-01-12T14:37:24Z</time>
      </trkpt>
      <trkpt lat="44.90633" lon="0.53853">
        <ele>83.29</ele>
        <time>2014-01-12T14:37:39Z</time>
      </trkpt>
      <trkpt lat="44.90652" lon="0.5386">
        <ele>82.33</ele>
        <time>2014-01-12T14:37:52Z</time>
      </trkpt>
      <trkpt lat="44.90668" lon="0.53863">
        <ele>81.37</ele>
        <time>2014-01-12T14:38:08Z</time>
      </trkpt>
      <trkpt lat="44.90684" lon="0.53872">
        <ele>80.89</ele>
        <time>2014-01-12T14:38:25Z</time>
      </trkpt>
      <trkpt lat="44.90703" lon="0.5389">
        <ele>79.45</ele>
        <time>2014-01-12T14:38:44Z</time>
      </trkpt>
      <trkpt lat="44.90721" lon="0.539">
        <ele>78.97</ele>
        <time>2014-01-12T14:39:01Z</time>
      </trkpt>
      <trkpt lat="44.90723" lon="0.53899">
        <ele>78.48</ele>
        <time>2014-01-12T14:39:03Z</time>
      </trkpt>
      <trkpt lat="44.9073" lon="0.53893">
        <ele>78.48</ele>
        <time>2014-01-12T14:39:09Z</time>
      </trkpt>
      <trkpt lat="44.90733" lon="0.5388">
        <ele>78.97</ele>
        <time>2014-01-12T14:39:16Z</time>
      </trkpt>
      <trkpt lat="44.90721" lon="0.5386">
        <ele>80.41</ele>
        <time>2014-01-12T14:39:30Z</time>
      </trkpt>
      <trkpt lat="44.90711" lon="0.53844">
        <ele>81.37</ele>
        <time>2014-01-12T14:39:44Z</time>
      </trkpt>
      <trkpt lat="44.90709" lon="0.53838">
        <ele>81.85</ele>
        <time>2014-01-12T14:39:49Z</time>
      </trkpt>
      <trkpt lat="44.9071" lon="0.53832">
        <ele>83.77</ele>
        <time>2014-01-12T14:39:54Z</time>
      </trkpt>
      <trkpt lat="44.90711" lon="0.53827">
        <ele>83.29</ele>
        <time>2014-01-12T14:39:58Z</time>
      </trkpt>
      <trkpt lat="44.90712" lon="0.53822">
        <ele>83.29</ele>
        <time>2014-01-12T14:40:02Z</time>
      </trkpt>
      <trkpt lat="44.90714" lon="0.53812">
        <ele>83.77</ele>
        <time>2014-01-12T14:40:13Z</time>
      </trkpt>
      <trkpt lat="44.90715" lon="0.53798">
        <ele>85.21</ele>
        <time>2014-01-12T14:40:26Z</time>
      </trkpt>
      <trkpt lat="44.90717" lon="0.53793">
        <ele>85.21</ele>
        <time>2014-01-12T14:40:30Z</time>
      </trkpt>
      <trkpt lat="44.9072" lon="0.5379">
        <ele>84.73</ele>
        <time>2014-01-12T14:40:35Z</time>
      </trkpt>
      <trkpt lat="44.90723" lon="0.53784">
        <ele>86.18</ele>
        <time>2014-01-12T14:40:47Z</time>
      </trkpt>
      <trkpt lat="44.90723" lon="0.53783">
        <ele>86.18</ele>
        <time>2014-01-12T14:40:48Z</time>
      </trkpt>
      <trkpt lat="44.90728" lon="0.53765">
        <ele>86.18</ele>
        <time>2014-01-12T14:41:01Z</time>
      </trkpt>
      <trkpt lat="44.90728" lon="0.53763">
        <ele>85.69</ele>
        <time>2014-01-12T14:41:02Z</time>
      </trkpt>
      <trkpt lat="44.90728" lon="0.5376">
        <ele>85.69</ele>
        <time>2014-01-12T14:41:04Z</time>
      </trkpt>
      <trkpt lat="44.90731" lon="0.53737">
        <ele>85.21</ele>
        <time>2014-01-12T14:41:20Z</time>
      </trkpt>
      <trkpt lat="44.9073" lon="0.53721">
        <ele>85.69</ele>
        <time>2014-01-12T14:41:37Z</time>
      </trkpt>
      <trkpt lat="44.90727" lon="0.53697">
        <ele>87.62</ele>
        <time>2014-01-12T14:41:51Z</time>
      </trkpt>
      <trkpt lat="44.90725" lon="0.53688">
        <ele>87.14</ele>
        <time>2014-01-12T14:41:56Z</time>
      </trkpt>
      <trkpt lat="44.9073" lon="0.53665">
        <ele>88.1</ele>
        <time>2014-01-12T14:42:11Z</time>
      </trkpt>
      <trkpt lat="44.90734" lon="0.53635">
        <ele>90.98</ele>
        <time>2014-01-12T14:42:31Z</time>
      </trkpt>
      <trkpt lat="44.90734" lon="0.53634">
        <ele>90.98</ele>
        <time>2014-01-12T14:42:32Z</time>
      </trkpt>
      <trkpt lat="44.90733" lon="0.53613">
        <ele>92.9</ele>
        <time>2014-01-12T14:42:49Z</time>
      </trkpt>
      <trkpt lat="44.90732" lon="0.53592">
        <ele>95.31</ele>
        <time>2014-01-12T14:43:09Z</time>
      </trkpt>
      <trkpt lat="44.90742" lon="0.53575">
        <ele>97.71</ele>
        <time>2014-01-12T14:43:27Z</time>
      </trkpt>
      <trkpt lat="44.90757" lon="0.53587">
        <ele>99.15</ele>
        <time>2014-01-12T14:43:47Z</time>
      </trkpt>
      <trkpt lat="44.90769" lon="0.53591">
        <ele>101.08</ele>
        <time>2014-01-12T14:44:04Z</time>
      </trkpt>
      <trkpt lat="44.90786" lon="0.53592">
        <ele>102.04</ele>
        <time>2014-01-12T14:44:20Z</time>
      </trkpt>
      <trkpt lat="44.908" lon="0.53595">
        <ele>102.52</ele>
        <time>2014-01-12T14:44:33Z</time>
      </trkpt>
      <trkpt lat="44.90809" lon="0.53595">
        <ele>103</ele>
        <time>2014-01-12T14:44:49Z</time>
      </trkpt>
      <trkpt lat="44.9081" lon="0.53591">
        <ele>103</ele>
        <time>2014-01-12T14:45:18Z</time>
      </trkpt>
      <trkpt lat="44.9081" lon="0.53588">
        <ele>103</ele>
        <time>2014-01-12T14:45:23Z</time>
      </trkpt>
      <trkpt lat="44.9081" lon="0.53585">
        <ele>103</ele>
        <time>2014-01-12T14:45:48Z</time>
      </trkpt>
      <trkpt lat="44.90811" lon="0.53575">
        <ele>103.96</ele>
        <time>2014-01-12T14:46:02Z</time>
      </trkpt>
      <trkpt lat="44.90812" lon="0.53559">
        <ele>103.48</ele>
        <time>2014-01-12T14:46:14Z</time>
      </trkpt>
      <trkpt lat="44.90814" lon="0.53547">
        <ele>103.96</ele>
        <time>2014-01-12T14:46:23Z</time>
      </trkpt>
      <trkpt lat="44.90814" lon="0.53546">
        <ele>104.44</ele>
        <time>2014-01-12T14:46:24Z</time>
      </trkpt>
      <trkpt lat="44.90814" lon="0.53537">
        <ele>104.92</ele>
        <time>2014-01-12T14:46:30Z</time>
      </trkpt>
      <trkpt lat="44.90815" lon="0.53531">
        <ele>105.4</ele>
        <time>2014-01-12T14:46:34Z</time>
      </trkpt>
      <trkpt lat="44.90815" lon="0.53513">
        <ele>104.92</ele>
        <time>2014-01-12T14:46:48Z</time>
      </trkpt>
      <trkpt lat="44.90816" lon="0.5349">
        <ele>106.84</ele>
        <time>2014-01-12T14:47:04Z</time>
      </trkpt>
      <trkpt lat="44.90816" lon="0.53478">
        <ele>107.81</ele>
        <time>2014-01-12T14:47:14Z</time>
      </trkpt>
      <trkpt lat="44.90824" lon="0.53466">
        <ele>108.77</ele>
        <time>2014-01-12T14:47:27Z</time>
      </trkpt>
      <trkpt lat="44.90835" lon="0.53459">
        <ele>108.29</ele>
        <time>2014-01-12T14:47:39Z</time>
      </trkpt>
      <trkpt lat="44.90847" lon="0.53454">
        <ele>108.77</ele>
        <time>2014-01-12T14:47:52Z</time>
      </trkpt>
      <trkpt lat="44.90861" lon="0.5344">
        <ele>107.81</ele>
        <time>2014-01-12T14:48:07Z</time>
      </trkpt>
      <trkpt lat="44.90872" lon="0.53421">
        <ele>109.25</ele>
        <time>2014-01-12T14:48:24Z</time>
      </trkpt>
      <trkpt lat="44.90883" lon="0.53403">
        <ele>107.32</ele>
        <time>2014-01-12T14:48:40Z</time>
      </trkpt>
      <trkpt lat="44.90892" lon="0.53389">
        <ele>106.84</ele>
        <time>2014-01-12T14:48:54Z</time>
      </trkpt>
      <trkpt lat="44.90905" lon="0.53374">
        <ele>104.92</ele>
        <time>2014-01-12T14:49:08Z</time>
      </trkpt>
      <trkpt lat="44.90913" lon="0.53375">
        <ele>103</ele>
        <time>2014-01-12T14:49:17Z</time>
      </trkpt>
      <trkpt lat="44.9093" lon="0.53371">
        <ele>101.56</ele>
        <time>2014-01-12T14:49:31Z</time>
      </trkpt>
      <trkpt lat="44.90943" lon="0.53346">
        <ele>100.11</ele>
        <time>2014-01-12T14:49:46Z</time>
      </trkpt>
      <trkpt lat="44.90947" lon="0.53333">
        <ele>100.6</ele>
        <time>2014-01-12T14:49:54Z</time>
      </trkpt>
      <trkpt lat="44.90954" lon="0.53321">
        <ele>100.11</ele>
        <time>2014-01-12T14:50:02Z</time>
      </trkpt>
      <trkpt lat="44.9096" lon="0.53307">
        <ele>100.11</ele>
        <time>2014-01-12T14:50:12Z</time>
      </trkpt>
      <trkpt lat="44.90961" lon="0.533">
        <ele>99.15</ele>
        <time>2014-01-12T14:50:16Z</time>
      </trkpt>
      <trkpt lat="44.90964" lon="0.53294">
        <ele>99.15</ele>
        <time>2014-01-12T14:50:21Z</time>
      </trkpt>
      <trkpt lat="44.90969" lon="0.53278">
        <ele>98.67</ele>
        <time>2014-01-12T14:50:32Z</time>
      </trkpt>
      <trkpt lat="44.90977" lon="0.53259">
        <ele>97.71</ele>
        <time>2014-01-12T14:50:46Z</time>
      </trkpt>
      <trkpt lat="44.90985" lon="0.53236">
        <ele>98.19</ele>
        <time>2014-01-12T14:51:02Z</time>
      </trkpt>
      <trkpt lat="44.9099" lon="0.53224">
        <ele>98.19</ele>
        <time>2014-01-12T14:51:10Z</time>
      </trkpt>
      <trkpt lat="44.90992" lon="0.53219">
        <ele>97.71</ele>
        <time>2014-01-12T14:51:14Z</time>
      </trkpt>
      <trkpt lat="44.91" lon="0.53197">
        <ele>97.23</ele>
        <time>2014-01-12T14:51:30Z</time>
      </trkpt>
      <trkpt lat="44.91003" lon="0.53187">
        <ele>96.27</ele>
        <time>2014-01-12T14:51:43Z</time>
      </trkpt>
      <trkpt lat="44.91009" lon="0.53168">
        <ele>95.31</ele>
        <time>2014-01-12T14:51:59Z</time>
      </trkpt>
      <trkpt lat="44.91014" lon="0.53153">
        <ele>93.39</ele>
        <time>2014-01-12T14:52:12Z</time>
      </trkpt>
      <trkpt lat="44.91015" lon="0.53146">
        <ele>92.9</ele>
        <time>2014-01-12T14:52:17Z</time>
      </trkpt>
      <trkpt lat="44.91021" lon="0.53131">
        <ele>91.46</ele>
        <time>2014-01-12T14:52:28Z</time>
      </trkpt>
      <trkpt lat="44.91022" lon="0.53121">
        <ele>90.02</ele>
        <time>2014-01-12T14:52:34Z</time>
      </trkpt>
      <trkpt lat="44.91021" lon="0.53111">
        <ele>90.98</ele>
        <time>2014-01-12T14:52:40Z</time>
      </trkpt>
      <trkpt lat="44.91019" lon="0.53107">
        <ele>90.5</ele>
        <time>2014-01-12T14:52:43Z</time>
      </trkpt>
      <trkpt lat="44.91017" lon="0.53104">
        <ele>90.5</ele>
        <time>2014-01-12T14:52:45Z</time>
      </trkpt>
      <trkpt lat="44.91009" lon="0.53092">
        <ele>90.02</ele>
        <time>2014-01-12T14:52:58Z</time>
      </trkpt>
      <trkpt lat="44.91003" lon="0.53077">
        <ele>90.02</ele>
        <time>2014-01-12T14:53:09Z</time>
      </trkpt>
      <trkpt lat="44.90994" lon="0.53056">
        <ele>89.54</ele>
        <time>2014-01-12T14:53:23Z</time>
      </trkpt>
      <trkpt lat="44.9099" lon="0.53041">
        <ele>90.5</ele>
        <time>2014-01-12T14:53:35Z</time>
      </trkpt>
      <trkpt lat="44.90989" lon="0.53037">
        <ele>90.02</ele>
        <time>2014-01-12T14:53:38Z</time>
      </trkpt>
      <trkpt lat="44.90984" lon="0.53015">
        <ele>89.06</ele>
        <time>2014-01-12T14:53:54Z</time>
      </trkpt>
      <trkpt lat="44.9098" lon="0.52999">
        <ele>88.58</ele>
        <time>2014-01-12T14:54:05Z</time>
      </trkpt>
      <trkpt lat="44.90977" lon="0.52982">
        <ele>88.1</ele>
        <time>2014-01-12T14:54:18Z</time>
      </trkpt>
      <trkpt lat="44.90975" lon="0.52974">
        <ele>87.14</ele>
        <time>2014-01-12T14:54:24Z</time>
      </trkpt>
      <trkpt lat="44.90979" lon="0.52959">
        <ele>86.66</ele>
        <time>2014-01-12T14:54:39Z</time>
      </trkpt>
      <trkpt lat="44.90982" lon="0.52959">
        <ele>86.18</ele>
        <time>2014-01-12T14:54:43Z</time>
      </trkpt>
      <trkpt lat="44.90995" lon="0.52969">
        <ele>86.18</ele>
        <time>2014-01-12T14:54:58Z</time>
      </trkpt>
      <trkpt lat="44.91" lon="0.52968">
        <ele>85.21</ele>
        <time>2014-01-12T14:55:04Z</time>
      </trkpt>
      <trkpt lat="44.91004" lon="0.52969">
        <ele>86.18</ele>
        <time>2014-01-12T14:55:09Z</time>
      </trkpt>
      <trkpt lat="44.9102" lon="0.5298">
        <ele>87.62</ele>
        <time>2014-01-12T14:55:25Z</time>
      </trkpt>
      <trkpt lat="44.91024" lon="0.52984">
        <ele>88.58</ele>
        <time>2014-01-12T14:55:37Z</time>
      </trkpt>
      <trkpt lat="44.91025" lon="0.52987">
        <ele>88.1</ele>
        <time>2014-01-12T14:55:40Z</time>
      </trkpt>
      <trkpt lat="44.91032" lon="0.52992">
        <ele>88.58</ele>
        <time>2014-01-12T14:55:47Z</time>
      </trkpt>
      <trkpt lat="44.91043" lon="0.52997">
        <ele>88.58</ele>
        <time>2014-01-12T14:55:57Z</time>
      </trkpt>
      <trkpt lat="44.91055" lon="0.53003">
        <ele>89.54</ele>
        <time>2014-01-12T14:56:07Z</time>
      </trkpt>
      <trkpt lat="44.91057" lon="0.53003">
        <ele>90.98</ele>
        <time>2014-01-12T14:56:09Z</time>
      </trkpt>
      <trkpt lat="44.91061" lon="0.53002">
        <ele>90.02</ele>
        <time>2014-01-12T14:56:12Z</time>
      </trkpt>
      <trkpt lat="44.9108" lon="0.52993">
        <ele>92.9</ele>
        <time>2014-01-12T14:56:27Z</time>
      </trkpt>
      <trkpt lat="44.91092" lon="0.52989">
        <ele>93.39</ele>
        <time>2014-01-12T14:56:38Z</time>
      </trkpt>
      <trkpt lat="44.91102" lon="0.52986">
        <ele>94.83</ele>
        <time>2014-01-12T14:56:49Z</time>
      </trkpt>
      <trkpt lat="44.9111" lon="0.52983">
        <ele>95.79</ele>
        <time>2014-01-12T14:56:56Z</time>
      </trkpt>
      <trkpt lat="44.91114" lon="0.52981">
        <ele>95.31</ele>
        <time>2014-01-12T14:57:02Z</time>
      </trkpt>
      <trkpt lat="44.91121" lon="0.52968">
        <ele>96.27</ele>
        <time>2014-01-12T14:57:13Z</time>
      </trkpt>
      <trkpt lat="44.91126" lon="0.5295">
        <ele>96.27</ele>
        <time>2014-01-12T14:57:24Z</time>
      </trkpt>
      <trkpt lat="44.91129" lon="0.52943">
        <ele>96.75</ele>
        <time>2014-01-12T14:57:28Z</time>
      </trkpt>
      <trkpt lat="44.91131" lon="0.52936">
        <ele>97.71</ele>
        <time>2014-01-12T14:57:32Z</time>
      </trkpt>
      <trkpt lat="44.91132" lon="0.52933">
        <ele>97.23</ele>
        <time>2014-01-12T14:57:34Z</time>
      </trkpt>
      <trkpt lat="44.91138" lon="0.52914">
        <ele>98.19</ele>
        <time>2014-01-12T14:57:47Z</time>
      </trkpt>
      <trkpt lat="44.91142" lon="0.52903">
        <ele>98.19</ele>
        <time>2014-01-12T14:57:55Z</time>
      </trkpt>
      <trkpt lat="44.9115" lon="0.52883">
        <ele>99.63</ele>
        <time>2014-01-12T14:58:10Z</time>
      </trkpt>
      <trkpt lat="44.91156" lon="0.52866">
        <ele>100.11</ele>
        <time>2014-01-12T14:58:22Z</time>
      </trkpt>
      <trkpt lat="44.91157" lon="0.52857">
        <ele>100.11</ele>
        <time>2014-01-12T14:58:28Z</time>
      </trkpt>
      <trkpt lat="44.9116" lon="0.52841">
        <ele>101.08</ele>
        <time>2014-01-12T14:58:38Z</time>
      </trkpt>
      <trkpt lat="44.9116" lon="0.52831">
        <ele>102.04</ele>
        <time>2014-01-12T14:58:51Z</time>
      </trkpt>
      <trkpt lat="44.91159" lon="0.52825">
        <ele>102.04</ele>
        <time>2014-01-12T14:59:10Z</time>
      </trkpt>
      <trkpt lat="44.91159" lon="0.52824">
        <ele>101.08</ele>
        <time>2014-01-12T14:59:11Z</time>
      </trkpt>
      <trkpt lat="44.91158" lon="0.52822">
        <ele>102.52</ele>
        <time>2014-01-12T14:59:13Z</time>
      </trkpt>
      <trkpt lat="44.91154" lon="0.52806">
        <ele>102.52</ele>
        <time>2014-01-12T14:59:26Z</time>
      </trkpt>
      <trkpt lat="44.91153" lon="0.52802">
        <ele>103</ele>
        <time>2014-01-12T14:59:30Z</time>
      </trkpt>
      <trkpt lat="44.91147" lon="0.52781">
        <ele>103.48</ele>
        <time>2014-01-12T14:59:44Z</time>
      </trkpt>
      <trkpt lat="44.91145" lon="0.5277">
        <ele>104.44</ele>
        <time>2014-01-12T14:59:51Z</time>
      </trkpt>
      <trkpt lat="44.91144" lon="0.52769">
        <ele>104.44</ele>
        <time>2014-01-12T14:59:52Z</time>
      </trkpt>
      <trkpt lat="44.91138" lon="0.52751">
        <ele>105.4</ele>
        <time>2014-01-12T15:00:04Z</time>
      </trkpt>
      <trkpt lat="44.91134" lon="0.52745">
        <ele>103.48</ele>
        <time>2014-01-12T15:00:09Z</time>
      </trkpt>
      <trkpt lat="44.91132" lon="0.52741">
        <ele>104.44</ele>
        <time>2014-01-12T15:00:12Z</time>
      </trkpt>
      <trkpt lat="44.9113" lon="0.52718">
        <ele>105.4</ele>
        <time>2014-01-12T15:00:27Z</time>
      </trkpt>
      <trkpt lat="44.91128" lon="0.52706">
        <ele>106.84</ele>
        <time>2014-01-12T15:00:36Z</time>
      </trkpt>
      <trkpt lat="44.91129" lon="0.52696">
        <ele>107.81</ele>
        <time>2014-01-12T15:00:43Z</time>
      </trkpt>
      <trkpt lat="44.91128" lon="0.52691">
        <ele>106.84</ele>
        <time>2014-01-12T15:00:47Z</time>
      </trkpt>
      <trkpt lat="44.91123" lon="0.52673">
        <ele>107.32</ele>
        <time>2014-01-12T15:00:59Z</time>
      </trkpt>
      <trkpt lat="44.91115" lon="0.52648">
        <ele>108.29</ele>
        <time>2014-01-12T15:01:15Z</time>
      </trkpt>
      <trkpt lat="44.91108" lon="0.5263">
        <ele>109.25</ele>
        <time>2014-01-12T15:01:28Z</time>
      </trkpt>
      <trkpt lat="44.91102" lon="0.52617">
        <ele>109.25</ele>
        <time>2014-01-12T15:01:38Z</time>
      </trkpt>
      <trkpt lat="44.91093" lon="0.52604">
        <ele>111.65</ele>
        <time>2014-01-12T15:01:49Z</time>
      </trkpt>
      <trkpt lat="44.91082" lon="0.52593">
        <ele>113.57</ele>
        <time>2014-01-12T15:02:00Z</time>
      </trkpt>
      <trkpt lat="44.91074" lon="0.52575">
        <ele>115.01</ele>
        <time>2014-01-12T15:02:15Z</time>
      </trkpt>
      <trkpt lat="44.91069" lon="0.52557">
        <ele>115.01</ele>
        <time>2014-01-12T15:02:28Z</time>
      </trkpt>
      <trkpt lat="44.91068" lon="0.52553">
        <ele>116.94</ele>
        <time>2014-01-12T15:02:31Z</time>
      </trkpt>
      <trkpt lat="44.91061" lon="0.52531">
        <ele>116.94</ele>
        <time>2014-01-12T15:02:46Z</time>
      </trkpt>
      <trkpt lat="44.91055" lon="0.52515">
        <ele>116.46</ele>
        <time>2014-01-12T15:02:58Z</time>
      </trkpt>
      <trkpt lat="44.91046" lon="0.525">
        <ele>117.42</ele>
        <time>2014-01-12T15:03:10Z</time>
      </trkpt>
      <trkpt lat="44.91041" lon="0.52496">
        <ele>116.46</ele>
        <time>2014-01-12T15:03:19Z</time>
      </trkpt>
      <trkpt lat="44.9103" lon="0.52481">
        <ele>116.94</ele>
        <time>2014-01-12T15:03:35Z</time>
      </trkpt>
      <trkpt lat="44.91025" lon="0.52475">
        <ele>117.42</ele>
        <time>2014-01-12T15:03:40Z</time>
      </trkpt>
      <trkpt lat="44.91019" lon="0.52466">
        <ele>117.9</ele>
        <time>2014-01-12T15:03:47Z</time>
      </trkpt>
      <trkpt lat="44.91012" lon="0.52459">
        <ele>116.94</ele>
        <time>2014-01-12T15:03:54Z</time>
      </trkpt>
      <trkpt lat="44.91" lon="0.52446">
        <ele>117.42</ele>
        <time>2014-01-12T15:04:07Z</time>
      </trkpt>
      <trkpt lat="44.90992" lon="0.52437">
        <ele>117.9</ele>
        <time>2014-01-12T15:04:16Z</time>
      </trkpt>
      <trkpt lat="44.90981" lon="0.52422">
        <ele>116.94</ele>
        <time>2014-01-12T15:04:29Z</time>
      </trkpt>
      <trkpt lat="44.9097" lon="0.52402">
        <ele>116.46</ele>
        <time>2014-01-12T15:04:43Z</time>
      </trkpt>
      <trkpt lat="44.90957" lon="0.52384">
        <ele>116.46</ele>
        <time>2014-01-12T15:04:58Z</time>
      </trkpt>
      <trkpt lat="44.90944" lon="0.52369">
        <ele>118.38</ele>
        <time>2014-01-12T15:05:12Z</time>
      </trkpt>
      <trkpt lat="44.90931" lon="0.52358">
        <ele>116.94</ele>
        <time>2014-01-12T15:05:24Z</time>
      </trkpt>
      <trkpt lat="44.90921" lon="0.52357">
        <ele>115.98</ele>
        <time>2014-01-12T15:05:34Z</time>
      </trkpt>
      <trkpt lat="44.9091" lon="0.52358">
        <ele>114.05</ele>
        <time>2014-01-12T15:05:43Z</time>
      </trkpt>
      <trkpt lat="44.90891" lon="0.5236">
        <ele>113.09</ele>
        <time>2014-01-12T15:05:59Z</time>
      </trkpt>
      <trkpt lat="44.90886" lon="0.5236">
        <ele>111.65</ele>
        <time>2014-01-12T15:06:06Z</time>
      </trkpt>
      <trkpt lat="44.90879" lon="0.52358">
        <ele>111.65</ele>
        <time>2014-01-12T15:06:12Z</time>
      </trkpt>
      <trkpt lat="44.90869" lon="0.52358">
        <ele>110.69</ele>
        <time>2014-01-12T15:06:20Z</time>
      </trkpt>
      <trkpt lat="44.9086" lon="0.52357">
        <ele>110.69</ele>
        <time>2014-01-12T15:06:28Z</time>
      </trkpt>
      <trkpt lat="44.90854" lon="0.52355">
        <ele>111.65</ele>
        <time>2014-01-12T15:06:33Z</time>
      </trkpt>
      <trkpt lat="44.90849" lon="0.52354">
        <ele>110.69</ele>
        <time>2014-01-12T15:06:37Z</time>
      </trkpt>
      <trkpt lat="44.90834" lon="0.52355">
        <ele>110.69</ele>
        <time>2014-01-12T15:06:50Z</time>
      </trkpt>
      <trkpt lat="44.90814" lon="0.52357">
        <ele>111.17</ele>
        <time>2014-01-12T15:07:06Z</time>
      </trkpt>
      <trkpt lat="44.90812" lon="0.5236">
        <ele>111.65</ele>
        <time>2014-01-12T15:07:13Z</time>
      </trkpt>
      <trkpt lat="44.90809" lon="0.52358">
        <ele>112.13</ele>
        <time>2014-01-12T15:07:18Z</time>
      </trkpt>
      <trkpt lat="44.90805" lon="0.52359">
        <ele>112.61</ele>
        <time>2014-01-12T15:07:21Z</time>
      </trkpt>
      <trkpt lat="44.90781" lon="0.52366">
        <ele>113.57</ele>
        <time>2014-01-12T15:07:38Z</time>
      </trkpt>
      <trkpt lat="44.90764" lon="0.52373">
        <ele>114.53</ele>
        <time>2014-01-12T15:07:52Z</time>
      </trkpt>
      <trkpt lat="44.90748" lon="0.5238">
        <ele>117.9</ele>
        <time>2014-01-12T15:08:07Z</time>
      </trkpt>
      <trkpt lat="44.90731" lon="0.52386">
        <ele>117.42</ele>
        <time>2014-01-12T15:08:22Z</time>
      </trkpt>
      <trkpt lat="44.90712" lon="0.52393">
        <ele>118.38</ele>
        <time>2014-01-12T15:08:38Z</time>
      </trkpt>
      <trkpt lat="44.90693" lon="0.52402">
        <ele>118.38</ele>
        <time>2014-01-12T15:08:55Z</time>
      </trkpt>
      <trkpt lat="44.90673" lon="0.5241">
        <ele>118.38</ele>
        <time>2014-01-12T15:09:13Z</time>
      </trkpt>
      <trkpt lat="44.90663" lon="0.52415">
        <ele>118.38</ele>
        <time>2014-01-12T15:09:23Z</time>
      </trkpt>
      <trkpt lat="44.90658" lon="0.52416">
        <ele>117.9</ele>
        <time>2014-01-12T15:09:27Z</time>
      </trkpt>
      <trkpt lat="44.90643" lon="0.52423">
        <ele>118.38</ele>
        <time>2014-01-12T15:09:41Z</time>
      </trkpt>
      <trkpt lat="44.90626" lon="0.52431">
        <ele>118.86</ele>
        <time>2014-01-12T15:09:56Z</time>
      </trkpt>
      <trkpt lat="44.90602" lon="0.52436">
        <ele>121.26</ele>
        <time>2014-01-12T15:10:15Z</time>
      </trkpt>
      <trkpt lat="44.90586" lon="0.52432">
        <ele>123.19</ele>
        <time>2014-01-12T15:10:30Z</time>
      </trkpt>
      <trkpt lat="44.90569" lon="0.52422">
        <ele>125.59</ele>
        <time>2014-01-12T15:10:47Z</time>
      </trkpt>
      <trkpt lat="44.90563" lon="0.52421">
        <ele>125.59</ele>
        <time>2014-01-12T15:10:53Z</time>
      </trkpt>
      <trkpt lat="44.90559" lon="0.52417">
        <ele>126.55</ele>
        <time>2014-01-12T15:10:58Z</time>
      </trkpt>
      <trkpt lat="44.90546" lon="0.52407">
        <ele>127.99</ele>
        <time>2014-01-12T15:11:12Z</time>
      </trkpt>
      <trkpt lat="44.90531" lon="0.52397">
        <ele>130.4</ele>
        <time>2014-01-12T15:11:26Z</time>
      </trkpt>
      <trkpt lat="44.90512" lon="0.52385">
        <ele>130.4</ele>
        <time>2014-01-12T15:11:45Z</time>
      </trkpt>
      <trkpt lat="44.90511" lon="0.52383">
        <ele>130.88</ele>
        <time>2014-01-12T15:11:47Z</time>
      </trkpt>
      <trkpt lat="44.90509" lon="0.52375">
        <ele>130.4</ele>
        <time>2014-01-12T15:11:52Z</time>
      </trkpt>
      <trkpt lat="44.90514" lon="0.52352">
        <ele>130.4</ele>
        <time>2014-01-12T15:12:07Z</time>
      </trkpt>
      <trkpt lat="44.90512" lon="0.52328">
        <ele>131.84</ele>
        <time>2014-01-12T15:12:23Z</time>
      </trkpt>
      <trkpt lat="44.9051" lon="0.52303">
        <ele>132.32</ele>
        <time>2014-01-12T15:12:39Z</time>
      </trkpt>
      <trkpt lat="44.90509" lon="0.5228">
        <ele>133.28</ele>
        <time>2014-01-12T15:12:54Z</time>
      </trkpt>
      <trkpt lat="44.90511" lon="0.52268">
        <ele>133.28</ele>
        <time>2014-01-12T15:13:02Z</time>
      </trkpt>
      <trkpt lat="44.90509" lon="0.5224">
        <ele>134.24</ele>
        <time>2014-01-12T15:13:18Z</time>
      </trkpt>
      <trkpt lat="44.90508" lon="0.52234">
        <ele>134.72</ele>
        <time>2014-01-12T15:13:22Z</time>
      </trkpt>
      <trkpt lat="44.90507" lon="0.52228">
        <ele>134.72</ele>
        <time>2014-01-12T15:13:26Z</time>
      </trkpt>
      <trkpt lat="44.90518" lon="0.52226">
        <ele>135.68</ele>
        <time>2014-01-12T15:13:40Z</time>
      </trkpt>
      <trkpt lat="44.90519" lon="0.52227">
        <ele>134.72</ele>
        <time>2014-01-12T15:13:42Z</time>
      </trkpt>
      <trkpt lat="44.90522" lon="0.52234">
        <ele>136.16</ele>
        <time>2014-01-12T15:13:53Z</time>
      </trkpt>
      <trkpt lat="44.90522" lon="0.52236">
        <ele>135.68</ele>
        <time>2014-01-12T15:13:55Z</time>
      </trkpt>
      <trkpt lat="44.90526" lon="0.52239">
        <ele>136.64</ele>
        <time>2014-01-12T15:14:00Z</time>
      </trkpt>
      <trkpt lat="44.90533" lon="0.52241">
        <ele>136.64</ele>
        <time>2014-01-12T15:14:06Z</time>
      </trkpt>
      <trkpt lat="44.90551" lon="0.52244">
        <ele>136.64</ele>
        <time>2014-01-12T15:14:24Z</time>
      </trkpt>
      <trkpt lat="44.90558" lon="0.52246">
        <ele>135.68</ele>
        <time>2014-01-12T15:14:34Z</time>
      </trkpt>
      <trkpt lat="44.90559" lon="0.5225">
        <ele>137.13</ele>
        <time>2014-01-12T15:14:48Z</time>
      </trkpt>
      <trkpt lat="44.90558" lon="0.5225">
        <ele>135.68</ele>
        <time>2014-01-12T15:14:50Z</time>
      </trkpt>
      <trkpt lat="44.90551" lon="0.52244">
        <ele>136.16</ele>
        <time>2014-01-12T15:15:05Z</time>
      </trkpt>
      <trkpt lat="44.90547" lon="0.52243">
        <ele>136.64</ele>
        <time>2014-01-12T15:16:07Z</time>
      </trkpt>
      <trkpt lat="44.90546" lon="0.52245">
        <ele>135.2</ele>
        <time>2014-01-12T15:16:25Z</time>
      </trkpt>
      <trkpt lat="44.90547" lon="0.52245">
        <ele>137.13</ele>
        <time>2014-01-12T15:16:27Z</time>
      </trkpt>
      <trkpt lat="44.90548" lon="0.52254">
        <ele>136.64</ele>
        <time>2014-01-12T15:16:54Z</time>
      </trkpt>
      <trkpt lat="44.90547" lon="0.52253">
        <ele>137.13</ele>
        <time>2014-01-12T15:18:30Z</time>
      </trkpt>
      <trkpt lat="44.90547" lon="0.52253">
        <ele>138.57</ele>
        <time>2014-01-12T15:21:03Z</time>
      </trkpt>
      <trkpt lat="44.90547" lon="0.52253">
        <ele>138.09</ele>
        <time>2014-01-12T15:21:05Z</time>
      </trkpt>
      <trkpt lat="44.90547" lon="0.52253">
        <ele>139.05</ele>
        <time>2014-01-12T15:21:42Z</time>
      </trkpt>
    </trkseg>
  </trk>
  <trk>
    <name><![CDATA[CALES: 21 DEC 2013 13:47]]></name>
    <trkseg>
      <trkpt lat="44.85516" lon="0.81192">
        <ele>66.95</ele>
        <time>2013-12-21T12:47:05Z</time>
      </trkpt>
      <trkpt lat="44.85516" lon="0.81189">
        <ele>66.95</ele>
        <time>2013-12-21T12:47:27Z</time>
      </trkpt>
      <trkpt lat="44.85525" lon="0.81187">
        <ele>66.95</ele>
        <time>2013-12-21T12:47:44Z</time>
      </trkpt>
      <trkpt lat="44.85538" lon="0.81185">
        <ele>68.39</ele>
        <time>2013-12-21T12:47:58Z</time>
      </trkpt>
      <trkpt lat="44.85538" lon="0.81198">
        <ele>69.83</ele>
        <time>2013-12-21T12:48:12Z</time>
      </trkpt>
      <trkpt lat="44.85535" lon="0.81196">
        <ele>69.35</ele>
        <time>2013-12-21T12:48:25Z</time>
      </trkpt>
      <trkpt lat="44.85542" lon="0.812">
        <ele>69.83</ele>
        <time>2013-12-21T12:48:40Z</time>
      </trkpt>
      <trkpt lat="44.8554" lon="0.81198">
        <ele>69.83</ele>
        <time>2013-12-21T12:49:01Z</time>
      </trkpt>
      <trkpt lat="44.85546" lon="0.81183">
        <ele>68.39</ele>
        <time>2013-12-21T12:50:20Z</time>
      </trkpt>
      <trkpt lat="44.85546" lon="0.81177">
        <ele>67.43</ele>
        <time>2013-12-21T12:50:33Z</time>
      </trkpt>
      <trkpt lat="44.85546" lon="0.81172">
        <ele>67.91</ele>
        <time>2013-12-21T12:50:55Z</time>
      </trkpt>
      <trkpt lat="44.85542" lon="0.81179">
        <ele>67.91</ele>
        <time>2013-12-21T12:51:22Z</time>
      </trkpt>
      <trkpt lat="44.85544" lon="0.8117">
        <ele>68.39</ele>
        <time>2013-12-21T12:51:32Z</time>
      </trkpt>
      <trkpt lat="44.85538" lon="0.81183">
        <ele>68.39</ele>
        <time>2013-12-21T12:51:47Z</time>
      </trkpt>
      <trkpt lat="44.85544" lon="0.81181">
        <ele>68.39</ele>
        <time>2013-12-21T12:52:01Z</time>
      </trkpt>
      <trkpt lat="44.85548" lon="0.81174">
        <ele>67.91</ele>
        <time>2013-12-21T12:52:15Z</time>
      </trkpt>
      <trkpt lat="44.85548" lon="0.81168">
        <ele>68.39</ele>
        <time>2013-12-21T12:52:26Z</time>
      </trkpt>
      <trkpt lat="44.85551" lon="0.81172">
        <ele>67.91</ele>
        <time>2013-12-21T12:53:14Z</time>
      </trkpt>
      <trkpt lat="44.85542" lon="0.81183">
        <ele>67.91</ele>
        <time>2013-12-21T12:54:09Z</time>
      </trkpt>
      <trkpt lat="44.85542" lon="0.81194">
        <ele>67.91</ele>
        <time>2013-12-21T12:54:30Z</time>
      </trkpt>
      <trkpt lat="44.8554" lon="0.81194">
        <ele>68.39</ele>
        <time>2013-12-21T12:54:46Z</time>
      </trkpt>
      <trkpt lat="44.8554" lon="0.81196">
        <ele>66.95</ele>
        <time>2013-12-21T12:55:07Z</time>
      </trkpt>
      <trkpt lat="44.85542" lon="0.81198">
        <ele>70.79</ele>
        <time>2013-12-21T12:55:13Z</time>
      </trkpt>
      <trkpt lat="44.85542" lon="0.81198">
        <ele>64.55</ele>
        <time>2013-12-21T12:55:16Z</time>
      </trkpt>
      <trkpt lat="44.85542" lon="0.81198">
        <ele>68.39</ele>
        <time>2013-12-21T12:55:27Z</time>
      </trkpt>
      <trkpt lat="44.85544" lon="0.81196">
        <ele>66.47</ele>
        <time>2013-12-21T12:56:07Z</time>
      </trkpt>
      <trkpt lat="44.85542" lon="0.81189">
        <ele>68.39</ele>
        <time>2013-12-21T12:59:12Z</time>
      </trkpt>
      <trkpt lat="44.8554" lon="0.81192">
        <ele>68.39</ele>
        <time>2013-12-21T12:59:26Z</time>
      </trkpt>
      <trkpt lat="44.85542" lon="0.81192">
        <ele>69.35</ele>
        <time>2013-12-21T13:01:09Z</time>
      </trkpt>
      <trkpt lat="44.85544" lon="0.81183">
        <ele>68.39</ele>
        <time>2013-12-21T13:01:16Z</time>
      </trkpt>
      <trkpt lat="44.85538" lon="0.81164">
        <ele>69.35</ele>
        <time>2013-12-21T13:01:31Z</time>
      </trkpt>
      <trkpt lat="44.85529" lon="0.81155">
        <ele>72.72</ele>
        <time>2013-12-21T13:01:41Z</time>
      </trkpt>
      <trkpt lat="44.85523" lon="0.81149">
        <ele>72.72</ele>
        <time>2013-12-21T13:01:48Z</time>
      </trkpt>
      <trkpt lat="44.85514" lon="0.81136">
        <ele>77.52</ele>
        <time>2013-12-21T13:02:02Z</time>
      </trkpt>
      <trkpt lat="44.85505" lon="0.81125">
        <ele>77.04</ele>
        <time>2013-12-21T13:02:13Z</time>
      </trkpt>
      <trkpt lat="44.85495" lon="0.81104">
        <ele>79.45</ele>
        <time>2013-12-21T13:02:36Z</time>
      </trkpt>
      <trkpt lat="44.85508" lon="0.81093">
        <ele>81.85</ele>
        <time>2013-12-21T13:02:49Z</time>
      </trkpt>
      <trkpt lat="44.85516" lon="0.81084">
        <ele>82.33</ele>
        <time>2013-12-21T13:02:58Z</time>
      </trkpt>
      <trkpt lat="44.85523" lon="0.81074">
        <ele>83.29</ele>
        <time>2013-12-21T13:03:08Z</time>
      </trkpt>
      <trkpt lat="44.85538" lon="0.8108">
        <ele>84.73</ele>
        <time>2013-12-21T13:03:21Z</time>
      </trkpt>
      <trkpt lat="44.8563" lon="0.81031">
        <ele>94.35</ele>
        <time>2013-12-21T13:04:57Z</time>
      </trkpt>
      <trkpt lat="44.8566" lon="0.81022">
        <ele>94.83</ele>
        <time>2013-12-21T13:05:23Z</time>
      </trkpt>
      <trkpt lat="44.85699" lon="0.81005">
        <ele>95.79</ele>
        <time>2013-12-21T13:05:56Z</time>
      </trkpt>
      <trkpt lat="44.85724" lon="0.81003">
        <ele>95.31</ele>
        <time>2013-12-21T13:06:16Z</time>
      </trkpt>
      <trkpt lat="44.85806" lon="0.8102">
        <ele>91.46</ele>
        <time>2013-12-21T13:07:24Z</time>
      </trkpt>
      <trkpt lat="44.85832" lon="0.81016">
        <ele>91.46</ele>
        <time>2013-12-21T13:07:44Z</time>
      </trkpt>
      <trkpt lat="44.85851" lon="0.81007">
        <ele>91.46</ele>
        <time>2013-12-21T13:07:59Z</time>
      </trkpt>
      <trkpt lat="44.85859" lon="0.81007">
        <ele>92.42</ele>
        <time>2013-12-21T13:08:07Z</time>
      </trkpt>
      <trkpt lat="44.8589" lon="0.81011">
        <ele>93.39</ele>
        <time>2013-12-21T13:08:32Z</time>
      </trkpt>
      <trkpt lat="44.85911" lon="0.8102">
        <ele>92.42</ele>
        <time>2013-12-21T13:08:47Z</time>
      </trkpt>
      <trkpt lat="44.86016" lon="0.81033">
        <ele>86.18</ele>
        <time>2013-12-21T13:10:13Z</time>
      </trkpt>
      <trkpt lat="44.86031" lon="0.81033">
        <ele>85.21</ele>
        <time>2013-12-21T13:10:23Z</time>
      </trkpt>
      <trkpt lat="44.8607" lon="0.81029">
        <ele>83.29</ele>
        <time>2013-12-21T13:10:53Z</time>
      </trkpt>
      <trkpt lat="44.86134" lon="0.81011">
        <ele>79.93</ele>
        <time>2013-12-21T13:11:47Z</time>
      </trkpt>
      <trkpt lat="44.86149" lon="0.81001">
        <ele>79.45</ele>
        <time>2013-12-21T13:12:04Z</time>
      </trkpt>
      <trkpt lat="44.86164" lon="0.80994">
        <ele>79.45</ele>
        <time>2013-12-21T13:12:19Z</time>
      </trkpt>
      <trkpt lat="44.86244" lon="0.80951">
        <ele>83.77</ele>
        <time>2013-12-21T13:13:28Z</time>
      </trkpt>
      <trkpt lat="44.8631" lon="0.80932">
        <ele>83.29</ele>
        <time>2013-12-21T13:14:22Z</time>
      </trkpt>
      <trkpt lat="44.86342" lon="0.80928">
        <ele>82.81</ele>
        <time>2013-12-21T13:14:46Z</time>
      </trkpt>
      <trkpt lat="44.86366" lon="0.80921">
        <ele>81.37</ele>
        <time>2013-12-21T13:15:07Z</time>
      </trkpt>
      <trkpt lat="44.86387" lon="0.80917">
        <ele>80.41</ele>
        <time>2013-12-21T13:15:22Z</time>
      </trkpt>
      <trkpt lat="44.86407" lon="0.80919">
        <ele>78.48</ele>
        <time>2013-12-21T13:15:35Z</time>
      </trkpt>
      <trkpt lat="44.86422" lon="0.80913">
        <ele>77.52</ele>
        <time>2013-12-21T13:15:48Z</time>
      </trkpt>
      <trkpt lat="44.86428" lon="0.80908">
        <ele>76.08</ele>
        <time>2013-12-21T13:15:54Z</time>
      </trkpt>
      <trkpt lat="44.86437" lon="0.80906">
        <ele>75.6</ele>
        <time>2013-12-21T13:15:59Z</time>
      </trkpt>
      <trkpt lat="44.86469" lon="0.80913">
        <ele>74.16</ele>
        <time>2013-12-21T13:16:22Z</time>
      </trkpt>
      <trkpt lat="44.8652" lon="0.80917">
        <ele>73.2</ele>
        <time>2013-12-21T13:16:59Z</time>
      </trkpt>
      <trkpt lat="44.86535" lon="0.80923">
        <ele>71.76</ele>
        <time>2013-12-21T13:17:13Z</time>
      </trkpt>
      <trkpt lat="44.86557" lon="0.80926">
        <ele>71.76</ele>
        <time>2013-12-21T13:17:30Z</time>
      </trkpt>
      <trkpt lat="44.86598" lon="0.80936">
        <ele>69.35</ele>
        <time>2013-12-21T13:18:00Z</time>
      </trkpt>
      <trkpt lat="44.86619" lon="0.80945">
        <ele>66.95</ele>
        <time>2013-12-21T13:18:17Z</time>
      </trkpt>
      <trkpt lat="44.86656" lon="0.80949">
        <ele>63.58</ele>
        <time>2013-12-21T13:18:46Z</time>
      </trkpt>
      <trkpt lat="44.86705" lon="0.8096">
        <ele>55.89</ele>
        <time>2013-12-21T13:19:29Z</time>
      </trkpt>
      <trkpt lat="44.86722" lon="0.80964">
        <ele>54.93</ele>
        <time>2013-12-21T13:19:42Z</time>
      </trkpt>
      <trkpt lat="44.86806" lon="0.80981">
        <ele>49.16</ele>
        <time>2013-12-21T13:20:44Z</time>
      </trkpt>
      <trkpt lat="44.86851" lon="0.80975">
        <ele>45.8</ele>
        <time>2013-12-21T13:21:19Z</time>
      </trkpt>
      <trkpt lat="44.86872" lon="0.80979">
        <ele>46.28</ele>
        <time>2013-12-21T13:21:36Z</time>
      </trkpt>
      <trkpt lat="44.86907" lon="0.80992">
        <ele>46.28</ele>
        <time>2013-12-21T13:22:03Z</time>
      </trkpt>
      <trkpt lat="44.86932" lon="0.81013">
        <ele>46.28</ele>
        <time>2013-12-21T13:22:25Z</time>
      </trkpt>
      <trkpt lat="44.86939" lon="0.81018">
        <ele>47.24</ele>
        <time>2013-12-21T13:22:36Z</time>
      </trkpt>
      <trkpt lat="44.86941" lon="0.81016">
        <ele>46.76</ele>
        <time>2013-12-21T13:23:03Z</time>
      </trkpt>
      <trkpt lat="44.86947" lon="0.81011">
        <ele>47.24</ele>
        <time>2013-12-21T13:23:08Z</time>
      </trkpt>
      <trkpt lat="44.86958" lon="0.80977">
        <ele>47.24</ele>
        <time>2013-12-21T13:23:28Z</time>
      </trkpt>
      <trkpt lat="44.86971" lon="0.80919">
        <ele>49.65</ele>
        <time>2013-12-21T13:24:01Z</time>
      </trkpt>
      <trkpt lat="44.86999" lon="0.80788">
        <ele>53.49</ele>
        <time>2013-12-21T13:25:40Z</time>
      </trkpt>
      <trkpt lat="44.8699" lon="0.80777">
        <ele>53.01</ele>
        <time>2013-12-21T13:25:49Z</time>
      </trkpt>
      <trkpt lat="44.86973" lon="0.80767">
        <ele>52.53</ele>
        <time>2013-12-21T13:26:02Z</time>
      </trkpt>
      <trkpt lat="44.86956" lon="0.80747">
        <ele>51.09</ele>
        <time>2013-12-21T13:26:18Z</time>
      </trkpt>
      <trkpt lat="44.86943" lon="0.80743">
        <ele>50.61</ele>
        <time>2013-12-21T13:26:30Z</time>
      </trkpt>
      <trkpt lat="44.86926" lon="0.80732">
        <ele>49.16</ele>
        <time>2013-12-21T13:26:45Z</time>
      </trkpt>
      <trkpt lat="44.8687" lon="0.80702">
        <ele>46.28</ele>
        <time>2013-12-21T13:27:30Z</time>
      </trkpt>
      <trkpt lat="44.86857" lon="0.80692">
        <ele>45.32</ele>
        <time>2013-12-21T13:27:42Z</time>
      </trkpt>
      <trkpt lat="44.86844" lon="0.80657">
        <ele>44.84</ele>
        <time>2013-12-21T13:28:04Z</time>
      </trkpt>
      <trkpt lat="44.86832" lon="0.80574">
        <ele>43.88</ele>
        <time>2013-12-21T13:28:51Z</time>
      </trkpt>
      <trkpt lat="44.86825" lon="0.80501">
        <ele>42.92</ele>
        <time>2013-12-21T13:29:30Z</time>
      </trkpt>
      <trkpt lat="44.86812" lon="0.80447">
        <ele>41.47</ele>
        <time>2013-12-21T13:30:04Z</time>
      </trkpt>
      <trkpt lat="44.86814" lon="0.80417">
        <ele>41.47</ele>
        <time>2013-12-21T13:30:21Z</time>
      </trkpt>
      <trkpt lat="44.86827" lon="0.80415">
        <ele>41.47</ele>
        <time>2013-12-21T13:30:35Z</time>
      </trkpt>
      <trkpt lat="44.86851" lon="0.80402">
        <ele>40.99</ele>
        <time>2013-12-21T13:30:55Z</time>
      </trkpt>
      <trkpt lat="44.86872" lon="0.80402">
        <ele>40.99</ele>
        <time>2013-12-21T13:31:13Z</time>
      </trkpt>
      <trkpt lat="44.86892" lon="0.80396">
        <ele>41.47</ele>
        <time>2013-12-21T13:31:29Z</time>
      </trkpt>
      <trkpt lat="44.86924" lon="0.80396">
        <ele>40.51</ele>
        <time>2013-12-21T13:31:56Z</time>
      </trkpt>
      <trkpt lat="44.86965" lon="0.804">
        <ele>42.44</ele>
        <time>2013-12-21T13:32:29Z</time>
      </trkpt>
      <trkpt lat="44.87061" lon="0.80404">
        <ele>41.95</ele>
        <time>2013-12-21T13:33:51Z</time>
      </trkpt>
      <trkpt lat="44.87068" lon="0.80402">
        <ele>42.92</ele>
        <time>2013-12-21T13:33:56Z</time>
      </trkpt>
      <trkpt lat="44.87151" lon="0.80402">
        <ele>41.95</ele>
        <time>2013-12-21T13:35:07Z</time>
      </trkpt>
      <trkpt lat="44.87186" lon="0.80396">
        <ele>42.92</ele>
        <time>2013-12-21T13:35:39Z</time>
      </trkpt>
      <trkpt lat="44.8722" lon="0.80393">
        <ele>42.44</ele>
        <time>2013-12-21T13:36:06Z</time>
      </trkpt>
      <trkpt lat="44.87231" lon="0.80396">
        <ele>43.88</ele>
        <time>2013-12-21T13:36:30Z</time>
      </trkpt>
      <trkpt lat="44.8722" lon="0.80389">
        <ele>42.92</ele>
        <time>2013-12-21T13:37:34Z</time>
      </trkpt>
      <trkpt lat="44.87233" lon="0.80393">
        <ele>44.36</ele>
        <time>2013-12-21T13:37:51Z</time>
      </trkpt>
      <trkpt lat="44.87269" lon="0.80363">
        <ele>42.92</ele>
        <time>2013-12-21T13:38:23Z</time>
      </trkpt>
      <trkpt lat="44.87334" lon="0.8032">
        <ele>42.92</ele>
        <time>2013-12-21T13:39:21Z</time>
      </trkpt>
      <trkpt lat="44.87355" lon="0.8031">
        <ele>41.47</ele>
        <time>2013-12-21T13:39:38Z</time>
      </trkpt>
      <trkpt lat="44.87377" lon="0.80295">
        <ele>41.47</ele>
        <time>2013-12-21T13:39:59Z</time>
      </trkpt>
      <trkpt lat="44.87467" lon="0.80215">
        <ele>39.55</ele>
        <time>2013-12-21T13:41:24Z</time>
      </trkpt>
      <trkpt lat="44.87484" lon="0.80198">
        <ele>40.51</ele>
        <time>2013-12-21T13:41:42Z</time>
      </trkpt>
      <trkpt lat="44.87503" lon="0.80179">
        <ele>38.59</ele>
        <time>2013-12-21T13:42:00Z</time>
      </trkpt>
      <trkpt lat="44.87537" lon="0.80142">
        <ele>38.11</ele>
        <time>2013-12-21T13:42:35Z</time>
      </trkpt>
      <trkpt lat="44.87544" lon="0.80147">
        <ele>39.55</ele>
        <time>2013-12-21T13:42:47Z</time>
      </trkpt>
      <trkpt lat="44.87546" lon="0.80151">
        <ele>38.11</ele>
        <time>2013-12-21T13:43:07Z</time>
      </trkpt>
      <trkpt lat="44.87557" lon="0.80174">
        <ele>39.07</ele>
        <time>2013-12-21T13:43:24Z</time>
      </trkpt>
      <trkpt lat="44.87615" lon="0.8029">
        <ele>40.99</ele>
        <time>2013-12-21T13:44:48Z</time>
      </trkpt>
      <trkpt lat="44.87677" lon="0.80398">
        <ele>43.4</ele>
        <time>2013-12-21T13:46:09Z</time>
      </trkpt>
      <trkpt lat="44.87694" lon="0.80417">
        <ele>42.92</ele>
        <time>2013-12-21T13:46:27Z</time>
      </trkpt>
      <trkpt lat="44.87754" lon="0.80473">
        <ele>44.84</ele>
        <time>2013-12-21T13:47:24Z</time>
      </trkpt>
      <trkpt lat="44.87836" lon="0.80565">
        <ele>45.32</ele>
        <time>2013-12-21T13:48:50Z</time>
      </trkpt>
      <trkpt lat="44.87874" lon="0.80602">
        <ele>44.36</ele>
        <time>2013-12-21T13:49:25Z</time>
      </trkpt>
      <trkpt lat="44.87896" lon="0.80632">
        <ele>44.36</ele>
        <time>2013-12-21T13:49:56Z</time>
      </trkpt>
      <trkpt lat="44.87913" lon="0.80664">
        <ele>43.4</ele>
        <time>2013-12-21T13:50:21Z</time>
      </trkpt>
      <trkpt lat="44.87924" lon="0.80692">
        <ele>43.88</ele>
        <time>2013-12-21T13:50:39Z</time>
      </trkpt>
      <trkpt lat="44.87947" lon="0.80773">
        <ele>44.36</ele>
        <time>2013-12-21T13:51:30Z</time>
      </trkpt>
      <trkpt lat="44.8796" lon="0.80835">
        <ele>47.24</ele>
        <time>2013-12-21T13:52:10Z</time>
      </trkpt>
      <trkpt lat="44.87947" lon="0.80838">
        <ele>48.2</ele>
        <time>2013-12-21T13:52:25Z</time>
      </trkpt>
      <trkpt lat="44.87924" lon="0.80831">
        <ele>50.61</ele>
        <time>2013-12-21T13:52:44Z</time>
      </trkpt>
      <trkpt lat="44.87904" lon="0.80833">
        <ele>52.53</ele>
        <time>2013-12-21T13:53:01Z</time>
      </trkpt>
      <trkpt lat="44.87887" lon="0.8084">
        <ele>53.97</ele>
        <time>2013-12-21T13:53:16Z</time>
      </trkpt>
      <trkpt lat="44.87868" lon="0.80859">
        <ele>56.86</ele>
        <time>2013-12-21T13:53:37Z</time>
      </trkpt>
      <trkpt lat="44.87849" lon="0.80883">
        <ele>58.3</ele>
        <time>2013-12-21T13:54:00Z</time>
      </trkpt>
      <trkpt lat="44.87831" lon="0.80902">
        <ele>60.22</ele>
        <time>2013-12-21T13:54:18Z</time>
      </trkpt>
      <trkpt lat="44.87825" lon="0.80915">
        <ele>59.74</ele>
        <time>2013-12-21T13:54:28Z</time>
      </trkpt>
      <trkpt lat="44.87812" lon="0.80936">
        <ele>60.22</ele>
        <time>2013-12-21T13:54:45Z</time>
      </trkpt>
      <trkpt lat="44.87795" lon="0.80947">
        <ele>60.22</ele>
        <time>2013-12-21T13:55:02Z</time>
      </trkpt>
      <trkpt lat="44.87782" lon="0.80943">
        <ele>60.7</ele>
        <time>2013-12-21T13:55:15Z</time>
      </trkpt>
      <trkpt lat="44.87746" lon="0.80919">
        <ele>60.22</ele>
        <time>2013-12-21T13:55:49Z</time>
      </trkpt>
      <trkpt lat="44.87728" lon="0.8091">
        <ele>60.7</ele>
        <time>2013-12-21T13:56:04Z</time>
      </trkpt>
      <trkpt lat="44.87709" lon="0.80915">
        <ele>60.7</ele>
        <time>2013-12-21T13:56:22Z</time>
      </trkpt>
      <trkpt lat="44.87638" lon="0.80966">
        <ele>60.7</ele>
        <time>2013-12-21T13:57:25Z</time>
      </trkpt>
      <trkpt lat="44.87507" lon="0.81056">
        <ele>63.58</ele>
        <time>2013-12-21T13:59:19Z</time>
      </trkpt>
      <trkpt lat="44.87495" lon="0.81061">
        <ele>63.58</ele>
        <time>2013-12-21T13:59:33Z</time>
      </trkpt>
      <trkpt lat="44.87497" lon="0.81063">
        <ele>64.55</ele>
        <time>2013-12-21T13:59:56Z</time>
      </trkpt>
      <trkpt lat="44.87473" lon="0.81084">
        <ele>64.55</ele>
        <time>2013-12-21T14:00:51Z</time>
      </trkpt>
      <trkpt lat="44.87452" lon="0.81095">
        <ele>64.55</ele>
        <time>2013-12-21T14:01:10Z</time>
      </trkpt>
      <trkpt lat="44.87413" lon="0.81106">
        <ele>64.55</ele>
        <time>2013-12-21T14:01:42Z</time>
      </trkpt>
      <trkpt lat="44.87351" lon="0.81116">
        <ele>63.58</ele>
        <time>2013-12-21T14:02:33Z</time>
      </trkpt>
      <trkpt lat="44.8731" lon="0.81121">
        <ele>62.14</ele>
        <time>2013-12-21T14:03:04Z</time>
      </trkpt>
      <trkpt lat="44.87291" lon="0.81119">
        <ele>61.18</ele>
        <time>2013-12-21T14:03:20Z</time>
      </trkpt>
      <trkpt lat="44.87271" lon="0.81127">
        <ele>62.14</ele>
        <time>2013-12-21T14:03:36Z</time>
      </trkpt>
      <trkpt lat="44.87267" lon="0.81166">
        <ele>61.18</ele>
        <time>2013-12-21T14:03:56Z</time>
      </trkpt>
      <trkpt lat="44.87256" lon="0.81258">
        <ele>63.58</ele>
        <time>2013-12-21T14:04:48Z</time>
      </trkpt>
      <trkpt lat="44.87248" lon="0.81395">
        <ele>68.87</ele>
        <time>2013-12-21T14:06:06Z</time>
      </trkpt>
      <trkpt lat="44.87246" lon="0.814">
        <ele>68.39</ele>
        <time>2013-12-21T14:06:11Z</time>
      </trkpt>
      <trkpt lat="44.87203" lon="0.81387">
        <ele>71.76</ele>
        <time>2013-12-21T14:06:45Z</time>
      </trkpt>
      <trkpt lat="44.87181" lon="0.81385">
        <ele>72.24</ele>
        <time>2013-12-21T14:07:02Z</time>
      </trkpt>
      <trkpt lat="44.87158" lon="0.81389">
        <ele>74.64</ele>
        <time>2013-12-21T14:07:22Z</time>
      </trkpt>
      <trkpt lat="44.87087" lon="0.81376">
        <ele>75.6</ele>
        <time>2013-12-21T14:08:18Z</time>
      </trkpt>
      <trkpt lat="44.87076" lon="0.81372">
        <ele>76.56</ele>
        <time>2013-12-21T14:08:27Z</time>
      </trkpt>
      <trkpt lat="44.87001" lon="0.81361">
        <ele>79.45</ele>
        <time>2013-12-21T14:09:32Z</time>
      </trkpt>
      <trkpt lat="44.86982" lon="0.81355">
        <ele>79.45</ele>
        <time>2013-12-21T14:09:48Z</time>
      </trkpt>
      <trkpt lat="44.86962" lon="0.8135">
        <ele>79.93</ele>
        <time>2013-12-21T14:10:04Z</time>
      </trkpt>
      <trkpt lat="44.86917" lon="0.81331">
        <ele>81.37</ele>
        <time>2013-12-21T14:10:41Z</time>
      </trkpt>
      <trkpt lat="44.86898" lon="0.81329">
        <ele>81.37</ele>
        <time>2013-12-21T14:10:55Z</time>
      </trkpt>
      <trkpt lat="44.86866" lon="0.81316">
        <ele>82.81</ele>
        <time>2013-12-21T14:11:21Z</time>
      </trkpt>
      <trkpt lat="44.86836" lon="0.8131">
        <ele>84.25</ele>
        <time>2013-12-21T14:11:47Z</time>
      </trkpt>
      <trkpt lat="44.86817" lon="0.81312">
        <ele>85.69</ele>
        <time>2013-12-21T14:12:03Z</time>
      </trkpt>
      <trkpt lat="44.86797" lon="0.81307">
        <ele>87.14</ele>
        <time>2013-12-21T14:12:22Z</time>
      </trkpt>
      <trkpt lat="44.86774" lon="0.81301">
        <ele>87.62</ele>
        <time>2013-12-21T14:12:38Z</time>
      </trkpt>
      <trkpt lat="44.86759" lon="0.81292">
        <ele>90.98</ele>
        <time>2013-12-21T14:12:55Z</time>
      </trkpt>
      <trkpt lat="44.86724" lon="0.81292">
        <ele>91.94</ele>
        <time>2013-12-21T14:13:23Z</time>
      </trkpt>
      <trkpt lat="44.86688" lon="0.81286">
        <ele>92.9</ele>
        <time>2013-12-21T14:13:53Z</time>
      </trkpt>
      <trkpt lat="44.86673" lon="0.81288">
        <ele>92.9</ele>
        <time>2013-12-21T14:14:07Z</time>
      </trkpt>
      <trkpt lat="44.86662" lon="0.81288">
        <ele>93.39</ele>
        <time>2013-12-21T14:14:16Z</time>
      </trkpt>
      <trkpt lat="44.86645" lon="0.81295">
        <ele>93.87</ele>
        <time>2013-12-21T14:14:31Z</time>
      </trkpt>
      <trkpt lat="44.86638" lon="0.81307">
        <ele>93.87</ele>
        <time>2013-12-21T14:14:49Z</time>
      </trkpt>
      <trkpt lat="44.86645" lon="0.81303">
        <ele>95.31</ele>
        <time>2013-12-21T14:15:58Z</time>
      </trkpt>
      <trkpt lat="44.8666" lon="0.81299">
        <ele>94.35</ele>
        <time>2013-12-21T14:16:15Z</time>
      </trkpt>
      <trkpt lat="44.86664" lon="0.81301">
        <ele>93.87</ele>
        <time>2013-12-21T14:16:58Z</time>
      </trkpt>
      <trkpt lat="44.86656" lon="0.81297">
        <ele>93.87</ele>
        <time>2013-12-21T14:17:03Z</time>
      </trkpt>
      <trkpt lat="44.86643" lon="0.81299">
        <ele>94.83</ele>
        <time>2013-12-21T14:17:15Z</time>
      </trkpt>
      <trkpt lat="44.86643" lon="0.81301">
        <ele>94.35</ele>
        <time>2013-12-21T14:17:56Z</time>
      </trkpt>
      <trkpt lat="44.86647" lon="0.81338">
        <ele>98.19</ele>
        <time>2013-12-21T14:20:26Z</time>
      </trkpt>
      <trkpt lat="44.86647" lon="0.81348">
        <ele>98.19</ele>
        <time>2013-12-21T14:20:34Z</time>
      </trkpt>
      <trkpt lat="44.86649" lon="0.8137">
        <ele>101.08</ele>
        <time>2013-12-21T14:20:50Z</time>
      </trkpt>
      <trkpt lat="44.86656" lon="0.81406">
        <ele>102.04</ele>
        <time>2013-12-21T14:21:14Z</time>
      </trkpt>
      <trkpt lat="44.8666" lon="0.81421">
        <ele>103.96</ele>
        <time>2013-12-21T14:21:24Z</time>
      </trkpt>
      <trkpt lat="44.86662" lon="0.81434">
        <ele>103.48</ele>
        <time>2013-12-21T14:21:32Z</time>
      </trkpt>
      <trkpt lat="44.86668" lon="0.81468">
        <ele>104.92</ele>
        <time>2013-12-21T14:21:55Z</time>
      </trkpt>
      <trkpt lat="44.86677" lon="0.81496">
        <ele>104.92</ele>
        <time>2013-12-21T14:22:17Z</time>
      </trkpt>
      <trkpt lat="44.86683" lon="0.81537">
        <ele>105.4</ele>
        <time>2013-12-21T14:22:42Z</time>
      </trkpt>
      <trkpt lat="44.86683" lon="0.81546">
        <ele>105.88</ele>
        <time>2013-12-21T14:22:48Z</time>
      </trkpt>
      <trkpt lat="44.86686" lon="0.81554">
        <ele>107.32</ele>
        <time>2013-12-21T14:22:54Z</time>
      </trkpt>
      <trkpt lat="44.8669" lon="0.81582">
        <ele>106.84</ele>
        <time>2013-12-21T14:23:11Z</time>
      </trkpt>
      <trkpt lat="44.86694" lon="0.81595">
        <ele>106.36</ele>
        <time>2013-12-21T14:23:19Z</time>
      </trkpt>
      <trkpt lat="44.86692" lon="0.81616">
        <ele>106.84</ele>
        <time>2013-12-21T14:23:32Z</time>
      </trkpt>
      <trkpt lat="44.86694" lon="0.8164">
        <ele>107.81</ele>
        <time>2013-12-21T14:23:50Z</time>
      </trkpt>
      <trkpt lat="44.86688" lon="0.81646">
        <ele>108.29</ele>
        <time>2013-12-21T14:23:57Z</time>
      </trkpt>
      <trkpt lat="44.86656" lon="0.81644">
        <ele>110.21</ele>
        <time>2013-12-21T14:24:24Z</time>
      </trkpt>
      <trkpt lat="44.86643" lon="0.81646">
        <ele>109.25</ele>
        <time>2013-12-21T14:24:35Z</time>
      </trkpt>
      <trkpt lat="44.86628" lon="0.81649">
        <ele>109.25</ele>
        <time>2013-12-21T14:24:47Z</time>
      </trkpt>
      <trkpt lat="44.86617" lon="0.81657">
        <ele>109.25</ele>
        <time>2013-12-21T14:24:56Z</time>
      </trkpt>
      <trkpt lat="44.86617" lon="0.817">
        <ele>111.65</ele>
        <time>2013-12-21T14:25:18Z</time>
      </trkpt>
      <trkpt lat="44.86608" lon="0.81717">
        <ele>113.09</ele>
        <time>2013-12-21T14:25:27Z</time>
      </trkpt>
      <trkpt lat="44.8657" lon="0.81741">
        <ele>111.65</ele>
        <time>2013-12-21T14:25:54Z</time>
      </trkpt>
      <trkpt lat="44.8655" lon="0.81758">
        <ele>110.69</ele>
        <time>2013-12-21T14:26:11Z</time>
      </trkpt>
      <trkpt lat="44.86548" lon="0.81771">
        <ele>109.73</ele>
        <time>2013-12-21T14:26:23Z</time>
      </trkpt>
      <trkpt lat="44.86538" lon="0.81788">
        <ele>109.25</ele>
        <time>2013-12-21T14:27:13Z</time>
      </trkpt>
      <trkpt lat="44.86527" lon="0.8182">
        <ele>107.81</ele>
        <time>2013-12-21T14:27:34Z</time>
      </trkpt>
      <trkpt lat="44.86512" lon="0.81943">
        <ele>101.08</ele>
        <time>2013-12-21T14:28:45Z</time>
      </trkpt>
      <trkpt lat="44.86497" lon="0.81955">
        <ele>99.63</ele>
        <time>2013-12-21T14:29:01Z</time>
      </trkpt>
      <trkpt lat="44.86482" lon="0.81955">
        <ele>99.63</ele>
        <time>2013-12-21T14:29:15Z</time>
      </trkpt>
      <trkpt lat="44.86467" lon="0.8196">
        <ele>98.67</ele>
        <time>2013-12-21T14:29:28Z</time>
      </trkpt>
      <trkpt lat="44.8645" lon="0.81958">
        <ele>99.15</ele>
        <time>2013-12-21T14:29:42Z</time>
      </trkpt>
      <trkpt lat="44.86428" lon="0.81962">
        <ele>99.63</ele>
        <time>2013-12-21T14:30:00Z</time>
      </trkpt>
      <trkpt lat="44.86411" lon="0.81964">
        <ele>100.6</ele>
        <time>2013-12-21T14:30:13Z</time>
      </trkpt>
      <trkpt lat="44.86398" lon="0.81994">
        <ele>103.48</ele>
        <time>2013-12-21T14:30:37Z</time>
      </trkpt>
      <trkpt lat="44.8639" lon="0.82003">
        <ele>103.48</ele>
        <time>2013-12-21T14:30:45Z</time>
      </trkpt>
      <trkpt lat="44.86387" lon="0.82009">
        <ele>104.92</ele>
        <time>2013-12-21T14:30:50Z</time>
      </trkpt>
      <trkpt lat="44.86383" lon="0.82033">
        <ele>105.4</ele>
        <time>2013-12-21T14:31:02Z</time>
      </trkpt>
      <trkpt lat="44.86372" lon="0.82041">
        <ele>105.88</ele>
        <time>2013-12-21T14:31:14Z</time>
      </trkpt>
      <trkpt lat="44.86347" lon="0.82037">
        <ele>108.77</ele>
        <time>2013-12-21T14:31:34Z</time>
      </trkpt>
      <trkpt lat="44.8634" lon="0.82046">
        <ele>108.29</ele>
        <time>2013-12-21T14:31:53Z</time>
      </trkpt>
      <trkpt lat="44.86334" lon="0.82041">
        <ele>109.25</ele>
        <time>2013-12-21T14:32:45Z</time>
      </trkpt>
      <trkpt lat="44.86323" lon="0.82043">
        <ele>109.73</ele>
        <time>2013-12-21T14:33:11Z</time>
      </trkpt>
      <trkpt lat="44.86282" lon="0.82031">
        <ele>113.57</ele>
        <time>2013-12-21T14:34:01Z</time>
      </trkpt>
      <trkpt lat="44.86241" lon="0.82031">
        <ele>117.42</ele>
        <time>2013-12-21T14:34:41Z</time>
      </trkpt>
      <trkpt lat="44.8622" lon="0.82037">
        <ele>116.94</ele>
        <time>2013-12-21T14:34:57Z</time>
      </trkpt>
      <trkpt lat="44.86166" lon="0.82043">
        <ele>116.46</ele>
        <time>2013-12-21T14:35:40Z</time>
      </trkpt>
      <trkpt lat="44.86138" lon="0.82056">
        <ele>113.57</ele>
        <time>2013-12-21T14:36:02Z</time>
      </trkpt>
      <trkpt lat="44.86106" lon="0.82065">
        <ele>108.77</ele>
        <time>2013-12-21T14:36:29Z</time>
      </trkpt>
      <trkpt lat="44.86091" lon="0.82071">
        <ele>106.84</ele>
        <time>2013-12-21T14:36:41Z</time>
      </trkpt>
      <trkpt lat="44.86068" lon="0.82076">
        <ele>103</ele>
        <time>2013-12-21T14:37:02Z</time>
      </trkpt>
      <trkpt lat="44.86048" lon="0.82084">
        <ele>103.48</ele>
        <time>2013-12-21T14:37:18Z</time>
      </trkpt>
      <trkpt lat="44.86027" lon="0.82099">
        <ele>105.4</ele>
        <time>2013-12-21T14:37:49Z</time>
      </trkpt>
      <trkpt lat="44.86018" lon="0.82097">
        <ele>107.81</ele>
        <time>2013-12-21T14:37:59Z</time>
      </trkpt>
      <trkpt lat="44.86005" lon="0.82101">
        <ele>109.73</ele>
        <time>2013-12-21T14:38:16Z</time>
      </trkpt>
      <trkpt lat="44.85988" lon="0.82097">
        <ele>113.09</ele>
        <time>2013-12-21T14:38:32Z</time>
      </trkpt>
      <trkpt lat="44.85913" lon="0.82114">
        <ele>118.38</ele>
        <time>2013-12-21T14:39:36Z</time>
      </trkpt>
      <trkpt lat="44.859" lon="0.82119">
        <ele>119.34</ele>
        <time>2013-12-21T14:39:48Z</time>
      </trkpt>
      <trkpt lat="44.85892" lon="0.82125">
        <ele>120.78</ele>
        <time>2013-12-21T14:40:00Z</time>
      </trkpt>
      <trkpt lat="44.8589" lon="0.82127">
        <ele>117.9</ele>
        <time>2013-12-21T14:40:02Z</time>
      </trkpt>
      <trkpt lat="44.8589" lon="0.82127">
        <ele>119.82</ele>
        <time>2013-12-21T14:40:04Z</time>
      </trkpt>
      <trkpt lat="44.85879" lon="0.82116">
        <ele>118.38</ele>
        <time>2013-12-21T14:41:56Z</time>
      </trkpt>
      <trkpt lat="44.8587" lon="0.82125">
        <ele>118.86</ele>
        <time>2013-12-21T14:42:13Z</time>
      </trkpt>
      <trkpt lat="44.85868" lon="0.82136">
        <ele>118.86</ele>
        <time>2013-12-21T14:42:33Z</time>
      </trkpt>
      <trkpt lat="44.8584" lon="0.82151">
        <ele>116.94</ele>
        <time>2013-12-21T14:43:04Z</time>
      </trkpt>
      <trkpt lat="44.85829" lon="0.82164">
        <ele>115.01</ele>
        <time>2013-12-21T14:43:16Z</time>
      </trkpt>
      <trkpt lat="44.85817" lon="0.82172">
        <ele>114.05</ele>
        <time>2013-12-21T14:43:30Z</time>
      </trkpt>
      <trkpt lat="44.85804" lon="0.82189">
        <ele>112.61</ele>
        <time>2013-12-21T14:43:45Z</time>
      </trkpt>
      <trkpt lat="44.85787" lon="0.82204">
        <ele>112.13</ele>
        <time>2013-12-21T14:44:03Z</time>
      </trkpt>
      <trkpt lat="44.8572" lon="0.82245">
        <ele>109.73</ele>
        <time>2013-12-21T14:45:05Z</time>
      </trkpt>
      <trkpt lat="44.85694" lon="0.82258">
        <ele>110.21</ele>
        <time>2013-12-21T14:45:46Z</time>
      </trkpt>
      <trkpt lat="44.85673" lon="0.82256">
        <ele>114.53</ele>
        <time>2013-12-21T14:46:15Z</time>
      </trkpt>
      <trkpt lat="44.85658" lon="0.82269">
        <ele>116.94</ele>
        <time>2013-12-21T14:46:31Z</time>
      </trkpt>
      <trkpt lat="44.85643" lon="0.82275">
        <ele>121.26</ele>
        <time>2013-12-21T14:46:51Z</time>
      </trkpt>
      <trkpt lat="44.85617" lon="0.82282">
        <ele>126.55</ele>
        <time>2013-12-21T14:47:24Z</time>
      </trkpt>
      <trkpt lat="44.85608" lon="0.8229">
        <ele>128.47</ele>
        <time>2013-12-21T14:47:33Z</time>
      </trkpt>
      <trkpt lat="44.85589" lon="0.82295">
        <ele>130.4</ele>
        <time>2013-12-21T14:47:53Z</time>
      </trkpt>
      <trkpt lat="44.85576" lon="0.82301">
        <ele>131.84</ele>
        <time>2013-12-21T14:48:08Z</time>
      </trkpt>
      <trkpt lat="44.85557" lon="0.82318">
        <ele>131.84</ele>
        <time>2013-12-21T14:48:26Z</time>
      </trkpt>
      <trkpt lat="44.85531" lon="0.82363">
        <ele>129.43</ele>
        <time>2013-12-21T14:49:03Z</time>
      </trkpt>
      <trkpt lat="44.85516" lon="0.82382">
        <ele>126.55</ele>
        <time>2013-12-21T14:49:22Z</time>
      </trkpt>
      <trkpt lat="44.85516" lon="0.82389">
        <ele>126.07</ele>
        <time>2013-12-21T14:49:25Z</time>
      </trkpt>
      <trkpt lat="44.85508" lon="0.82406">
        <ele>124.15</ele>
        <time>2013-12-21T14:49:40Z</time>
      </trkpt>
      <trkpt lat="44.85499" lon="0.82417">
        <ele>121.26</ele>
        <time>2013-12-21T14:49:53Z</time>
      </trkpt>
      <trkpt lat="44.85471" lon="0.8246">
        <ele>114.05</ele>
        <time>2013-12-21T14:50:36Z</time>
      </trkpt>
      <trkpt lat="44.85448" lon="0.82516">
        <ele>105.88</ele>
        <time>2013-12-21T14:51:40Z</time>
      </trkpt>
      <trkpt lat="44.8545" lon="0.82531">
        <ele>103.96</ele>
        <time>2013-12-21T14:52:09Z</time>
      </trkpt>
      <trkpt lat="44.85441" lon="0.82531">
        <ele>104.44</ele>
        <time>2013-12-21T14:52:23Z</time>
      </trkpt>
      <trkpt lat="44.85437" lon="0.82537">
        <ele>102.52</ele>
        <time>2013-12-21T14:52:39Z</time>
      </trkpt>
      <trkpt lat="44.85424" lon="0.82548">
        <ele>101.56</ele>
        <time>2013-12-21T14:53:08Z</time>
      </trkpt>
      <trkpt lat="44.85428" lon="0.82558">
        <ele>100.6</ele>
        <time>2013-12-21T14:53:27Z</time>
      </trkpt>
      <trkpt lat="44.85426" lon="0.82552">
        <ele>100.6</ele>
        <time>2013-12-21T14:53:46Z</time>
      </trkpt>
      <trkpt lat="44.8542" lon="0.82554">
        <ele>99.15</ele>
        <time>2013-12-21T14:54:09Z</time>
      </trkpt>
      <trkpt lat="44.85407" lon="0.82593">
        <ele>99.15</ele>
        <time>2013-12-21T14:54:50Z</time>
      </trkpt>
      <trkpt lat="44.8539" lon="0.82616">
        <ele>101.08</ele>
        <time>2013-12-21T14:55:11Z</time>
      </trkpt>
      <trkpt lat="44.8537" lon="0.82659">
        <ele>100.6</ele>
        <time>2013-12-21T14:55:53Z</time>
      </trkpt>
      <trkpt lat="44.85355" lon="0.82672">
        <ele>100.11</ele>
        <time>2013-12-21T14:56:08Z</time>
      </trkpt>
      <trkpt lat="44.8534" lon="0.82696">
        <ele>102.52</ele>
        <time>2013-12-21T14:56:27Z</time>
      </trkpt>
      <trkpt lat="44.85332" lon="0.82722">
        <ele>102.52</ele>
        <time>2013-12-21T14:56:45Z</time>
      </trkpt>
      <trkpt lat="44.85319" lon="0.82741">
        <ele>103.48</ele>
        <time>2013-12-21T14:57:02Z</time>
      </trkpt>
      <trkpt lat="44.85299" lon="0.82771">
        <ele>106.36</ele>
        <time>2013-12-21T14:57:29Z</time>
      </trkpt>
      <trkpt lat="44.85284" lon="0.82801">
        <ele>109.73</ele>
        <time>2013-12-21T14:57:51Z</time>
      </trkpt>
      <trkpt lat="44.85272" lon="0.82809">
        <ele>110.69</ele>
        <time>2013-12-21T14:58:08Z</time>
      </trkpt>
      <trkpt lat="44.85244" lon="0.82848">
        <ele>116.94</ele>
        <time>2013-12-21T14:58:52Z</time>
      </trkpt>
      <trkpt lat="44.85233" lon="0.8287">
        <ele>118.38</ele>
        <time>2013-12-21T14:59:12Z</time>
      </trkpt>
      <trkpt lat="44.85226" lon="0.82876">
        <ele>117.9</ele>
        <time>2013-12-21T14:59:51Z</time>
      </trkpt>
      <trkpt lat="44.85226" lon="0.82882">
        <ele>116.94</ele>
        <time>2013-12-21T15:00:07Z</time>
      </trkpt>
      <trkpt lat="44.85224" lon="0.82887">
        <ele>117.9</ele>
        <time>2013-12-21T15:00:50Z</time>
      </trkpt>
      <trkpt lat="44.85224" lon="0.82876">
        <ele>117.42</ele>
        <time>2013-12-21T15:01:56Z</time>
      </trkpt>
      <trkpt lat="44.85222" lon="0.8288">
        <ele>115.5</ele>
        <time>2013-12-21T15:07:15Z</time>
      </trkpt>
      <trkpt lat="44.85218" lon="0.82891">
        <ele>115.01</ele>
        <time>2013-12-21T15:09:39Z</time>
      </trkpt>
      <trkpt lat="44.85211" lon="0.829">
        <ele>115.01</ele>
        <time>2013-12-21T15:09:49Z</time>
      </trkpt>
      <trkpt lat="44.85207" lon="0.82895">
        <ele>114.53</ele>
        <time>2013-12-21T15:09:55Z</time>
      </trkpt>
      <trkpt lat="44.85199" lon="0.8288">
        <ele>115.98</ele>
        <time>2013-12-21T15:10:09Z</time>
      </trkpt>
      <trkpt lat="44.85199" lon="0.8288">
        <ele>114.05</ele>
        <time>2013-12-21T15:10:10Z</time>
      </trkpt>
      <trkpt lat="44.85188" lon="0.8287">
        <ele>114.05</ele>
        <time>2013-12-21T15:10:23Z</time>
      </trkpt>
      <trkpt lat="44.85184" lon="0.82861">
        <ele>115.01</ele>
        <time>2013-12-21T15:10:32Z</time>
      </trkpt>
      <trkpt lat="44.85171" lon="0.8285">
        <ele>114.53</ele>
        <time>2013-12-21T15:10:48Z</time>
      </trkpt>
      <trkpt lat="44.85156" lon="0.82825">
        <ele>114.05</ele>
        <time>2013-12-21T15:11:15Z</time>
      </trkpt>
      <trkpt lat="44.85145" lon="0.82816">
        <ele>113.57</ele>
        <time>2013-12-21T15:11:26Z</time>
      </trkpt>
      <trkpt lat="44.85141" lon="0.82805">
        <ele>114.05</ele>
        <time>2013-12-21T15:11:35Z</time>
      </trkpt>
      <trkpt lat="44.85128" lon="0.82794">
        <ele>113.09</ele>
        <time>2013-12-21T15:11:48Z</time>
      </trkpt>
      <trkpt lat="44.85117" lon="0.82782">
        <ele>113.09</ele>
        <time>2013-12-21T15:12:00Z</time>
      </trkpt>
      <trkpt lat="44.85102" lon="0.82775">
        <ele>111.17</ele>
        <time>2013-12-21T15:12:15Z</time>
      </trkpt>
      <trkpt lat="44.85089" lon="0.82764">
        <ele>109.25</ele>
        <time>2013-12-21T15:12:28Z</time>
      </trkpt>
      <trkpt lat="44.85074" lon="0.82771">
        <ele>107.32</ele>
        <time>2013-12-21T15:12:41Z</time>
      </trkpt>
      <trkpt lat="44.85066" lon="0.82782">
        <ele>105.88</ele>
        <time>2013-12-21T15:12:54Z</time>
      </trkpt>
      <trkpt lat="44.85057" lon="0.82803">
        <ele>102.52</ele>
        <time>2013-12-21T15:13:12Z</time>
      </trkpt>
      <trkpt lat="44.85051" lon="0.82809">
        <ele>101.56</ele>
        <time>2013-12-21T15:13:20Z</time>
      </trkpt>
      <trkpt lat="44.85038" lon="0.82833">
        <ele>95.79</ele>
        <time>2013-12-21T15:13:52Z</time>
      </trkpt>
      <trkpt lat="44.85044" lon="0.82855">
        <ele>94.83</ele>
        <time>2013-12-21T15:14:06Z</time>
      </trkpt>
      <trkpt lat="44.85033" lon="0.82882">
        <ele>90.98</ele>
        <time>2013-12-21T15:14:39Z</time>
      </trkpt>
      <trkpt lat="44.85029" lon="0.82882">
        <ele>89.06</ele>
        <time>2013-12-21T15:14:50Z</time>
      </trkpt>
      <trkpt lat="44.85016" lon="0.8285">
        <ele>87.14</ele>
        <time>2013-12-21T15:15:58Z</time>
      </trkpt>
      <trkpt lat="44.8501" lon="0.82799">
        <ele>86.66</ele>
        <time>2013-12-21T15:16:34Z</time>
      </trkpt>
      <trkpt lat="44.84995" lon="0.82743">
        <ele>86.18</ele>
        <time>2013-12-21T15:17:11Z</time>
      </trkpt>
      <trkpt lat="44.84993" lon="0.82672">
        <ele>86.66</ele>
        <time>2013-12-21T15:17:50Z</time>
      </trkpt>
      <trkpt lat="44.84993" lon="0.82649">
        <ele>86.18</ele>
        <time>2013-12-21T15:18:05Z</time>
      </trkpt>
      <trkpt lat="44.85001" lon="0.82625">
        <ele>85.69</ele>
        <time>2013-12-21T15:18:20Z</time>
      </trkpt>
      <trkpt lat="44.85014" lon="0.82599">
        <ele>85.69</ele>
        <time>2013-12-21T15:18:39Z</time>
      </trkpt>
      <trkpt lat="44.85027" lon="0.82582">
        <ele>84.73</ele>
        <time>2013-12-21T15:18:55Z</time>
      </trkpt>
      <trkpt lat="44.85061" lon="0.82561">
        <ele>85.21</ele>
        <time>2013-12-21T15:19:26Z</time>
      </trkpt>
      <trkpt lat="44.85078" lon="0.82548">
        <ele>84.73</ele>
        <time>2013-12-21T15:19:41Z</time>
      </trkpt>
      <trkpt lat="44.85091" lon="0.82531">
        <ele>84.73</ele>
        <time>2013-12-21T15:19:56Z</time>
      </trkpt>
      <trkpt lat="44.85113" lon="0.82492">
        <ele>83.29</ele>
        <time>2013-12-21T15:20:21Z</time>
      </trkpt>
      <trkpt lat="44.85145" lon="0.8246">
        <ele>82.81</ele>
        <time>2013-12-21T15:20:53Z</time>
      </trkpt>
      <trkpt lat="44.85184" lon="0.82449">
        <ele>81.85</ele>
        <time>2013-12-21T15:21:28Z</time>
      </trkpt>
      <trkpt lat="44.85222" lon="0.82447">
        <ele>82.33</ele>
        <time>2013-12-21T15:22:02Z</time>
      </trkpt>
      <trkpt lat="44.85235" lon="0.82438">
        <ele>82.33</ele>
        <time>2013-12-21T15:22:12Z</time>
      </trkpt>
      <trkpt lat="44.85254" lon="0.82438">
        <ele>80.89</ele>
        <time>2013-12-21T15:22:26Z</time>
      </trkpt>
      <trkpt lat="44.85291" lon="0.8243">
        <ele>80.41</ele>
        <time>2013-12-21T15:22:56Z</time>
      </trkpt>
      <trkpt lat="44.85299" lon="0.82425">
        <ele>80.89</ele>
        <time>2013-12-21T15:23:10Z</time>
      </trkpt>
      <trkpt lat="44.85302" lon="0.82419">
        <ele>80.41</ele>
        <time>2013-12-21T15:23:26Z</time>
      </trkpt>
      <trkpt lat="44.85295" lon="0.82372">
        <ele>78.48</ele>
        <time>2013-12-21T15:23:53Z</time>
      </trkpt>
      <trkpt lat="44.85284" lon="0.82333">
        <ele>78.48</ele>
        <time>2013-12-21T15:24:17Z</time>
      </trkpt>
      <trkpt lat="44.85289" lon="0.82241">
        <ele>81.37</ele>
        <time>2013-12-21T15:25:11Z</time>
      </trkpt>
      <trkpt lat="44.85293" lon="0.82226">
        <ele>79.45</ele>
        <time>2013-12-21T15:25:23Z</time>
      </trkpt>
      <trkpt lat="44.85314" lon="0.82196">
        <ele>78.97</ele>
        <time>2013-12-21T15:25:51Z</time>
      </trkpt>
      <trkpt lat="44.85334" lon="0.82153">
        <ele>77.04</ele>
        <time>2013-12-21T15:26:24Z</time>
      </trkpt>
      <trkpt lat="44.8534" lon="0.8214">
        <ele>77.04</ele>
        <time>2013-12-21T15:26:34Z</time>
      </trkpt>
      <trkpt lat="44.85364" lon="0.82078">
        <ele>77.04</ele>
        <time>2013-12-21T15:27:13Z</time>
      </trkpt>
      <trkpt lat="44.85366" lon="0.82056">
        <ele>77.04</ele>
        <time>2013-12-21T15:27:27Z</time>
      </trkpt>
      <trkpt lat="44.85405" lon="0.8196">
        <ele>78.48</ele>
        <time>2013-12-21T15:28:34Z</time>
      </trkpt>
      <trkpt lat="44.85405" lon="0.81951">
        <ele>78.97</ele>
        <time>2013-12-21T15:28:40Z</time>
      </trkpt>
      <trkpt lat="44.8539" lon="0.81947">
        <ele>80.89</ele>
        <time>2013-12-21T15:28:54Z</time>
      </trkpt>
      <trkpt lat="44.85381" lon="0.81945">
        <ele>80.41</ele>
        <time>2013-12-21T15:29:02Z</time>
      </trkpt>
      <trkpt lat="44.85377" lon="0.81945">
        <ele>82.33</ele>
        <time>2013-12-21T15:29:05Z</time>
      </trkpt>
      <trkpt lat="44.8534" lon="0.8193">
        <ele>84.25</ele>
        <time>2013-12-21T15:29:41Z</time>
      </trkpt>
      <trkpt lat="44.85325" lon="0.81925">
        <ele>86.66</ele>
        <time>2013-12-21T15:29:58Z</time>
      </trkpt>
      <trkpt lat="44.85276" lon="0.81906">
        <ele>88.58</ele>
        <time>2013-12-21T15:30:48Z</time>
      </trkpt>
      <trkpt lat="44.85246" lon="0.81891">
        <ele>90.02</ele>
        <time>2013-12-21T15:31:30Z</time>
      </trkpt>
      <trkpt lat="44.85233" lon="0.81883">
        <ele>90.5</ele>
        <time>2013-12-21T15:31:44Z</time>
      </trkpt>
      <trkpt lat="44.85207" lon="0.8185">
        <ele>93.39</ele>
        <time>2013-12-21T15:32:12Z</time>
      </trkpt>
      <trkpt lat="44.85171" lon="0.81799">
        <ele>100.11</ele>
        <time>2013-12-21T15:33:01Z</time>
      </trkpt>
      <trkpt lat="44.85173" lon="0.81775">
        <ele>101.56</ele>
        <time>2013-12-21T15:34:17Z</time>
      </trkpt>
      <trkpt lat="44.85216" lon="0.81726">
        <ele>100.6</ele>
        <time>2013-12-21T15:35:05Z</time>
      </trkpt>
      <trkpt lat="44.8528" lon="0.8167">
        <ele>100.6</ele>
        <time>2013-12-21T15:36:04Z</time>
      </trkpt>
      <trkpt lat="44.85297" lon="0.81664">
        <ele>99.63</ele>
        <time>2013-12-21T15:36:19Z</time>
      </trkpt>
      <trkpt lat="44.85336" lon="0.81631">
        <ele>100.6</ele>
        <time>2013-12-21T15:36:56Z</time>
      </trkpt>
      <trkpt lat="44.85351" lon="0.81625">
        <ele>100.6</ele>
        <time>2013-12-21T15:37:10Z</time>
      </trkpt>
      <trkpt lat="44.85383" lon="0.81595">
        <ele>102.04</ele>
        <time>2013-12-21T15:37:42Z</time>
      </trkpt>
      <trkpt lat="44.8542" lon="0.81554">
        <ele>101.56</ele>
        <time>2013-12-21T15:38:17Z</time>
      </trkpt>
      <trkpt lat="44.85441" lon="0.8152">
        <ele>101.08</ele>
        <time>2013-12-21T15:38:43Z</time>
      </trkpt>
      <trkpt lat="44.85471" lon="0.81481">
        <ele>100.6</ele>
        <time>2013-12-21T15:39:15Z</time>
      </trkpt>
      <trkpt lat="44.8549" lon="0.81464">
        <ele>98.67</ele>
        <time>2013-12-21T15:39:33Z</time>
      </trkpt>
      <trkpt lat="44.85542" lon="0.81413">
        <ele>95.79</ele>
        <time>2013-12-21T15:40:24Z</time>
      </trkpt>
      <trkpt lat="44.85538" lon="0.81389">
        <ele>92.42</ele>
        <time>2013-12-21T15:40:38Z</time>
      </trkpt>
      <trkpt lat="44.85525" lon="0.81344">
        <ele>86.66</ele>
        <time>2013-12-21T15:41:05Z</time>
      </trkpt>
      <trkpt lat="44.8552" lon="0.81327">
        <ele>83.29</ele>
        <time>2013-12-21T15:41:15Z</time>
      </trkpt>
      <trkpt lat="44.85516" lon="0.81314">
        <ele>83.77</ele>
        <time>2013-12-21T15:41:24Z</time>
      </trkpt>
      <trkpt lat="44.8551" lon="0.81286">
        <ele>81.85</ele>
        <time>2013-12-21T15:41:43Z</time>
      </trkpt>
      <trkpt lat="44.85508" lon="0.81275">
        <ele>78.97</ele>
        <time>2013-12-21T15:41:50Z</time>
      </trkpt>
      <trkpt lat="44.85503" lon="0.81265">
        <ele>78.48</ele>
        <time>2013-12-21T15:41:57Z</time>
      </trkpt>
      <trkpt lat="44.85503" lon="0.8126">
        <ele>76.56</ele>
        <time>2013-12-21T15:42:01Z</time>
      </trkpt>
      <trkpt lat="44.85531" lon="0.81243">
        <ele>75.6</ele>
        <time>2013-12-21T15:42:26Z</time>
      </trkpt>
      <trkpt lat="44.85546" lon="0.81232">
        <ele>73.68</ele>
        <time>2013-12-21T15:42:40Z</time>
      </trkpt>
      <trkpt lat="44.85555" lon="0.81224">
        <ele>73.68</ele>
        <time>2013-12-21T15:42:50Z</time>
      </trkpt>
      <trkpt lat="44.85555" lon="0.81222">
        <ele>72.24</ele>
        <time>2013-12-21T15:42:53Z</time>
      </trkpt>
      <trkpt lat="44.85555" lon="0.81211">
        <ele>72.72</ele>
        <time>2013-12-21T15:43:00Z</time>
      </trkpt>
      <trkpt lat="44.85546" lon="0.81181">
        <ele>71.27</ele>
        <time>2013-12-21T15:43:42Z</time>
      </trkpt>
      <trkpt lat="44.8554" lon="0.81181">
        <ele>70.79</ele>
        <time>2013-12-21T15:43:47Z</time>
      </trkpt>
      <trkpt lat="44.85527" lon="0.81194">
        <ele>70.31</ele>
        <time>2013-12-21T15:44:08Z</time>
      </trkpt>
    </trkseg>
  </trk>
  <trk>
    <name><![CDATA[THENAC: 26 DEC 2013 14:01]]></name>
    <trkseg>
      <trkpt lat="44.75002" lon="0.34113">
        <ele>166.93</ele>
        <time>2013-12-26T13:01:33Z</time>
      </trkpt>
      <trkpt lat="44.75002" lon="0.34113">
        <ele>170.29</ele>
        <time>2013-12-26T13:01:38Z</time>
      </trkpt>
      <trkpt lat="44.74998" lon="0.3412">
        <ele>168.85</ele>
        <time>2013-12-26T13:01:51Z</time>
      </trkpt>
      <trkpt lat="44.75013" lon="0.34137">
        <ele>169.81</ele>
        <time>2013-12-26T13:02:09Z</time>
      </trkpt>
      <trkpt lat="44.75028" lon="0.34161">
        <ele>169.81</ele>
        <time>2013-12-26T13:03:00Z</time>
      </trkpt>
      <trkpt lat="44.75026" lon="0.34146">
        <ele>170.77</ele>
        <time>2013-12-26T13:03:25Z</time>
      </trkpt>
      <trkpt lat="44.75036" lon="0.3412">
        <ele>170.29</ele>
        <time>2013-12-26T13:03:43Z</time>
      </trkpt>
      <trkpt lat="44.75066" lon="0.34081">
        <ele>170.29</ele>
        <time>2013-12-26T13:04:18Z</time>
      </trkpt>
      <trkpt lat="44.75075" lon="0.34066">
        <ele>169.81</ele>
        <time>2013-12-26T13:04:32Z</time>
      </trkpt>
      <trkpt lat="44.75075" lon="0.3401">
        <ele>167.41</ele>
        <time>2013-12-26T13:05:05Z</time>
      </trkpt>
      <trkpt lat="44.75079" lon="0.33998">
        <ele>164.04</ele>
        <time>2013-12-26T13:05:18Z</time>
      </trkpt>
      <trkpt lat="44.75096" lon="0.33978">
        <ele>158.75</ele>
        <time>2013-12-26T13:05:40Z</time>
      </trkpt>
      <trkpt lat="44.75116" lon="0.33948">
        <ele>151.06</ele>
        <time>2013-12-26T13:06:08Z</time>
      </trkpt>
      <trkpt lat="44.7512" lon="0.33925">
        <ele>146.26</ele>
        <time>2013-12-26T13:06:26Z</time>
      </trkpt>
      <trkpt lat="44.75137" lon="0.33899">
        <ele>141.45</ele>
        <time>2013-12-26T13:07:02Z</time>
      </trkpt>
      <trkpt lat="44.75163" lon="0.33938">
        <ele>142.41</ele>
        <time>2013-12-26T13:07:55Z</time>
      </trkpt>
      <trkpt lat="44.75176" lon="0.33944">
        <ele>141.93</ele>
        <time>2013-12-26T13:08:08Z</time>
      </trkpt>
      <trkpt lat="44.75182" lon="0.33961">
        <ele>142.41</ele>
        <time>2013-12-26T13:08:22Z</time>
      </trkpt>
      <trkpt lat="44.75193" lon="0.33976">
        <ele>141.45</ele>
        <time>2013-12-26T13:08:40Z</time>
      </trkpt>
      <trkpt lat="44.75204" lon="0.34006">
        <ele>140.49</ele>
        <time>2013-12-26T13:09:05Z</time>
      </trkpt>
      <trkpt lat="44.75264" lon="0.34075">
        <ele>136.16</ele>
        <time>2013-12-26T13:10:14Z</time>
      </trkpt>
      <trkpt lat="44.75285" lon="0.34105">
        <ele>135.68</ele>
        <time>2013-12-26T13:10:40Z</time>
      </trkpt>
      <trkpt lat="44.75322" lon="0.34143">
        <ele>140.01</ele>
        <time>2013-12-26T13:11:22Z</time>
      </trkpt>
      <trkpt lat="44.75337" lon="0.34154">
        <ele>140.49</ele>
        <time>2013-12-26T13:11:34Z</time>
      </trkpt>
      <trkpt lat="44.7535" lon="0.34163">
        <ele>143.85</ele>
        <time>2013-12-26T13:11:51Z</time>
      </trkpt>
      <trkpt lat="44.75362" lon="0.34178">
        <ele>146.26</ele>
        <time>2013-12-26T13:12:07Z</time>
      </trkpt>
      <trkpt lat="44.75388" lon="0.34201">
        <ele>152.51</ele>
        <time>2013-12-26T13:12:46Z</time>
      </trkpt>
      <trkpt lat="44.75403" lon="0.34212">
        <ele>157.31</ele>
        <time>2013-12-26T13:13:18Z</time>
      </trkpt>
      <trkpt lat="44.75438" lon="0.34223">
        <ele>165.96</ele>
        <time>2013-12-26T13:14:00Z</time>
      </trkpt>
      <trkpt lat="44.75453" lon="0.34225">
        <ele>169.33</ele>
        <time>2013-12-26T13:14:15Z</time>
      </trkpt>
      <trkpt lat="44.75459" lon="0.34221">
        <ele>167.41</ele>
        <time>2013-12-26T13:14:21Z</time>
      </trkpt>
      <trkpt lat="44.75468" lon="0.34212">
        <ele>169.33</ele>
        <time>2013-12-26T13:14:33Z</time>
      </trkpt>
      <trkpt lat="44.75489" lon="0.34219">
        <ele>169.81</ele>
        <time>2013-12-26T13:14:56Z</time>
      </trkpt>
      <trkpt lat="44.75493" lon="0.34225">
        <ele>169.81</ele>
        <time>2013-12-26T13:15:06Z</time>
      </trkpt>
      <trkpt lat="44.75498" lon="0.34238">
        <ele>170.29</ele>
        <time>2013-12-26T13:15:30Z</time>
      </trkpt>
      <trkpt lat="44.75498" lon="0.34227">
        <ele>170.77</ele>
        <time>2013-12-26T13:15:48Z</time>
      </trkpt>
      <trkpt lat="44.75495" lon="0.34227">
        <ele>169.33</ele>
        <time>2013-12-26T13:17:15Z</time>
      </trkpt>
      <trkpt lat="44.75498" lon="0.34227">
        <ele>170.77</ele>
        <time>2013-12-26T13:17:34Z</time>
      </trkpt>
      <trkpt lat="44.75502" lon="0.34259">
        <ele>171.73</ele>
        <time>2013-12-26T13:18:33Z</time>
      </trkpt>
      <trkpt lat="44.75502" lon="0.34309">
        <ele>172.69</ele>
        <time>2013-12-26T13:19:01Z</time>
      </trkpt>
      <trkpt lat="44.75506" lon="0.34334">
        <ele>173.17</ele>
        <time>2013-12-26T13:19:20Z</time>
      </trkpt>
      <trkpt lat="44.7551" lon="0.34369">
        <ele>174.14</ele>
        <time>2013-12-26T13:19:49Z</time>
      </trkpt>
      <trkpt lat="44.75521" lon="0.34373">
        <ele>175.1</ele>
        <time>2013-12-26T13:20:00Z</time>
      </trkpt>
      <trkpt lat="44.75556" lon="0.34371">
        <ele>175.1</ele>
        <time>2013-12-26T13:20:28Z</time>
      </trkpt>
      <trkpt lat="44.75601" lon="0.34433">
        <ele>173.66</ele>
        <time>2013-12-26T13:21:20Z</time>
      </trkpt>
      <trkpt lat="44.75633" lon="0.34474">
        <ele>170.29</ele>
        <time>2013-12-26T13:21:53Z</time>
      </trkpt>
      <trkpt lat="44.75661" lon="0.34508">
        <ele>169.81</ele>
        <time>2013-12-26T13:22:23Z</time>
      </trkpt>
      <trkpt lat="44.75686" lon="0.3451">
        <ele>171.25</ele>
        <time>2013-12-26T13:22:43Z</time>
      </trkpt>
      <trkpt lat="44.75686" lon="0.34502">
        <ele>170.29</ele>
        <time>2013-12-26T13:22:54Z</time>
      </trkpt>
      <trkpt lat="44.75689" lon="0.34508">
        <ele>170.77</ele>
        <time>2013-12-26T13:23:01Z</time>
      </trkpt>
      <trkpt lat="44.75693" lon="0.3451">
        <ele>170.29</ele>
        <time>2013-12-26T13:23:04Z</time>
      </trkpt>
      <trkpt lat="44.75719" lon="0.34508">
        <ele>171.73</ele>
        <time>2013-12-26T13:23:22Z</time>
      </trkpt>
      <trkpt lat="44.75746" lon="0.34515">
        <ele>172.21</ele>
        <time>2013-12-26T13:23:42Z</time>
      </trkpt>
      <trkpt lat="44.7577" lon="0.34519">
        <ele>173.17</ele>
        <time>2013-12-26T13:24:02Z</time>
      </trkpt>
      <trkpt lat="44.75809" lon="0.34523">
        <ele>173.17</ele>
        <time>2013-12-26T13:24:33Z</time>
      </trkpt>
      <trkpt lat="44.75813" lon="0.34521">
        <ele>173.66</ele>
        <time>2013-12-26T13:24:37Z</time>
      </trkpt>
      <trkpt lat="44.75884" lon="0.34528">
        <ele>172.21</ele>
        <time>2013-12-26T13:25:30Z</time>
      </trkpt>
      <trkpt lat="44.75916" lon="0.34532">
        <ele>173.66</ele>
        <time>2013-12-26T13:25:53Z</time>
      </trkpt>
      <trkpt lat="44.76008" lon="0.34543">
        <ele>173.17</ele>
        <time>2013-12-26T13:27:01Z</time>
      </trkpt>
      <trkpt lat="44.76043" lon="0.34545">
        <ele>171.25</ele>
        <time>2013-12-26T13:28:55Z</time>
      </trkpt>
      <trkpt lat="44.76032" lon="0.3454">
        <ele>172.21</ele>
        <time>2013-12-26T13:29:55Z</time>
      </trkpt>
      <trkpt lat="44.76049" lon="0.34549">
        <ele>170.29</ele>
        <time>2013-12-26T13:30:10Z</time>
      </trkpt>
      <trkpt lat="44.76068" lon="0.34564">
        <ele>168.85</ele>
        <time>2013-12-26T13:30:27Z</time>
      </trkpt>
      <trkpt lat="44.76079" lon="0.34564">
        <ele>166.93</ele>
        <time>2013-12-26T13:30:42Z</time>
      </trkpt>
      <trkpt lat="44.76073" lon="0.34558">
        <ele>167.41</ele>
        <time>2013-12-26T13:31:35Z</time>
      </trkpt>
      <trkpt lat="44.76073" lon="0.34555">
        <ele>167.41</ele>
        <time>2013-12-26T13:33:00Z</time>
      </trkpt>
      <trkpt lat="44.76071" lon="0.34555">
        <ele>168.37</ele>
        <time>2013-12-26T13:33:15Z</time>
      </trkpt>
      <trkpt lat="44.76075" lon="0.34553">
        <ele>166.93</ele>
        <time>2013-12-26T13:33:27Z</time>
      </trkpt>
      <trkpt lat="44.76077" lon="0.34549">
        <ele>167.41</ele>
        <time>2013-12-26T13:34:02Z</time>
      </trkpt>
      <trkpt lat="44.76073" lon="0.34555">
        <ele>168.37</ele>
        <time>2013-12-26T13:34:18Z</time>
      </trkpt>
      <trkpt lat="44.76077" lon="0.34553">
        <ele>166.93</ele>
        <time>2013-12-26T13:34:39Z</time>
      </trkpt>
      <trkpt lat="44.76073" lon="0.34555">
        <ele>168.85</ele>
        <time>2013-12-26T13:35:28Z</time>
      </trkpt>
      <trkpt lat="44.76077" lon="0.34551">
        <ele>167.89</ele>
        <time>2013-12-26T13:36:02Z</time>
      </trkpt>
      <trkpt lat="44.76071" lon="0.34555">
        <ele>167.41</ele>
        <time>2013-12-26T13:36:34Z</time>
      </trkpt>
      <trkpt lat="44.76071" lon="0.3456">
        <ele>168.37</ele>
        <time>2013-12-26T13:38:45Z</time>
      </trkpt>
      <trkpt lat="44.76075" lon="0.34562">
        <ele>167.89</ele>
        <time>2013-12-26T13:39:09Z</time>
      </trkpt>
      <trkpt lat="44.76079" lon="0.34562">
        <ele>166.45</ele>
        <time>2013-12-26T13:39:19Z</time>
      </trkpt>
      <trkpt lat="44.76092" lon="0.34568">
        <ele>164.04</ele>
        <time>2013-12-26T13:39:35Z</time>
      </trkpt>
      <trkpt lat="44.76118" lon="0.34575">
        <ele>159.24</ele>
        <time>2013-12-26T13:40:02Z</time>
      </trkpt>
      <trkpt lat="44.76124" lon="0.34579">
        <ele>155.39</ele>
        <time>2013-12-26T13:40:15Z</time>
      </trkpt>
      <trkpt lat="44.76154" lon="0.34598">
        <ele>149.62</ele>
        <time>2013-12-26T13:40:42Z</time>
      </trkpt>
      <trkpt lat="44.76167" lon="0.34609">
        <ele>147.22</ele>
        <time>2013-12-26T13:40:56Z</time>
      </trkpt>
      <trkpt lat="44.7618" lon="0.34626">
        <ele>145.78</ele>
        <time>2013-12-26T13:41:13Z</time>
      </trkpt>
      <trkpt lat="44.76204" lon="0.3465">
        <ele>141.45</ele>
        <time>2013-12-26T13:41:37Z</time>
      </trkpt>
      <trkpt lat="44.76214" lon="0.34663">
        <ele>139.53</ele>
        <time>2013-12-26T13:41:50Z</time>
      </trkpt>
      <trkpt lat="44.76231" lon="0.34676">
        <ele>138.57</ele>
        <time>2013-12-26T13:42:06Z</time>
      </trkpt>
      <trkpt lat="44.76283" lon="0.3474">
        <ele>131.36</ele>
        <time>2013-12-26T13:43:06Z</time>
      </trkpt>
      <trkpt lat="44.763" lon="0.34755">
        <ele>129.92</ele>
        <time>2013-12-26T13:43:24Z</time>
      </trkpt>
      <trkpt lat="44.76304" lon="0.34753">
        <ele>132.32</ele>
        <time>2013-12-26T13:43:33Z</time>
      </trkpt>
      <trkpt lat="44.76328" lon="0.34706">
        <ele>129.43</ele>
        <time>2013-12-26T13:44:14Z</time>
      </trkpt>
      <trkpt lat="44.76341" lon="0.34658">
        <ele>129.92</ele>
        <time>2013-12-26T13:44:45Z</time>
      </trkpt>
      <trkpt lat="44.76347" lon="0.34643">
        <ele>128.95</ele>
        <time>2013-12-26T13:44:58Z</time>
      </trkpt>
      <trkpt lat="44.7636" lon="0.34622">
        <ele>129.92</ele>
        <time>2013-12-26T13:45:16Z</time>
      </trkpt>
      <trkpt lat="44.76379" lon="0.34598">
        <ele>127.51</ele>
        <time>2013-12-26T13:45:38Z</time>
      </trkpt>
      <trkpt lat="44.76392" lon="0.3454">
        <ele>127.03</ele>
        <time>2013-12-26T13:46:14Z</time>
      </trkpt>
      <trkpt lat="44.76405" lon="0.34508">
        <ele>128.47</ele>
        <time>2013-12-26T13:46:37Z</time>
      </trkpt>
      <trkpt lat="44.76433" lon="0.34468">
        <ele>129.92</ele>
        <time>2013-12-26T13:47:12Z</time>
      </trkpt>
      <trkpt lat="44.76461" lon="0.34437">
        <ele>129.92</ele>
        <time>2013-12-26T13:47:46Z</time>
      </trkpt>
      <trkpt lat="44.76467" lon="0.34433">
        <ele>129.92</ele>
        <time>2013-12-26T13:47:54Z</time>
      </trkpt>
      <trkpt lat="44.76472" lon="0.34412">
        <ele>130.4</ele>
        <time>2013-12-26T13:48:11Z</time>
      </trkpt>
      <trkpt lat="44.76472" lon="0.34395">
        <ele>131.84</ele>
        <time>2013-12-26T13:48:23Z</time>
      </trkpt>
      <trkpt lat="44.76476" lon="0.34382">
        <ele>130.88</ele>
        <time>2013-12-26T13:48:43Z</time>
      </trkpt>
      <trkpt lat="44.76467" lon="0.34369">
        <ele>131.36</ele>
        <time>2013-12-26T13:49:23Z</time>
      </trkpt>
      <trkpt lat="44.76482" lon="0.34326">
        <ele>131.84</ele>
        <time>2013-12-26T13:50:01Z</time>
      </trkpt>
      <trkpt lat="44.7648" lon="0.34311">
        <ele>132.32</ele>
        <time>2013-12-26T13:50:13Z</time>
      </trkpt>
      <trkpt lat="44.76482" lon="0.34296">
        <ele>132.8</ele>
        <time>2013-12-26T13:50:29Z</time>
      </trkpt>
      <trkpt lat="44.76487" lon="0.34272">
        <ele>134.24</ele>
        <time>2013-12-26T13:50:46Z</time>
      </trkpt>
      <trkpt lat="44.76493" lon="0.34262">
        <ele>133.76</ele>
        <time>2013-12-26T13:50:54Z</time>
      </trkpt>
      <trkpt lat="44.76498" lon="0.34251">
        <ele>133.28</ele>
        <time>2013-12-26T13:51:06Z</time>
      </trkpt>
      <trkpt lat="44.76502" lon="0.34199">
        <ele>133.76</ele>
        <time>2013-12-26T13:51:38Z</time>
      </trkpt>
      <trkpt lat="44.76508" lon="0.34159">
        <ele>131.84</ele>
        <time>2013-12-26T13:52:04Z</time>
      </trkpt>
      <trkpt lat="44.7651" lon="0.34133">
        <ele>131.36</ele>
        <time>2013-12-26T13:52:18Z</time>
      </trkpt>
      <trkpt lat="44.76506" lon="0.34113">
        <ele>129.92</ele>
        <time>2013-12-26T13:52:31Z</time>
      </trkpt>
      <trkpt lat="44.76517" lon="0.34118">
        <ele>129.92</ele>
        <time>2013-12-26T13:52:55Z</time>
      </trkpt>
      <trkpt lat="44.76532" lon="0.34128">
        <ele>128.47</ele>
        <time>2013-12-26T13:53:34Z</time>
      </trkpt>
      <trkpt lat="44.76551" lon="0.34131">
        <ele>127.03</ele>
        <time>2013-12-26T13:54:04Z</time>
      </trkpt>
      <trkpt lat="44.76555" lon="0.34122">
        <ele>128.47</ele>
        <time>2013-12-26T13:54:16Z</time>
      </trkpt>
      <trkpt lat="44.76577" lon="0.34128">
        <ele>127.51</ele>
        <time>2013-12-26T13:54:37Z</time>
      </trkpt>
      <trkpt lat="44.76592" lon="0.34131">
        <ele>127.03</ele>
        <time>2013-12-26T13:54:51Z</time>
      </trkpt>
      <trkpt lat="44.76618" lon="0.34124">
        <ele>125.11</ele>
        <time>2013-12-26T13:55:13Z</time>
      </trkpt>
      <trkpt lat="44.76624" lon="0.3412">
        <ele>125.59</ele>
        <time>2013-12-26T13:55:19Z</time>
      </trkpt>
      <trkpt lat="44.76622" lon="0.34109">
        <ele>126.55</ele>
        <time>2013-12-26T13:55:26Z</time>
      </trkpt>
      <trkpt lat="44.76624" lon="0.34088">
        <ele>125.59</ele>
        <time>2013-12-26T13:55:39Z</time>
      </trkpt>
      <trkpt lat="44.76626" lon="0.34062">
        <ele>126.55</ele>
        <time>2013-12-26T13:55:56Z</time>
      </trkpt>
      <trkpt lat="44.76626" lon="0.34043">
        <ele>125.59</ele>
        <time>2013-12-26T13:56:08Z</time>
      </trkpt>
      <trkpt lat="44.76628" lon="0.33995">
        <ele>123.19</ele>
        <time>2013-12-26T13:56:37Z</time>
      </trkpt>
      <trkpt lat="44.76637" lon="0.33974">
        <ele>122.71</ele>
        <time>2013-12-26T13:56:53Z</time>
      </trkpt>
      <trkpt lat="44.76658" lon="0.33938">
        <ele>123.19</ele>
        <time>2013-12-26T13:57:23Z</time>
      </trkpt>
      <trkpt lat="44.76661" lon="0.33914">
        <ele>122.71</ele>
        <time>2013-12-26T13:57:38Z</time>
      </trkpt>
      <trkpt lat="44.76654" lon="0.33903">
        <ele>122.71</ele>
        <time>2013-12-26T13:57:50Z</time>
      </trkpt>
      <trkpt lat="44.76648" lon="0.33888">
        <ele>124.63</ele>
        <time>2013-12-26T13:58:01Z</time>
      </trkpt>
      <trkpt lat="44.76646" lon="0.33873">
        <ele>126.55</ele>
        <time>2013-12-26T13:58:11Z</time>
      </trkpt>
      <trkpt lat="44.76648" lon="0.33867">
        <ele>126.55</ele>
        <time>2013-12-26T13:58:16Z</time>
      </trkpt>
      <trkpt lat="44.76639" lon="0.33845">
        <ele>129.43</ele>
        <time>2013-12-26T13:58:33Z</time>
      </trkpt>
      <trkpt lat="44.76637" lon="0.33839">
        <ele>128.95</ele>
        <time>2013-12-26T13:58:37Z</time>
      </trkpt>
      <trkpt lat="44.76637" lon="0.33835">
        <ele>125.11</ele>
        <time>2013-12-26T13:58:43Z</time>
      </trkpt>
      <trkpt lat="44.76635" lon="0.33832">
        <ele>129.92</ele>
        <time>2013-12-26T13:58:45Z</time>
      </trkpt>
      <trkpt lat="44.76626" lon="0.33811">
        <ele>132.8</ele>
        <time>2013-12-26T13:59:03Z</time>
      </trkpt>
      <trkpt lat="44.76622" lon="0.33794">
        <ele>133.28</ele>
        <time>2013-12-26T13:59:17Z</time>
      </trkpt>
      <trkpt lat="44.76611" lon="0.33719">
        <ele>138.57</ele>
        <time>2013-12-26T14:00:07Z</time>
      </trkpt>
      <trkpt lat="44.76607" lon="0.33697">
        <ele>140.01</ele>
        <time>2013-12-26T14:00:22Z</time>
      </trkpt>
      <trkpt lat="44.76601" lon="0.33693">
        <ele>140.49</ele>
        <time>2013-12-26T14:00:38Z</time>
      </trkpt>
      <trkpt lat="44.76585" lon="0.33697">
        <ele>140.97</ele>
        <time>2013-12-26T14:01:58Z</time>
      </trkpt>
      <trkpt lat="44.76575" lon="0.33706">
        <ele>141.45</ele>
        <time>2013-12-26T14:02:12Z</time>
      </trkpt>
      <trkpt lat="44.7656" lon="0.33708">
        <ele>142.41</ele>
        <time>2013-12-26T14:02:26Z</time>
      </trkpt>
      <trkpt lat="44.7654" lon="0.33716">
        <ele>142.89</ele>
        <time>2013-12-26T14:02:45Z</time>
      </trkpt>
      <trkpt lat="44.76528" lon="0.33729">
        <ele>143.85</ele>
        <time>2013-12-26T14:03:00Z</time>
      </trkpt>
      <trkpt lat="44.76478" lon="0.33759">
        <ele>141.93</ele>
        <time>2013-12-26T14:03:46Z</time>
      </trkpt>
      <trkpt lat="44.76431" lon="0.33742">
        <ele>143.85</ele>
        <time>2013-12-26T14:04:28Z</time>
      </trkpt>
      <trkpt lat="44.76418" lon="0.3374">
        <ele>142.41</ele>
        <time>2013-12-26T14:04:40Z</time>
      </trkpt>
      <trkpt lat="44.76379" lon="0.33727">
        <ele>142.41</ele>
        <time>2013-12-26T14:05:18Z</time>
      </trkpt>
      <trkpt lat="44.76358" lon="0.33723">
        <ele>143.37</ele>
        <time>2013-12-26T14:05:38Z</time>
      </trkpt>
      <trkpt lat="44.76352" lon="0.33727">
        <ele>143.85</ele>
        <time>2013-12-26T14:06:20Z</time>
      </trkpt>
      <trkpt lat="44.76358" lon="0.33725">
        <ele>142.89</ele>
        <time>2013-12-26T14:06:49Z</time>
      </trkpt>
      <trkpt lat="44.76356" lon="0.33723">
        <ele>142.89</ele>
        <time>2013-12-26T14:06:59Z</time>
      </trkpt>
      <trkpt lat="44.76339" lon="0.33721">
        <ele>144.82</ele>
        <time>2013-12-26T14:07:13Z</time>
      </trkpt>
      <trkpt lat="44.76324" lon="0.33725">
        <ele>147.22</ele>
        <time>2013-12-26T14:07:29Z</time>
      </trkpt>
      <trkpt lat="44.76309" lon="0.33734">
        <ele>149.62</ele>
        <time>2013-12-26T14:07:43Z</time>
      </trkpt>
      <trkpt lat="44.76292" lon="0.33766">
        <ele>151.54</ele>
        <time>2013-12-26T14:08:10Z</time>
      </trkpt>
      <trkpt lat="44.76276" lon="0.3377">
        <ele>154.43</ele>
        <time>2013-12-26T14:08:27Z</time>
      </trkpt>
      <trkpt lat="44.76261" lon="0.33796">
        <ele>155.87</ele>
        <time>2013-12-26T14:08:51Z</time>
      </trkpt>
      <trkpt lat="44.76259" lon="0.33804">
        <ele>156.35</ele>
        <time>2013-12-26T14:08:57Z</time>
      </trkpt>
      <trkpt lat="44.76246" lon="0.33809">
        <ele>160.68</ele>
        <time>2013-12-26T14:09:21Z</time>
      </trkpt>
      <trkpt lat="44.76229" lon="0.33809">
        <ele>162.6</ele>
        <time>2013-12-26T14:09:43Z</time>
      </trkpt>
      <trkpt lat="44.76227" lon="0.33811">
        <ele>163.08</ele>
        <time>2013-12-26T14:09:59Z</time>
      </trkpt>
      <trkpt lat="44.76216" lon="0.33845">
        <ele>162.6</ele>
        <time>2013-12-26T14:12:31Z</time>
      </trkpt>
      <trkpt lat="44.76214" lon="0.33892">
        <ele>163.56</ele>
        <time>2013-12-26T14:13:09Z</time>
      </trkpt>
      <trkpt lat="44.76212" lon="0.3389">
        <ele>164.52</ele>
        <time>2013-12-26T14:13:26Z</time>
      </trkpt>
      <trkpt lat="44.76214" lon="0.33903">
        <ele>163.56</ele>
        <time>2013-12-26T14:13:53Z</time>
      </trkpt>
      <trkpt lat="44.76255" lon="0.33989">
        <ele>165.48</ele>
        <time>2013-12-26T14:14:57Z</time>
      </trkpt>
      <trkpt lat="44.76266" lon="0.34004">
        <ele>165</ele>
        <time>2013-12-26T14:15:17Z</time>
      </trkpt>
      <trkpt lat="44.76272" lon="0.34028">
        <ele>165.48</ele>
        <time>2013-12-26T14:15:34Z</time>
      </trkpt>
      <trkpt lat="44.76255" lon="0.34036">
        <ele>167.41</ele>
        <time>2013-12-26T14:15:51Z</time>
      </trkpt>
      <trkpt lat="44.76234" lon="0.34041">
        <ele>168.37</ele>
        <time>2013-12-26T14:16:16Z</time>
      </trkpt>
      <trkpt lat="44.76193" lon="0.34058">
        <ele>168.85</ele>
        <time>2013-12-26T14:16:52Z</time>
      </trkpt>
      <trkpt lat="44.7618" lon="0.34073">
        <ele>168.37</ele>
        <time>2013-12-26T14:17:07Z</time>
      </trkpt>
      <trkpt lat="44.76139" lon="0.34109">
        <ele>168.37</ele>
        <time>2013-12-26T14:17:55Z</time>
      </trkpt>
      <trkpt lat="44.76118" lon="0.3412">
        <ele>168.37</ele>
        <time>2013-12-26T14:18:14Z</time>
      </trkpt>
      <trkpt lat="44.76098" lon="0.34137">
        <ele>166.45</ele>
        <time>2013-12-26T14:18:32Z</time>
      </trkpt>
      <trkpt lat="44.76079" lon="0.3415">
        <ele>166.93</ele>
        <time>2013-12-26T14:18:49Z</time>
      </trkpt>
      <trkpt lat="44.76064" lon="0.34163">
        <ele>166.93</ele>
        <time>2013-12-26T14:19:03Z</time>
      </trkpt>
      <trkpt lat="44.76051" lon="0.34167">
        <ele>165.48</ele>
        <time>2013-12-26T14:19:17Z</time>
      </trkpt>
      <trkpt lat="44.76036" lon="0.34128">
        <ele>161.16</ele>
        <time>2013-12-26T14:19:49Z</time>
      </trkpt>
      <trkpt lat="44.76028" lon="0.34122">
        <ele>158.75</ele>
        <time>2013-12-26T14:20:03Z</time>
      </trkpt>
      <trkpt lat="44.76025" lon="0.34118">
        <ele>157.79</ele>
        <time>2013-12-26T14:20:11Z</time>
      </trkpt>
      <trkpt lat="44.76023" lon="0.34098">
        <ele>153.95</ele>
        <time>2013-12-26T14:20:29Z</time>
      </trkpt>
      <trkpt lat="44.76028" lon="0.34083">
        <ele>151.54</ele>
        <time>2013-12-26T14:20:43Z</time>
      </trkpt>
      <trkpt lat="44.7601" lon="0.34056">
        <ele>148.66</ele>
        <time>2013-12-26T14:21:11Z</time>
      </trkpt>
      <trkpt lat="44.76004" lon="0.34036">
        <ele>145.3</ele>
        <time>2013-12-26T14:21:24Z</time>
      </trkpt>
      <trkpt lat="44.75987" lon="0.34">
        <ele>141.93</ele>
        <time>2013-12-26T14:21:53Z</time>
      </trkpt>
      <trkpt lat="44.75978" lon="0.33974">
        <ele>140.97</ele>
        <time>2013-12-26T14:22:09Z</time>
      </trkpt>
      <trkpt lat="44.75968" lon="0.3391">
        <ele>132.32</ele>
        <time>2013-12-26T14:22:50Z</time>
      </trkpt>
      <trkpt lat="44.75961" lon="0.33858">
        <ele>127.51</ele>
        <time>2013-12-26T14:23:22Z</time>
      </trkpt>
      <trkpt lat="44.75959" lon="0.33837">
        <ele>126.07</ele>
        <time>2013-12-26T14:23:36Z</time>
      </trkpt>
      <trkpt lat="44.75963" lon="0.33811">
        <ele>124.63</ele>
        <time>2013-12-26T14:23:51Z</time>
      </trkpt>
      <trkpt lat="44.75985" lon="0.33721">
        <ele>121.26</ele>
        <time>2013-12-26T14:24:49Z</time>
      </trkpt>
      <trkpt lat="44.75987" lon="0.33719">
        <ele>120.3</ele>
        <time>2013-12-26T14:24:53Z</time>
      </trkpt>
      <trkpt lat="44.75991" lon="0.33674">
        <ele>118.86</ele>
        <time>2013-12-26T14:25:21Z</time>
      </trkpt>
      <trkpt lat="44.75993" lon="0.33656">
        <ele>116.94</ele>
        <time>2013-12-26T14:25:33Z</time>
      </trkpt>
      <trkpt lat="44.7598" lon="0.33613">
        <ele>115.01</ele>
        <time>2013-12-26T14:26:00Z</time>
      </trkpt>
      <trkpt lat="44.75978" lon="0.33596">
        <ele>114.05</ele>
        <time>2013-12-26T14:26:13Z</time>
      </trkpt>
      <trkpt lat="44.75983" lon="0.33588">
        <ele>113.57</ele>
        <time>2013-12-26T14:26:27Z</time>
      </trkpt>
      <trkpt lat="44.75976" lon="0.3356">
        <ele>114.53</ele>
        <time>2013-12-26T14:26:45Z</time>
      </trkpt>
      <trkpt lat="44.7597" lon="0.33521">
        <ele>114.05</ele>
        <time>2013-12-26T14:27:08Z</time>
      </trkpt>
      <trkpt lat="44.7597" lon="0.33491">
        <ele>115.98</ele>
        <time>2013-12-26T14:27:27Z</time>
      </trkpt>
      <trkpt lat="44.75946" lon="0.33416">
        <ele>114.53</ele>
        <time>2013-12-26T14:28:29Z</time>
      </trkpt>
      <trkpt lat="44.75952" lon="0.33392">
        <ele>113.09</ele>
        <time>2013-12-26T14:28:44Z</time>
      </trkpt>
      <trkpt lat="44.75955" lon="0.33371">
        <ele>113.57</ele>
        <time>2013-12-26T14:28:59Z</time>
      </trkpt>
      <trkpt lat="44.75946" lon="0.33347">
        <ele>110.21</ele>
        <time>2013-12-26T14:29:15Z</time>
      </trkpt>
      <trkpt lat="44.75927" lon="0.33328">
        <ele>107.81</ele>
        <time>2013-12-26T14:29:32Z</time>
      </trkpt>
      <trkpt lat="44.75914" lon="0.33307">
        <ele>106.84</ele>
        <time>2013-12-26T14:29:53Z</time>
      </trkpt>
      <trkpt lat="44.75905" lon="0.33268">
        <ele>108.29</ele>
        <time>2013-12-26T14:30:17Z</time>
      </trkpt>
      <trkpt lat="44.75888" lon="0.33221">
        <ele>110.69</ele>
        <time>2013-12-26T14:30:46Z</time>
      </trkpt>
      <trkpt lat="44.75852" lon="0.33141">
        <ele>112.13</ele>
        <time>2013-12-26T14:31:39Z</time>
      </trkpt>
      <trkpt lat="44.75817" lon="0.33088">
        <ele>115.5</ele>
        <time>2013-12-26T14:32:16Z</time>
      </trkpt>
      <trkpt lat="44.75802" lon="0.33066">
        <ele>116.94</ele>
        <time>2013-12-26T14:32:33Z</time>
      </trkpt>
      <trkpt lat="44.75785" lon="0.33043">
        <ele>117.42</ele>
        <time>2013-12-26T14:32:53Z</time>
      </trkpt>
      <trkpt lat="44.75768" lon="0.33028">
        <ele>115.5</ele>
        <time>2013-12-26T14:33:09Z</time>
      </trkpt>
      <trkpt lat="44.75749" lon="0.33023">
        <ele>117.42</ele>
        <time>2013-12-26T14:33:24Z</time>
      </trkpt>
      <trkpt lat="44.75731" lon="0.33028">
        <ele>117.9</ele>
        <time>2013-12-26T14:33:39Z</time>
      </trkpt>
      <trkpt lat="44.75704" lon="0.33026">
        <ele>118.86</ele>
        <time>2013-12-26T14:34:01Z</time>
      </trkpt>
      <trkpt lat="44.75697" lon="0.33019">
        <ele>117.9</ele>
        <time>2013-12-26T14:34:07Z</time>
      </trkpt>
      <trkpt lat="44.75686" lon="0.33004">
        <ele>120.3</ele>
        <time>2013-12-26T14:34:24Z</time>
      </trkpt>
      <trkpt lat="44.75641" lon="0.32938">
        <ele>121.26</ele>
        <time>2013-12-26T14:35:16Z</time>
      </trkpt>
      <trkpt lat="44.75628" lon="0.32923">
        <ele>123.67</ele>
        <time>2013-12-26T14:35:33Z</time>
      </trkpt>
      <trkpt lat="44.75626" lon="0.32923">
        <ele>122.22</ele>
        <time>2013-12-26T14:37:23Z</time>
      </trkpt>
      <trkpt lat="44.75626" lon="0.32925">
        <ele>122.71</ele>
        <time>2013-12-26T14:38:08Z</time>
      </trkpt>
      <trkpt lat="44.75622" lon="0.32935">
        <ele>123.67</ele>
        <time>2013-12-26T14:38:53Z</time>
      </trkpt>
      <trkpt lat="44.75626" lon="0.32927">
        <ele>122.22</ele>
        <time>2013-12-26T14:40:05Z</time>
      </trkpt>
      <trkpt lat="44.75601" lon="0.32959">
        <ele>122.71</ele>
        <time>2013-12-26T14:42:25Z</time>
      </trkpt>
      <trkpt lat="44.75596" lon="0.32959">
        <ele>123.19</ele>
        <time>2013-12-26T14:42:32Z</time>
      </trkpt>
      <trkpt lat="44.75586" lon="0.32946">
        <ele>122.71</ele>
        <time>2013-12-26T14:42:47Z</time>
      </trkpt>
      <trkpt lat="44.75556" lon="0.32923">
        <ele>121.74</ele>
        <time>2013-12-26T14:43:19Z</time>
      </trkpt>
      <trkpt lat="44.75506" lon="0.32854">
        <ele>118.38</ele>
        <time>2013-12-26T14:44:18Z</time>
      </trkpt>
      <trkpt lat="44.75405" lon="0.32744">
        <ele>115.98</ele>
        <time>2013-12-26T14:46:09Z</time>
      </trkpt>
      <trkpt lat="44.75384" lon="0.32712">
        <ele>116.46</ele>
        <time>2013-12-26T14:46:36Z</time>
      </trkpt>
      <trkpt lat="44.75367" lon="0.32687">
        <ele>112.61</ele>
        <time>2013-12-26T14:47:01Z</time>
      </trkpt>
      <trkpt lat="44.75356" lon="0.32667">
        <ele>109.25</ele>
        <time>2013-12-26T14:47:18Z</time>
      </trkpt>
      <trkpt lat="44.7535" lon="0.32641">
        <ele>108.77</ele>
        <time>2013-12-26T14:47:35Z</time>
      </trkpt>
      <trkpt lat="44.75347" lon="0.32601">
        <ele>105.4</ele>
        <time>2013-12-26T14:47:59Z</time>
      </trkpt>
      <trkpt lat="44.75341" lon="0.32588">
        <ele>103.96</ele>
        <time>2013-12-26T14:48:11Z</time>
      </trkpt>
      <trkpt lat="44.75335" lon="0.32584">
        <ele>104.44</ele>
        <time>2013-12-26T14:48:17Z</time>
      </trkpt>
      <trkpt lat="44.7533" lon="0.32579">
        <ele>104.92</ele>
        <time>2013-12-26T14:48:28Z</time>
      </trkpt>
      <trkpt lat="44.75326" lon="0.32581">
        <ele>103.96</ele>
        <time>2013-12-26T14:50:06Z</time>
      </trkpt>
      <trkpt lat="44.75307" lon="0.32607">
        <ele>104.44</ele>
        <time>2013-12-26T14:50:26Z</time>
      </trkpt>
      <trkpt lat="44.75285" lon="0.32629">
        <ele>103</ele>
        <time>2013-12-26T14:50:46Z</time>
      </trkpt>
      <trkpt lat="44.75262" lon="0.32644">
        <ele>102.04</ele>
        <time>2013-12-26T14:51:09Z</time>
      </trkpt>
      <trkpt lat="44.75251" lon="0.32646">
        <ele>99.63</ele>
        <time>2013-12-26T14:51:21Z</time>
      </trkpt>
      <trkpt lat="44.75236" lon="0.32644">
        <ele>97.71</ele>
        <time>2013-12-26T14:51:35Z</time>
      </trkpt>
      <trkpt lat="44.75184" lon="0.32596">
        <ele>92.42</ele>
        <time>2013-12-26T14:52:31Z</time>
      </trkpt>
      <trkpt lat="44.75171" lon="0.32588">
        <ele>90.98</ele>
        <time>2013-12-26T14:52:44Z</time>
      </trkpt>
      <trkpt lat="44.75139" lon="0.3259">
        <ele>91.94</ele>
        <time>2013-12-26T14:53:11Z</time>
      </trkpt>
      <trkpt lat="44.75124" lon="0.32586">
        <ele>92.42</ele>
        <time>2013-12-26T14:53:24Z</time>
      </trkpt>
      <trkpt lat="44.75103" lon="0.3259">
        <ele>92.42</ele>
        <time>2013-12-26T14:53:43Z</time>
      </trkpt>
      <trkpt lat="44.75083" lon="0.32592">
        <ele>93.39</ele>
        <time>2013-12-26T14:53:58Z</time>
      </trkpt>
      <trkpt lat="44.75071" lon="0.32588">
        <ele>94.83</ele>
        <time>2013-12-26T14:54:10Z</time>
      </trkpt>
      <trkpt lat="44.75049" lon="0.32588">
        <ele>95.31</ele>
        <time>2013-12-26T14:54:35Z</time>
      </trkpt>
      <trkpt lat="44.7503" lon="0.32581">
        <ele>97.71</ele>
        <time>2013-12-26T14:54:56Z</time>
      </trkpt>
      <trkpt lat="44.75006" lon="0.32564">
        <ele>97.23</ele>
        <time>2013-12-26T14:56:07Z</time>
      </trkpt>
      <trkpt lat="44.74993" lon="0.32556">
        <ele>94.83</ele>
        <time>2013-12-26T14:56:20Z</time>
      </trkpt>
      <trkpt lat="44.74976" lon="0.32564">
        <ele>97.23</ele>
        <time>2013-12-26T14:56:34Z</time>
      </trkpt>
      <trkpt lat="44.74948" lon="0.32566">
        <ele>96.75</ele>
        <time>2013-12-26T14:57:03Z</time>
      </trkpt>
      <trkpt lat="44.74929" lon="0.32573">
        <ele>98.19</ele>
        <time>2013-12-26T14:57:19Z</time>
      </trkpt>
      <trkpt lat="44.74905" lon="0.32581">
        <ele>98.19</ele>
        <time>2013-12-26T14:57:42Z</time>
      </trkpt>
      <trkpt lat="44.74871" lon="0.32599">
        <ele>98.67</ele>
        <time>2013-12-26T14:58:17Z</time>
      </trkpt>
      <trkpt lat="44.74835" lon="0.3262">
        <ele>100.11</ele>
        <time>2013-12-26T14:58:55Z</time>
      </trkpt>
      <trkpt lat="44.74828" lon="0.32629">
        <ele>100.6</ele>
        <time>2013-12-26T14:59:03Z</time>
      </trkpt>
      <trkpt lat="44.74805" lon="0.32648">
        <ele>101.56</ele>
        <time>2013-12-26T14:59:30Z</time>
      </trkpt>
      <trkpt lat="44.74789" lon="0.32652">
        <ele>102.04</ele>
        <time>2013-12-26T14:59:46Z</time>
      </trkpt>
      <trkpt lat="44.74759" lon="0.32669">
        <ele>103</ele>
        <time>2013-12-26T15:00:19Z</time>
      </trkpt>
      <trkpt lat="44.74736" lon="0.32684">
        <ele>102.04</ele>
        <time>2013-12-26T15:00:43Z</time>
      </trkpt>
      <trkpt lat="44.74697" lon="0.32732">
        <ele>103</ele>
        <time>2013-12-26T15:01:30Z</time>
      </trkpt>
      <trkpt lat="44.74654" lon="0.32822">
        <ele>101.08</ele>
        <time>2013-12-26T15:02:39Z</time>
      </trkpt>
      <trkpt lat="44.74611" lon="0.32884">
        <ele>97.71</ele>
        <time>2013-12-26T15:03:30Z</time>
      </trkpt>
      <trkpt lat="44.74581" lon="0.32925">
        <ele>98.19</ele>
        <time>2013-12-26T15:04:06Z</time>
      </trkpt>
      <trkpt lat="44.74577" lon="0.32935">
        <ele>99.63</ele>
        <time>2013-12-26T15:04:13Z</time>
      </trkpt>
      <trkpt lat="44.74553" lon="0.3297">
        <ele>101.08</ele>
        <time>2013-12-26T15:04:44Z</time>
      </trkpt>
      <trkpt lat="44.74545" lon="0.32985">
        <ele>100.11</ele>
        <time>2013-12-26T15:04:54Z</time>
      </trkpt>
      <trkpt lat="44.74547" lon="0.33028">
        <ele>102.04</ele>
        <time>2013-12-26T15:05:30Z</time>
      </trkpt>
      <trkpt lat="44.74558" lon="0.33047">
        <ele>101.56</ele>
        <time>2013-12-26T15:05:43Z</time>
      </trkpt>
      <trkpt lat="44.74566" lon="0.33083">
        <ele>104.92</ele>
        <time>2013-12-26T15:06:11Z</time>
      </trkpt>
      <trkpt lat="44.74594" lon="0.33114">
        <ele>107.81</ele>
        <time>2013-12-26T15:06:47Z</time>
      </trkpt>
      <trkpt lat="44.74605" lon="0.33122">
        <ele>110.69</ele>
        <time>2013-12-26T15:06:59Z</time>
      </trkpt>
      <trkpt lat="44.74611" lon="0.33131">
        <ele>110.21</ele>
        <time>2013-12-26T15:07:16Z</time>
      </trkpt>
      <trkpt lat="44.74618" lon="0.33154">
        <ele>111.65</ele>
        <time>2013-12-26T15:07:38Z</time>
      </trkpt>
      <trkpt lat="44.7462" lon="0.33223">
        <ele>116.46</ele>
        <time>2013-12-26T15:08:30Z</time>
      </trkpt>
      <trkpt lat="44.74622" lon="0.33236">
        <ele>116.94</ele>
        <time>2013-12-26T15:08:39Z</time>
      </trkpt>
      <trkpt lat="44.7462" lon="0.33253">
        <ele>119.82</ele>
        <time>2013-12-26T15:08:53Z</time>
      </trkpt>
      <trkpt lat="44.7462" lon="0.33298">
        <ele>121.26</ele>
        <time>2013-12-26T15:09:20Z</time>
      </trkpt>
      <trkpt lat="44.74622" lon="0.33307">
        <ele>121.26</ele>
        <time>2013-12-26T15:09:25Z</time>
      </trkpt>
      <trkpt lat="44.7462" lon="0.33345">
        <ele>124.15</ele>
        <time>2013-12-26T15:09:51Z</time>
      </trkpt>
      <trkpt lat="44.74618" lon="0.33365">
        <ele>127.51</ele>
        <time>2013-12-26T15:10:05Z</time>
      </trkpt>
      <trkpt lat="44.74618" lon="0.33371">
        <ele>127.03</ele>
        <time>2013-12-26T15:10:09Z</time>
      </trkpt>
      <trkpt lat="44.74609" lon="0.3339">
        <ele>127.99</ele>
        <time>2013-12-26T15:10:23Z</time>
      </trkpt>
      <trkpt lat="44.74586" lon="0.33429">
        <ele>131.84</ele>
        <time>2013-12-26T15:10:58Z</time>
      </trkpt>
      <trkpt lat="44.74579" lon="0.33438">
        <ele>131.84</ele>
        <time>2013-12-26T15:11:09Z</time>
      </trkpt>
      <trkpt lat="44.74575" lon="0.33438">
        <ele>131.36</ele>
        <time>2013-12-26T15:11:14Z</time>
      </trkpt>
      <trkpt lat="44.74573" lon="0.33427">
        <ele>128.95</ele>
        <time>2013-12-26T15:11:30Z</time>
      </trkpt>
      <trkpt lat="44.74568" lon="0.33435">
        <ele>131.36</ele>
        <time>2013-12-26T15:12:09Z</time>
      </trkpt>
      <trkpt lat="44.74558" lon="0.33435">
        <ele>129.92</ele>
        <time>2013-12-26T15:12:23Z</time>
      </trkpt>
      <trkpt lat="44.74558" lon="0.3344">
        <ele>130.88</ele>
        <time>2013-12-26T15:12:37Z</time>
      </trkpt>
      <trkpt lat="44.74556" lon="0.3344">
        <ele>130.4</ele>
        <time>2013-12-26T15:13:33Z</time>
      </trkpt>
      <trkpt lat="44.74551" lon="0.3345">
        <ele>131.36</ele>
        <time>2013-12-26T15:14:53Z</time>
      </trkpt>
      <trkpt lat="44.74549" lon="0.33483">
        <ele>132.8</ele>
        <time>2013-12-26T15:15:13Z</time>
      </trkpt>
      <trkpt lat="44.74534" lon="0.33489">
        <ele>131.36</ele>
        <time>2013-12-26T15:15:31Z</time>
      </trkpt>
      <trkpt lat="44.74515" lon="0.33556">
        <ele>131.36</ele>
        <time>2013-12-26T15:16:13Z</time>
      </trkpt>
      <trkpt lat="44.74513" lon="0.33566">
        <ele>132.8</ele>
        <time>2013-12-26T15:16:21Z</time>
      </trkpt>
      <trkpt lat="44.74502" lon="0.33594">
        <ele>134.24</ele>
        <time>2013-12-26T15:16:42Z</time>
      </trkpt>
      <trkpt lat="44.745" lon="0.3362">
        <ele>134.72</ele>
        <time>2013-12-26T15:16:59Z</time>
      </trkpt>
      <trkpt lat="44.74523" lon="0.33648">
        <ele>137.61</ele>
        <time>2013-12-26T15:17:29Z</time>
      </trkpt>
      <trkpt lat="44.74517" lon="0.33678">
        <ele>137.61</ele>
        <time>2013-12-26T15:17:48Z</time>
      </trkpt>
      <trkpt lat="44.74504" lon="0.33719">
        <ele>135.68</ele>
        <time>2013-12-26T15:18:15Z</time>
      </trkpt>
      <trkpt lat="44.74504" lon="0.33747">
        <ele>135.68</ele>
        <time>2013-12-26T15:18:31Z</time>
      </trkpt>
      <trkpt lat="44.74498" lon="0.33768">
        <ele>134.72</ele>
        <time>2013-12-26T15:18:44Z</time>
      </trkpt>
      <trkpt lat="44.74478" lon="0.33813">
        <ele>129.43</ele>
        <time>2013-12-26T15:19:14Z</time>
      </trkpt>
      <trkpt lat="44.74459" lon="0.33854">
        <ele>128.47</ele>
        <time>2013-12-26T15:19:42Z</time>
      </trkpt>
      <trkpt lat="44.74399" lon="0.33811">
        <ele>121.74</ele>
        <time>2013-12-26T15:20:36Z</time>
      </trkpt>
      <trkpt lat="44.74386" lon="0.33798">
        <ele>121.74</ele>
        <time>2013-12-26T15:20:51Z</time>
      </trkpt>
      <trkpt lat="44.74382" lon="0.33796">
        <ele>122.22</ele>
        <time>2013-12-26T15:20:55Z</time>
      </trkpt>
      <trkpt lat="44.74375" lon="0.33796">
        <ele>121.26</ele>
        <time>2013-12-26T15:20:59Z</time>
      </trkpt>
      <trkpt lat="44.74373" lon="0.33817">
        <ele>119.82</ele>
        <time>2013-12-26T15:21:12Z</time>
      </trkpt>
      <trkpt lat="44.74377" lon="0.33884">
        <ele>120.78</ele>
        <time>2013-12-26T15:21:54Z</time>
      </trkpt>
      <trkpt lat="44.74375" lon="0.33905">
        <ele>122.71</ele>
        <time>2013-12-26T15:22:09Z</time>
      </trkpt>
      <trkpt lat="44.74386" lon="0.33993">
        <ele>128.95</ele>
        <time>2013-12-26T15:23:06Z</time>
      </trkpt>
      <trkpt lat="44.74393" lon="0.34028">
        <ele>132.32</ele>
        <time>2013-12-26T15:23:35Z</time>
      </trkpt>
      <trkpt lat="44.74401" lon="0.3409">
        <ele>142.41</ele>
        <time>2013-12-26T15:24:26Z</time>
      </trkpt>
      <trkpt lat="44.74401" lon="0.34105">
        <ele>142.41</ele>
        <time>2013-12-26T15:25:10Z</time>
      </trkpt>
      <trkpt lat="44.74384" lon="0.34109">
        <ele>144.82</ele>
        <time>2013-12-26T15:25:29Z</time>
      </trkpt>
      <trkpt lat="44.74362" lon="0.34109">
        <ele>144.82</ele>
        <time>2013-12-26T15:25:48Z</time>
      </trkpt>
      <trkpt lat="44.74328" lon="0.34116">
        <ele>143.85</ele>
        <time>2013-12-26T15:26:23Z</time>
      </trkpt>
      <trkpt lat="44.74307" lon="0.34103">
        <ele>140.01</ele>
        <time>2013-12-26T15:26:52Z</time>
      </trkpt>
      <trkpt lat="44.74302" lon="0.34105">
        <ele>140.01</ele>
        <time>2013-12-26T15:26:57Z</time>
      </trkpt>
      <trkpt lat="44.74298" lon="0.34109">
        <ele>140.49</ele>
        <time>2013-12-26T15:27:00Z</time>
      </trkpt>
      <trkpt lat="44.74298" lon="0.34128">
        <ele>141.45</ele>
        <time>2013-12-26T15:27:12Z</time>
      </trkpt>
      <trkpt lat="44.74298" lon="0.34143">
        <ele>143.85</ele>
        <time>2013-12-26T15:27:23Z</time>
      </trkpt>
      <trkpt lat="44.743" lon="0.34143">
        <ele>143.37</ele>
        <time>2013-12-26T15:27:24Z</time>
      </trkpt>
      <trkpt lat="44.74305" lon="0.34176">
        <ele>148.66</ele>
        <time>2013-12-26T15:27:49Z</time>
      </trkpt>
      <trkpt lat="44.74311" lon="0.34199">
        <ele>150.58</ele>
        <time>2013-12-26T15:28:12Z</time>
      </trkpt>
      <trkpt lat="44.74313" lon="0.34201">
        <ele>152.03</ele>
        <time>2013-12-26T15:28:26Z</time>
      </trkpt>
      <trkpt lat="44.74315" lon="0.34216">
        <ele>155.87</ele>
        <time>2013-12-26T15:28:39Z</time>
      </trkpt>
      <trkpt lat="44.74309" lon="0.34253">
        <ele>158.75</ele>
        <time>2013-12-26T15:29:09Z</time>
      </trkpt>
      <trkpt lat="44.74311" lon="0.34279">
        <ele>160.68</ele>
        <time>2013-12-26T15:29:28Z</time>
      </trkpt>
      <trkpt lat="44.74313" lon="0.34287">
        <ele>161.64</ele>
        <time>2013-12-26T15:29:43Z</time>
      </trkpt>
      <trkpt lat="44.74266" lon="0.34341">
        <ele>161.64</ele>
        <time>2013-12-26T15:32:39Z</time>
      </trkpt>
      <trkpt lat="44.7424" lon="0.34375">
        <ele>160.2</ele>
        <time>2013-12-26T15:33:08Z</time>
      </trkpt>
      <trkpt lat="44.74225" lon="0.34397">
        <ele>160.68</ele>
        <time>2013-12-26T15:33:26Z</time>
      </trkpt>
      <trkpt lat="44.74214" lon="0.34414">
        <ele>158.27</ele>
        <time>2013-12-26T15:33:41Z</time>
      </trkpt>
      <trkpt lat="44.74204" lon="0.34425">
        <ele>155.87</ele>
        <time>2013-12-26T15:33:53Z</time>
      </trkpt>
      <trkpt lat="44.74169" lon="0.34429">
        <ele>154.43</ele>
        <time>2013-12-26T15:34:24Z</time>
      </trkpt>
      <trkpt lat="44.74141" lon="0.34429">
        <ele>153.47</ele>
        <time>2013-12-26T15:34:52Z</time>
      </trkpt>
      <trkpt lat="44.74137" lon="0.34433">
        <ele>152.99</ele>
        <time>2013-12-26T15:35:15Z</time>
      </trkpt>
      <trkpt lat="44.74126" lon="0.34431">
        <ele>153.95</ele>
        <time>2013-12-26T15:35:26Z</time>
      </trkpt>
      <trkpt lat="44.74109" lon="0.34425">
        <ele>152.99</ele>
        <time>2013-12-26T15:35:40Z</time>
      </trkpt>
      <trkpt lat="44.74096" lon="0.34427">
        <ele>154.91</ele>
        <time>2013-12-26T15:35:52Z</time>
      </trkpt>
      <trkpt lat="44.74088" lon="0.34431">
        <ele>154.91</ele>
        <time>2013-12-26T15:36:00Z</time>
      </trkpt>
      <trkpt lat="44.74073" lon="0.34455">
        <ele>156.83</ele>
        <time>2013-12-26T15:36:24Z</time>
      </trkpt>
      <trkpt lat="44.74064" lon="0.3445">
        <ele>155.39</ele>
        <time>2013-12-26T15:36:37Z</time>
      </trkpt>
      <trkpt lat="44.74053" lon="0.34461">
        <ele>153.95</ele>
        <time>2013-12-26T15:36:49Z</time>
      </trkpt>
      <trkpt lat="44.74056" lon="0.3451">
        <ele>152.03</ele>
        <time>2013-12-26T15:37:22Z</time>
      </trkpt>
      <trkpt lat="44.74047" lon="0.34538">
        <ele>150.1</ele>
        <time>2013-12-26T15:39:27Z</time>
      </trkpt>
      <trkpt lat="44.74051" lon="0.34547">
        <ele>151.06</ele>
        <time>2013-12-26T15:40:12Z</time>
      </trkpt>
      <trkpt lat="44.7406" lon="0.34588">
        <ele>154.43</ele>
        <time>2013-12-26T15:41:26Z</time>
      </trkpt>
      <trkpt lat="44.7406" lon="0.34635">
        <ele>153.95</ele>
        <time>2013-12-26T15:41:54Z</time>
      </trkpt>
      <trkpt lat="44.74058" lon="0.34682">
        <ele>149.14</ele>
        <time>2013-12-26T15:42:23Z</time>
      </trkpt>
      <trkpt lat="44.74064" lon="0.34697">
        <ele>149.14</ele>
        <time>2013-12-26T15:42:45Z</time>
      </trkpt>
      <trkpt lat="44.74086" lon="0.34708">
        <ele>150.58</ele>
        <time>2013-12-26T15:43:49Z</time>
      </trkpt>
      <trkpt lat="44.74099" lon="0.34721">
        <ele>148.66</ele>
        <time>2013-12-26T15:44:02Z</time>
      </trkpt>
      <trkpt lat="44.74099" lon="0.34736">
        <ele>147.7</ele>
        <time>2013-12-26T15:44:11Z</time>
      </trkpt>
      <trkpt lat="44.74103" lon="0.34749">
        <ele>145.3</ele>
        <time>2013-12-26T15:44:24Z</time>
      </trkpt>
      <trkpt lat="44.74107" lon="0.34774">
        <ele>142.41</ele>
        <time>2013-12-26T15:44:39Z</time>
      </trkpt>
      <trkpt lat="44.74111" lon="0.34781">
        <ele>141.45</ele>
        <time>2013-12-26T15:44:48Z</time>
      </trkpt>
      <trkpt lat="44.74116" lon="0.34796">
        <ele>141.45</ele>
        <time>2013-12-26T15:44:57Z</time>
      </trkpt>
      <trkpt lat="44.74116" lon="0.34824">
        <ele>140.01</ele>
        <time>2013-12-26T15:45:20Z</time>
      </trkpt>
      <trkpt lat="44.7412" lon="0.34832">
        <ele>139.05</ele>
        <time>2013-12-26T15:45:31Z</time>
      </trkpt>
      <trkpt lat="44.74137" lon="0.3483">
        <ele>137.61</ele>
        <time>2013-12-26T15:45:48Z</time>
      </trkpt>
      <trkpt lat="44.74156" lon="0.3483">
        <ele>136.16</ele>
        <time>2013-12-26T15:46:05Z</time>
      </trkpt>
      <trkpt lat="44.74176" lon="0.34834">
        <ele>133.76</ele>
        <time>2013-12-26T15:46:24Z</time>
      </trkpt>
      <trkpt lat="44.74195" lon="0.34834">
        <ele>132.8</ele>
        <time>2013-12-26T15:46:40Z</time>
      </trkpt>
      <trkpt lat="44.74257" lon="0.3483">
        <ele>131.36</ele>
        <time>2013-12-26T15:47:36Z</time>
      </trkpt>
      <trkpt lat="44.74305" lon="0.34837">
        <ele>128.47</ele>
        <time>2013-12-26T15:48:19Z</time>
      </trkpt>
      <trkpt lat="44.74317" lon="0.34841">
        <ele>127.51</ele>
        <time>2013-12-26T15:48:32Z</time>
      </trkpt>
      <trkpt lat="44.74354" lon="0.34841">
        <ele>125.59</ele>
        <time>2013-12-26T15:49:10Z</time>
      </trkpt>
      <trkpt lat="44.74369" lon="0.3483">
        <ele>125.59</ele>
        <time>2013-12-26T15:49:26Z</time>
      </trkpt>
      <trkpt lat="44.74386" lon="0.34824">
        <ele>124.15</ele>
        <time>2013-12-26T15:49:42Z</time>
      </trkpt>
      <trkpt lat="44.74393" lon="0.34826">
        <ele>124.15</ele>
        <time>2013-12-26T15:49:47Z</time>
      </trkpt>
      <trkpt lat="44.74412" lon="0.34817">
        <ele>124.15</ele>
        <time>2013-12-26T15:50:06Z</time>
      </trkpt>
      <trkpt lat="44.74429" lon="0.34802">
        <ele>124.63</ele>
        <time>2013-12-26T15:50:20Z</time>
      </trkpt>
      <trkpt lat="44.74442" lon="0.34798">
        <ele>126.55</ele>
        <time>2013-12-26T15:50:32Z</time>
      </trkpt>
      <trkpt lat="44.74448" lon="0.34796">
        <ele>126.07</ele>
        <time>2013-12-26T15:50:40Z</time>
      </trkpt>
      <trkpt lat="44.74491" lon="0.34768">
        <ele>129.43</ele>
        <time>2013-12-26T15:51:22Z</time>
      </trkpt>
      <trkpt lat="44.74504" lon="0.34764">
        <ele>129.92</ele>
        <time>2013-12-26T15:51:35Z</time>
      </trkpt>
      <trkpt lat="44.74528" lon="0.34749">
        <ele>130.4</ele>
        <time>2013-12-26T15:51:56Z</time>
      </trkpt>
      <trkpt lat="44.74558" lon="0.34734">
        <ele>131.84</ele>
        <time>2013-12-26T15:52:37Z</time>
      </trkpt>
      <trkpt lat="44.7456" lon="0.34731">
        <ele>133.76</ele>
        <time>2013-12-26T15:52:40Z</time>
      </trkpt>
      <trkpt lat="44.74577" lon="0.34721">
        <ele>134.24</ele>
        <time>2013-12-26T15:53:20Z</time>
      </trkpt>
      <trkpt lat="44.74588" lon="0.34712">
        <ele>137.13</ele>
        <time>2013-12-26T15:53:32Z</time>
      </trkpt>
      <trkpt lat="44.74594" lon="0.3471">
        <ele>135.2</ele>
        <time>2013-12-26T15:53:46Z</time>
      </trkpt>
      <trkpt lat="44.74601" lon="0.34701">
        <ele>136.64</ele>
        <time>2013-12-26T15:53:59Z</time>
      </trkpt>
      <trkpt lat="44.74635" lon="0.34695">
        <ele>139.05</ele>
        <time>2013-12-26T15:54:36Z</time>
      </trkpt>
      <trkpt lat="44.74652" lon="0.34701">
        <ele>140.97</ele>
        <time>2013-12-26T15:54:58Z</time>
      </trkpt>
      <trkpt lat="44.74674" lon="0.34704">
        <ele>139.05</ele>
        <time>2013-12-26T15:55:21Z</time>
      </trkpt>
      <trkpt lat="44.74704" lon="0.34684">
        <ele>138.57</ele>
        <time>2013-12-26T15:55:48Z</time>
      </trkpt>
      <trkpt lat="44.74738" lon="0.34652">
        <ele>134.72</ele>
        <time>2013-12-26T15:56:21Z</time>
      </trkpt>
      <trkpt lat="44.74768" lon="0.34631">
        <ele>132.32</ele>
        <time>2013-12-26T15:56:47Z</time>
      </trkpt>
      <trkpt lat="44.74805" lon="0.34607">
        <ele>131.36</ele>
        <time>2013-12-26T15:57:25Z</time>
      </trkpt>
      <trkpt lat="44.74856" lon="0.34575">
        <ele>132.8</ele>
        <time>2013-12-26T15:58:20Z</time>
      </trkpt>
      <trkpt lat="44.74899" lon="0.34545">
        <ele>136.64</ele>
        <time>2013-12-26T15:59:10Z</time>
      </trkpt>
      <trkpt lat="44.74914" lon="0.3453">
        <ele>139.05</ele>
        <time>2013-12-26T15:59:57Z</time>
      </trkpt>
      <trkpt lat="44.7494" lon="0.34519">
        <ele>142.41</ele>
        <time>2013-12-26T16:00:34Z</time>
      </trkpt>
      <trkpt lat="44.74995" lon="0.34483">
        <ele>152.51</ele>
        <time>2013-12-26T16:01:39Z</time>
      </trkpt>
      <trkpt lat="44.75034" lon="0.34461">
        <ele>161.64</ele>
        <time>2013-12-26T16:02:29Z</time>
      </trkpt>
      <trkpt lat="44.75053" lon="0.34446">
        <ele>164.52</ele>
        <time>2013-12-26T16:02:51Z</time>
      </trkpt>
      <trkpt lat="44.7506" lon="0.34437">
        <ele>165</ele>
        <time>2013-12-26T16:03:01Z</time>
      </trkpt>
      <trkpt lat="44.75103" lon="0.34418">
        <ele>166.93</ele>
        <time>2013-12-26T16:03:46Z</time>
      </trkpt>
      <trkpt lat="44.75107" lon="0.3441">
        <ele>167.41</ele>
        <time>2013-12-26T16:04:02Z</time>
      </trkpt>
      <trkpt lat="44.75111" lon="0.34384">
        <ele>167.41</ele>
        <time>2013-12-26T16:04:38Z</time>
      </trkpt>
      <trkpt lat="44.75124" lon="0.34386">
        <ele>168.85</ele>
        <time>2013-12-26T16:04:55Z</time>
      </trkpt>
      <trkpt lat="44.75124" lon="0.34386">
        <ele>167.41</ele>
        <time>2013-12-26T16:04:56Z</time>
      </trkpt>
      <trkpt lat="44.75109" lon="0.3438">
        <ele>166.93</ele>
        <time>2013-12-26T16:05:14Z</time>
      </trkpt>
      <trkpt lat="44.75109" lon="0.34367">
        <ele>167.41</ele>
        <time>2013-12-26T16:05:23Z</time>
      </trkpt>
      <trkpt lat="44.75098" lon="0.34354">
        <ele>167.41</ele>
        <time>2013-12-26T16:05:38Z</time>
      </trkpt>
      <trkpt lat="44.75086" lon="0.34304">
        <ele>167.89</ele>
        <time>2013-12-26T16:06:09Z</time>
      </trkpt>
      <trkpt lat="44.75077" lon="0.34296">
        <ele>166.45</ele>
        <time>2013-12-26T16:06:23Z</time>
      </trkpt>
      <trkpt lat="44.75071" lon="0.34279">
        <ele>166.45</ele>
        <time>2013-12-26T16:06:44Z</time>
      </trkpt>
      <trkpt lat="44.75051" lon="0.34204">
        <ele>166.45</ele>
        <time>2013-12-26T16:07:45Z</time>
      </trkpt>
      <trkpt lat="44.75049" lon="0.34193">
        <ele>167.89</ele>
        <time>2013-12-26T16:07:52Z</time>
      </trkpt>
      <trkpt lat="44.75045" lon="0.34184">
        <ele>165</ele>
        <time>2013-12-26T16:07:58Z</time>
      </trkpt>
      <trkpt lat="44.75036" lon="0.34161">
        <ele>167.41</ele>
        <time>2013-12-26T16:08:14Z</time>
      </trkpt>
      <trkpt lat="44.75023" lon="0.34139">
        <ele>166.93</ele>
        <time>2013-12-26T16:08:31Z</time>
      </trkpt>
      <trkpt lat="44.75015" lon="0.34128">
        <ele>165.48</ele>
        <time>2013-12-26T16:08:43Z</time>
      </trkpt>
      <trkpt lat="44.75008" lon="0.34116">
        <ele>165.96</ele>
        <time>2013-12-26T16:08:57Z</time>
      </trkpt>
      <trkpt lat="44.75004" lon="0.34094">
        <ele>164.52</ele>
        <time>2013-12-26T16:09:35Z</time>
      </trkpt>
      <trkpt lat="44.74998" lon="0.34105">
        <ele>164.04</ele>
        <time>2013-12-26T16:12:23Z</time>
      </trkpt>
      <trkpt lat="44.74998" lon="0.34098">
        <ele>165</ele>
        <time>2013-12-26T16:13:20Z</time>
      </trkpt>
      <trkpt lat="44.75" lon="0.34105">
        <ele>165</ele>
        <time>2013-12-26T16:13:37Z</time>
      </trkpt>
      <trkpt lat="44.75" lon="0.34101">
        <ele>165.96</ele>
        <time>2013-12-26T16:14:24Z</time>
      </trkpt>
    </trkseg>
  </trk>
</gpx>